     2              OBSERVATION DATA    GPS                 RINEX VERSION / TYPE
ASRINEXO V2.2.0 UX USGS 09-FEB-94 14:30                     PGM / RUN BY / DATE
                                                            COMMENT
Original Marker Name: salt Salt_unstmpd_Bur_of_Rec.         COMMENT
Campaign Name: salton linear array                          COMMENT
4-Character Station Name: SALT                              COMMENT
6-Character Antenna Code: ASHL12                            COMMENT
Vertical Measurement Point: BBE                             COMMENT
Vertical Offset to Rinex Ref. Point: 0.0595                 COMMENT
Radial Measurement Point: EGP                               COMMENT
Radial Offset to Rinex Ref. Point: 0.1424                   COMMENT
Antenna Height from Field Measurement: 1.2600 m             COMMENT
Additional Antenna Identification Info.:                    COMMENT
Original Ashtech L1/L2                                      COMMENT
Original XYZ: -2333049.5500 -4778598.0600 3510013.4900      COMMENT
New XYZ position is based on association with SCEC monument COMMENT
E1D0K9V3+0011. Position of that monument is believed to be  COMMENT
valid to within 1 m horizontally; vertical accuracy         COMMENT
should be no worse than 3-times this value.                 COMMENT
                                                            COMMENT
Revised Rinex header created by UCSD GPS archive for        COMMENT
GSAC on 25-May-2001 (2001:145) 15:19:28 GMT                 COMMENT
For assistance contact dagnew@ucsd.edu or hjohnson@ucsd.edu COMMENT
                                                            COMMENT
SALT SALT_UNSTMPD_BUR_OF_REC.                               MARKER NAME
                                                            MARKER NUMBER
GDH US GEOLOGICAL SURVEY                                    OBSERVER / AGENCY
764 ASHTECH L-XII 7A                                        REC # / TYPE / VERS
598 ASHTECH GEODETIC L                                      ANT # / TYPE
 -2333645.5826 -4779129.3900  3508785.2339                  APPROX POSITION XYZ
        1.1924        0.0000        0.0000                  ANTENNA: DELTA H/E/N
     1     2     0                                          WAVELENGTH FACT L1/2
     3    C1    L1    L2                                    # / TYPES OF OBSERV
    30                                                      INTERVAL
  1994     2     8    16    41    0.000000                  TIME OF FIRST OBS
  1994     2     8    23    34    0.000000                  TIME OF LAST OBS
                                                            END OF HEADER
 94  2  8 16 41  0.0000000  0  3  1 14 15
  23234792.388     9699632.53716    131510.261
  23235041.575     -190837.68216   -173422.249
  21110212.524      471329.08618      2574.748
 94  2  8 16 41 30.0000000  0  3  1 14 15
  23248022.109     9769153.298 6    185680.889
  23218224.777     -279206.014 6   -242281.655
  21109822.404      469264.798 8       965.981 3
 94  2  8 16 42  0.0000000  0  4  1 21 14 15
  23261142.706     9838091.024 6    239398.615 2
  23847317.126    -1919876.26515    189488.158
  23201298.166     -368142.013 6   -311583.136
  21109432.584      467229.742 8      -619.791 5
 94  2  8 16 42 30.0000000  0  5  1 25 21 14 15
  23274228.287     9906893.430 6    293010.828 2
  20738172.722     5961447.35918      6505.127 1
  23863454.055    -1835021.862 5    255608.323 1
  23184353.806     -457211.232 6   -380986.233 1
  21109133.421      465654.191 8     -1847.499 6
 94  2  8 16 43  0.0000000  0  5  1 25 21 14 15
  23287333.864     9975736.269 6    346654.582 3
  20738913.389     5965327.842 8      9524.235 1
  23879651.991    -1749924.174 5    321918.051 1
  23167414.213     -546233.880 6   -450354.472 2
  21108951.447      464717.133 8     -2577.636 6
 94  2  8 16 43 30.0000000  0  5  1 25 21 14 15
  23300474.127    10044791.998 6    400464.144 3
  20739782.128     5969900.834 8     13087.507 5
  23895918.940    -1664425.550 5    388540.174 1
  23150513.563     -635035.652 6   -519550.672 2
  21108928.963      464587.248 8     -2678.887 7
 94  2  8 16 44  0.0000000  0  5  1 25 21 14 15
  23313663.017    10114114.223 6    454481.404 3
  20740794.377     5975232.406 8     17241.987 7
  23912267.732    -1578475.498 5    455514.088 2
  23133669.904     -723548.559 6   -588521.746 3
  21109069.026      465319.116 8     -2108.622 7
 94  2  8 16 44 30.0000000  0  6  1 25 20 21 14 15
  23326917.651    10183774.308 6    508761.898 4
  20741969.144     5981392.588 9     22042.126 8
  24661507.124     4135544.36713      6987.482
  23928731.524    -1492002.583 5    522895.469 2
  23116896.156     -811690.056 6   -657203.428 3
  21109385.397      466987.295 8      -808.746 7
 94  2  8 16 45  0.0000000  0  6  1 25 20 21 14 15
  23340239.319    10253768.711 6    563302.939 4
  20743298.543     5988390.395 9     27494.959 9
  24662391.122     4140188.272 4     10605.918 1
  23945289.961    -1405009.923 5    590681.781 2
  23100195.437     -899449.873 6   -725587.669 4
  21109883.442      469601.573 8      1228.343 7
 94  2  8 16 45 30.0000000  0  6  1 25 20 21 14 15
  23353627.300    10324105.018 6    618110.410 4
  20744797.056     5996262.124 9     33628.774 9
  24663425.826     4145679.354 4     14884.618 1
  23961943.012    -1317485.938 5    658882.101 2
  23083571.496     -986814.211 6   -793663.749 4
  21110563.581      473173.003 8      4011.252 8
 94  2  8 16 46  0.0000000  0  6  1 25 20 21 14 15
  23367103.001    10394919.578 6    673290.526 4
  20746487.795     6005157.172 9     40559.977 9
  24664672.093     4152157.916 4     19932.888 1
  23978726.443    -1229287.876 4    727607.728 2
  23067052.812    -1073636.379 6   -861317.391 4
  21111452.286      477840.916 8      7648.577 8
 94  2  8 16 46 30.0000000  0  6  1 25 20 21 14 15
  23380645.196    10466081.522 6    728741.340 4
  20748350.946     6014943.719 9     48185.861 9
  24666074.492     4159495.168 4     25650.206 1
  23995604.189    -1140542.106 4    796760.111 2
  23050607.157    -1160053.840 6   -928655.661 4
  21112524.314      483475.695 8     12039.293 8
 94  2  8 16 47  0.0000000  0  6  1 25 20 21 14 15
  23394246.270    10537586.009 6    784459.090 4
  20750383.718     6025618.668 9     56503.984 9
  24667619.113     4167680.782 4     32028.528 1
  24012598.074    -1051253.509 4    866335.463 2
  23034240.707    -1246068.352 6   -995679.963 4
  21113779.485      490066.222 8     17174.753 8
 94  2  8 16 47 30.0000000  0  6  1 25 20 21 14 15
  23407916.297    10609423.296 6    840436.144 4
  20752579.188     6037158.267 9     65495.885 9
  24669340.581     4176693.172 4     39051.205 1
  24029694.339     -961427.663 4    936329.440 2
  23017945.278    -1331695.312 6  -1062402.236 4
  21115209.764      497590.128 8     23037.522 7
 94  2  8 16 48  0.0000000  0  6  1 25 20 21 14 15
  23421651.948    10681595.134 6    896673.896 4
  20754940.354     6049555.025 9     75155.703 9
  24671218.031     4186530.877 4     46716.981 1
  24046891.693     -871071.040 4   1006737.010 2
  23001721.470    -1416934.567 6  -1128822.396 5
  21116817.581      506045.132 8     29625.826 7
 94  2  8 16 48 30.0000000  0  7  1 25 20 29 21 14 15
  23435447.557    10754092.696 6    953165.448 4
  20757456.632     6062798.874 9     85475.571 9
  24673237.883     4197182.332 4     55016.702 1
  24141014.773    -9586486.87615   -165032.196
  24064183.363     -780194.309 4   1077549.871 2
  22985572.999    -1501803.234 7  -1194953.796 5
  21118605.514      515419.067 8     36930.184 7
 94  2  8 16 49  0.0000000  0  7  1 25 20 29 21 14 15
  23449316.286    10826952.198 6   1009939.022 4
  20760146.969     6076917.049 9     96476.746 9
  24675431.045     4208677.421 5     63973.951 1
  24128384.427    -9652850.377 5   -216744.351 1
  24081577.171     -688771.774 4   1148788.083 2
  22969500.436    -1586276.887 7  -1260777.411 5
  21120565.137      525741.253 8     44973.430 7
 94  2  8 16 49 30.0000000  0  7  1 25 20 29 21 14 15
  23463243.415    10900172.406 6   1066993.677 4
  20762999.375     6091914.825 9    108163.319 9
  24677783.426     4221026.854 4     73596.899 1
  24115843.869    -9718754.318 5   -268098.046 1
  24099081.693     -596803.492 5   1220451.495 2
  22953499.043    -1670354.859 7  -1326292.681 5
  21122713.150      537021.243 8     53763.010 7
 94  2  8 16 50  0.0000000  0  7  1 25 20 29 21 14 15
  23477241.294    10973722.941 6   1124305.765 4
  20766017.895     6107775.470 9    120522.266 9
  24680291.760     4234214.087 4     83872.716 1
  24103391.929    -9784228.294 5   -319116.655 2
  24116690.992     -504312.714 5   1292522.093 2
  22937569.811    -1754061.326 7  -1391518.488 5
  21125042.417      549241.863 8     63285.587 7
 94  2  8 16 50 30.0000000  0  7  1 25 20 29 21 14 15
  23491307.196    11047634.088 6   1181898.789 4
  20769203.130     6124518.461 9    133568.742 9
  24682955.475     4248277.886 4     94831.462 1
  24091017.576    -9849254.684 5   -369786.500 2
  24134396.135     -411254.526 5   1365034.825 2
  22921720.563    -1837358.596 7  -1456425.442 5
  21127550.271      562440.922 8     73570.543 7
 94  2  8 16 51  0.0000000  0  7  1 25 20 29 21 14 15
  23505442.381    11121907.911 6   1239774.443 4
  20772560.266     6142147.382 9    147305.559 9
  24685813.637     4263237.590 4    106488.362 1
  24078728.873    -9913810.287 5   -420089.567 2
  24152213.610     -317614.634 5   1438000.867 2
  22905951.150    -1920215.628 7  -1520989.360 5
  21130251.911      576636.654 8     84632.141 7
 94  2  8 16 51 30.0000000  0  7  1 25 20 29 21 14 15
  23519641.031    11196542.648 6   1297931.346 4
  20776083.876     6160671.463 9    161739.924 9
  24688831.618     4279104.250 4    118852.029 1
  24066533.286    -9977875.391 5   -470010.344 2
  24170142.159     -223380.487 5   1511429.901 2
  22890277.131    -2002609.866 7  -1585192.627 5
  21133146.977      591839.802 8     96478.737 7
 94  2  8 16 52  0.0000000  0  7  1 25 20 29 21 14 15
  23533916.249    11271548.607 6   1356377.493 4
  20779778.968     6180101.426 9    176880.172 9
  24692024.797     4295882.680 4    131926.128 1
  24054439.268   -10041444.768 5   -519544.860 2
  24188183.429     -128542.545 4   1585329.431 2
  22874686.124    -2084531.561 7  -1649027.674 5
  21136233.280      608054.377 8    109113.474 7
 94  2  8 16 52 30.0000000  0  7  1 25 20 29 21 14 15
  23548263.656    11346939.786 6   1415123.832 4
  20783652.647     6200448.866 9    192735.335 9
  24695393.265     4313579.730 4    145716.028 1
  24042439.595   -10104497.803 5   -568677.016 2
  24206356.698      -33096.990 4   1659702.409 2
  22859184.366    -2165975.015 7  -1712490.097 5
  21139511.421      625285.994 8    122540.700 8
 94  2  8 16 53  0.0000000  0  7  1 25 20 29 21 14 15
  23562686.821    11422725.642 6   1474177.680 4
  20787700.175     6221720.327 9    209310.483 9
  24698936.212     4332191.069 4    160218.318 1
  24030540.053   -10167031.463 5   -617404.483 2
  24224635.584       62951.166 4   1734544.923 2
  22843777.432    -2246952.030 7  -1775589.064 5
  21142983.227      643529.213 8    136756.168 8
 94  2  8 16 53 30.0000000  0  7  1 25 20 29 21 14 15
  23577180.618    11498905.642 6   1533538.645 4
  20791923.411     6243915.156 9    226605.168 9
  24702640.568     4351701.118 4    175420.973 1
  24018737.914   -10229065.595 5   -665742.739 2
  24243020.176      159588.136 5   1809846.316 2
  22828449.763    -2327489.088 7  -1838345.190 5
  21146643.273      662768.361 8    151747.722 8
 94  2  8 16 54  0.0000000  0  6  1 25 20 29 21 14
  23591754.818    11575485.477 6   1593211.199 4
  20796323.225     6267032.874 9    244618.968 9
  24706532.593     4372112.229 4    191325.634 1
  24007028.800   -10290594.254 5   -713687.086 2
  24261523.906      256804.592 4   1885599.219 2
  22813210.233    -2407585.036 7  -1900757.597 5
 94  2  8 16 54 30.0000000  0  8  1 22 25 20 29 21 14 15
  23606382.561    11652352.257 6   1653107.343 4
  24704994.868    -1907061.41414  -1506367.709 2
  20800871.616     6290935.712 9    263244.567 9
  24710567.320     4393304.436 4    207839.029 1
  23995395.563   -10351734.286 5   -761328.618 2
  24280113.167      354478.412 4   1961708.569 2
  22798030.812    -2487344.282 7  -1962907.620 5
  21154509.678     -181428.86718     18851.812
 94  2  8 16 55  0.0000000  0  8  1 22 25 20 29 21 14 15
  23621083.184    11729595.995 6   1713297.234 4
  24688447.194    -1994031.103 4  -1574136.160 2
  20805581.566     6315698.428 9    282540.181 9
  24714760.427     4415364.137 4    225028.024 1
  23983849.746   -10412411.548 6   -808609.516 2
  24298789.188      452691.683 4   2038238.168 2
  22782937.940    -2566661.453 7  -2024713.206 5
  21158710.729     -159354.662 8     36047.662
 94  2  8 16 55 30.0000000  0  8  1 22 25 20 29 21 14 15
  23635851.920    11807207.416 6   1773773.617 4
  24671943.589    -2080731.367 4  -1641694.698 2
  20810458.619     6341318.713 9    302504.047 9
  24719110.506     4438289.275 4    242891.652 1
  23972389.010   -10472626.925 6   -855530.578 2
  24317583.657      551431.777 4   2115178.323 2
  22767930.120    -2645522.646 7  -2086163.453 5
  21163097.113     -136321.736 8     53997.675
 94  2  8 16 56  0.0000000  0  8  1 22 25 20 29 21 14 15
  23650690.088    11885198.768 6   1834546.063 4
  24655491.488    -2167159.053 4  -1709040.774 2
  20815498.700     6367793.550 9    323133.788 9
  24723655.749     4462095.764 4    261442.156 1
  23961018.272   -10532368.465 5   -902082.392 2
  24336482.034      650717.711 4   2192543.800 2
  22753017.274    -2723897.518 7  -2147234.754 5
  21167661.123     -112314.678 8     72705.208 2
 94  2  8 16 56 30.0000000  0  8  1 22 25 20 29 21 14 15
  23665610.669    11963590.066 6   1895630.136 4
  24639106.032    -2253313.908 4  -1776174.342 2
  20820701.448     6395137.902 9    344441.064 9
  24728347.141     4486796.385 3    280689.440 1
  23949739.750   -10591636.081 6   -948264.905 2
  24355468.910      750572.345 5   2270352.424 2
  22738195.055    -2801781.454 7  -2207923.520 5
  21172420.598      -87321.712 8     92180.252 5
 94  2  8 16 57  0.0000000  0  8  1 22 25 20 29 21 14 15
  23680596.424    12042344.272 6   1956996.989 4
  24622756.910    -2339213.360 5  -1843108.888 2
  20826068.813     6423348.499 9    366423.334 9
  24733225.574     4512374.543 3    300620.345 1
  23938547.658   -10650447.501 6   -994091.952 2
  24374584.067      850981.887 5   2348593.443 2
  22723460.496    -2879208.779 7  -2268256.486 5
  21177357.940      -61360.603 8    112409.668 6
 94  2  8 16 57 30.0000000  0  8  1 22 25 20 29 21 14 15
  23695646.965    12121436.125 6   2018626.921 4
  24606465.019    -2424848.450 5  -1909837.433 2
  20831600.313     6452421.706 9    389077.770 9
  24738256.901     4538822.149 4    321228.936 1
  23927443.046   -10708805.539 5  -1039565.713 2
  24393803.102      951940.988 5   2427262.644 2
  22708812.216    -2956194.828 7  -2328245.570 5
  21182485.740      -34440.399 8    133386.450 6
 94  2  8 16 58  0.0000000  0  8  1 22 25 20 29 21 14 15
  23710761.601    12200864.328 6   2080518.982 4
  24590218.066    -2510207.024 5  -1976350.494 2
  20837296.820     6482349.599 9    412398.200 9
  24743446.069     4566130.987 3    342508.557 1
  23916426.123   -10766717.189 5  -1084691.627 2
  24413122.987     1053452.820 5   2506362.608 2
  22694243.742    -3032749.583 7  -2387898.597 5
  21187784.392       -6570.134 8    155103.524 7
 94  2  8 16 58 30.0000000  0  8  1 22 25 20 29 21 14 15
  23725940.123    12280622.476 6   2142668.130 4
  24574023.607    -2595291.150 4  -2042649.722 2
  20843157.822     6513136.690 9    436388.141 9
  24748808.816     4594287.799 3    364448.902 1
  23905490.713   -10824181.431 5  -1129468.893 2
  24432530.951     1155499.504 5   2585879.318 1
  22679755.522    -3108896.235 7  -2447233.606 5
  21193267.866       22236.171 8    177549.992 7
 94  2  8 16 59  0.0000000  0  8  1 22 25 20 29 21 14 15
  23741179.533    12360708.528 6   2205072.788 4
  24557895.703    -2680089.774 5  -2108726.453 2
  20849176.695     6544786.360 9    461050.218 9
  24754311.956     4623296.234 4    387052.909 1
  23894640.834   -10881188.328 5  -1173889.801 2
  24452049.928     1258072.070 4   2665805.840 1
  22665346.597    -3184612.900 7  -2506233.601 5
  21198928.038       51981.255 8    200727.962 7
 94  2  8 16 59 30.0000000  0  8  1 22 25 20 29 21 14 15
  23756485.737    12441139.508 6   2267746.216 4
  24541801.314    -2764607.181 5  -2174584.019 3
  20855358.895     6577276.982 9    486367.589 9
  24760001.717     4653148.594 3    410314.564 1
  23883877.985   -10937747.725 5  -1217962.038 2
  24471683.426     1361157.904 5   2746132.201 1
  22651017.747    -3259902.117 7  -2564900.512 6
  21204764.547       82656.873 8    224631.027 7
 94  2  8 17  0  0.0000000  0  8  1 22 25 20 29 21 14 15
  23771862.452    12521948.079 6   2330713.895 4
  24525770.063    -2848836.504 4  -2240217.044 3
  20861704.602     6610623.573 9    512351.963 9
  24765848.510     4683865.585 4    434249.922 1
  23873208.821   -10993837.238 5  -1261668.111 2
  24491385.667     1464773.638 4   2826871.535 1
  22636775.327    -3334749.462 7  -2623223.067 6
  21210786.148      114282.658 8    249274.491 8
 94  2  8 17  0 30.0000000  0  8  1 22 25 20 29 21 14 15
  23787311.177    12603168.250 6   2394002.283 4
  24509810.132    -2932737.424 5  -2305594.115 3
  20868222.090     6644872.948 9    539039.792 9
  24771875.418     4715497.792 4    458898.471 1
  23862634.122   -11049415.467 5  -1304975.766 2
  24511211.032     1568963.218 4   2908058.003 2
  22622626.981    -3409107.150 7  -2681164.125 6
  21216994.191      146908.224 8    274696.977 8
 94  2  8 17  1  0.0000000  0  8  1 22 25 20 29 21 14 15
  23802825.467    12684652.760 6   2457496.649 4
  24493882.098    -3016449.411 5  -2370824.021 3
  20874883.329     6679875.168 9    566314.263 9
  24778043.857     4747905.929 3    484151.678 1
  23852124.598   -11104636.541 6  -1348005.121 2
  24531120.099     1673590.702 4   2989585.684 2
  22608540.783    -3483105.697 7  -2738825.306 6
  21223364.540      180393.270 8    300789.209 8
 94  2  8 17  1 30.0000000  0  8  1 22 25 20 29 21 14 15
  23818386.374    12766460.743 6   2521243.064 4
  24478002.811    -3099899.398 5  -2435849.715 3
  20881701.599     6715705.073 9    594233.678 9
  24784369.448     4781152.332 3    510058.382
  23841693.469   -11159429.941 6  -1390701.240 2
  24551141.109     1778735.860 4   3071516.771 2
  22594542.364    -3556690.865 7  -2796164.364 6
  21229912.877      214799.350 8    327599.127 8
 94  2  8 17  2  0.0000000  0  8  1 22 25 20 29 21 14 15
  23834013.806    12848566.487 6   2585221.490 4
  24462171.701    -3183091.650 5  -2500674.582 3
  20888678.489     6752367.743 9    622802.013 9
  24790846.734     4815224.333 3    536607.894 1
  23831349.550   -11213799.794 6  -1433067.305 2
  24571254.185     1884391.170 4   3153845.365 2
  22580617.574    -3629866.183 7  -2853184.087 6
  21236632.545      250112.624 8    355115.937 8
 94  2  8 17  2 30.0000000  0  8  1 22 25 20 29 21 14 15
  23849694.060    12930946.315 6   2649413.527 4
  24446384.720    -3266040.924 5  -2565310.064 3
  20895811.631     6789845.583 9    652005.523 9
  24797486.597     4850102.879 3    563786.063
  23821075.603   -11267777.082 6  -1475127.496 2
  24591449.554     1990550.759 4   3236566.910 2
  22566770.190    -3702632.738 7  -2909885.262 6
  21243520.397      286313.590 8    383324.464 8
 94  2  8 17  3  0.0000000  0  8  1 22 25 20 29 21 14 15
  23865422.582    13013633.423 6   2713844.991 4
  24430653.620    -3348715.602 5  -2629731.612 3
  20903104.712     6828166.888 9    681866.306 9
  24804279.774     4885813.826 3    591612.650
  23810884.847   -11321331.203 6  -1516857.911 2
  24611742.265     2097236.809 3   3319698.678 2
  22553007.947    -3774956.729 7  -2966241.604 6
  21250581.768      323427.046 8    412244.025 8
 94  2  8 17  3 30.0000000  0  8  1 22 25 20 29 21 14 15
  23881227.220    13096685.814 6   2778561.085 4
  24414992.642    -3431042.908 5  -2693882.516 3
  20910566.126     6867383.675 9    712424.832 9
  24811247.701     4922421.435 4    620138.176
  23800786.518   -11374390.541 6  -1558202.799 2
  24632154.324     2204498.774 3   3403279.191 2
  22539336.872    -3846774.964 7  -3022203.849 6
  21257827.962      361516.298 8    441923.933 8
 94  2  8 17  4  0.0000000  0  8  1 22 25 20 29 21 14 15
  23897079.886    13179988.151 6   2843471.950 4
  24399361.314    -3513141.305 5  -2757855.012 3
  20918172.730     6907361.657 9    743576.502 9
  24818375.986     4959819.775 3    649279.696
  23790763.737   -11427080.491 6  -1599259.867 2
  24652640.042     2312216.010 3   3487214.430 2
  22525751.117    -3918185.360 7  -3077848.295 6
  21265248.395      400474.266 8    472280.776 8
 94  2  8 17  4 30.0000000  0  8  1 22 25 20 29 21 14 15
  23912982.227    13263537.549 6   2908575.339 4
  24383784.307    -3595010.493 5  -2821648.905 3
  20925926.413     6948094.766 9    775316.592 9
  24825643.794     4998015.036 3    679042.154
  23780802.773   -11479407.489 5  -1640034.091 2
  24673235.664     2420369.076 3   3571489.371 1
  22512237.882    -3989186.731 7  -3133174.031 6
  21272821.632      440306.080 8    503318.531 7
 94  2  8 17  5  0.0000000  0  7  1 22 25 29 21 14 15
  23928932.145    13347333.051 6   2973870.469 3
  24368252.570    -3676636.734 5  -2885253.541 3
  20933817.160     6989571.121 9    807635.834 9
  23770915.618   -11531367.474 6  -1680522.340 2
  24693907.164     2528928.201 3   3656080.706 1
  22498802.173    -4059797.961 7  -3188195.750 6
  21280569.378      481004.970 8    535031.947 7
 94  2  8 17  5 30.0000000  0  7  1 22 25 29 21 14 15
  23944922.655    13431384.806 6   3039365.226 3
  24352765.112    -3758010.687 5  -2948661.581 3
  20941853.546     7031797.058 9    840539.150 9
  23761100.323   -11582950.704 6  -1720717.036 2
  24714619.795     2637903.352 3   3740996.083 1
  22485443.451    -4130004.611 7  -3242902.202 6
  21288481.921      522580.225 8    567428.227 7
 94  2  8 17  6  0.0000000  0  6  1 22 25 29 14 15
  23960955.526    13515639.758 6   3105018.372 3
  24337313.089    -3839201.992 5  -3011927.320 2
  20950020.732     7074717.645 9    873983.741 9
  23751339.800   -11634234.837 6  -1760678.650 2
  22472147.536    -4199874.569 7  -3297346.329 6
  21296543.340      564960.907 8    600452.103 7
 94  2  8 17  6 30.0000000  0  6  1 22 25 29 14 15
  23977040.170    13600161.987 6   3170879.777 3
  24321910.592    -3920155.404 5  -3075007.724 2
  20958330.470     7118384.046 9    908009.506 9
  23741652.816   -11685173.005 6  -1800370.684 2
  22458924.350    -4269366.796 7  -3351496.105 6
  21304770.454      608182.409 8    634131.200 7
 94  2  8 17  7  0.0000000  0  6  1 22 25 29 14 15
  23993184.564    13685015.166 6   3236999.087 3
  24306559.479    -4000810.461 5  -3137855.663 2
  20966791.722     7162847.571 9    942656.394 9
  23732040.031   -11735692.805 6  -1839736.703 2
  22445784.747    -4338413.078 7  -3405298.381 6
  21313162.185      652295.037 8    668504.652 7
 94  2  8 17  7 30.0000000  0  6  1 22 25 29 14 15
  24009396.561    13770185.354 6   3303365.392 3
  24291261.340    -4081181.952 5  -3200482.624 2
  20975402.691     7208111.750 9    977927.172 9
  23722502.014   -11785798.934 6  -1878780.424 2
  22432727.106    -4407020.971 7  -3458759.076 6
  21321725.577      697291.034 8    703566.466 7
 94  2  8 17  8  0.0000000  0  6  1 22 25 29 14 15
  24025655.775    13855647.639 6   3369959.312 3
  24276016.743    -4161289.217 5  -3262903.716 2
  20984164.335     7254146.368 9   1013798.298 9
  23713041.133   -11835510.914 6  -1917516.975 3
  22419747.502    -4475221.603 7  -3511902.398 6
  21330453.674      743145.895 8    739297.509 7
 94  2  8 17  8 30.0000000  0  6  1 22 25 29 14 15
  24041971.230    13941378.919 6   3436762.821 3
  24260825.900    -4241130.344 5  -3325117.425 2
  20993064.574     7300931.930 9   1050254.574 9
  23703657.000   -11884814.616 6  -1955935.399 3
  22406851.060    -4543018.148 7  -3564730.881 6
  21339345.219      789852.826 8    775692.503 7
 94  2  8 17  9  0.0000000  0  6  1 22 25 29 14 15
  24058329.555    14027350.921 6   3503753.941 3
  24245688.179    -4320709.860 5  -3387127.277 2
  21002111.321     7348458.944 9   1087288.613 9
  23694356.958   -11933719.841 6  -1994043.337 3
  22394021.472    -4610431.233 7  -3617260.523 6
  21348389.238      837405.294 8    812746.370 7
 94  2  8 17  9 30.0000000  0  6  1 22 25 29 14 15
  24074733.689    14113564.067 6   3570932.956 3
  24230589.312    -4400035.397 5  -3448939.277 2
  21011294.833     7396717.624 9   1124892.769 9
  23685114.087   -11982253.396 6  -2031861.675 3
  22381264.223    -4677477.969 7  -3669504.737 6
  21357596.464      885790.545 8    850449.137 7
 94  2  8 17 10  0.0000000  0  6  1 22 25 29 14 15
  24091191.065    14200020.070 6   3638301.197 3
  24215546.746    -4479107.116 5  -3510553.444 2
  21020615.920     7445695.952 9   1163057.698 9
  23675944.545   -12030427.466 6  -2069399.914 3
  22368573.199    -4744148.941 7  -3721456.128 6
  21366958.203      934994.289 8    888789.702 7
 94  2  8 17 10 30.0000000  0  6  1 22 25 29 14 15
  24107682.679    14286712.205 6   3705853.473 3
  24200546.990    -4557932.912 5  -3571975.991 2
  21030071.944     7495399.495 9   1201787.747 9
  23666849.981   -12078262.780 6  -2106674.154 3
  22355960.631    -4810438.079 7  -3773109.996 6
  21376478.022      985001.113 8    927756.045 7
 94  2  8 17 11  0.0000000  0  6  1 22 25 29 14 15
  24124226.426    14373655.364 5   3773601.270 3
  24185590.164    -4636523.015 5  -3633214.879 2
  21039670.459     7545840.418 9   1241092.362 9
  23657798.587   -12125787.437 6  -2143706.303 3
  22343419.053    -4876343.656 7  -3824464.973 6
  21386143.961     1035802.693 8    967341.681 7
 94  2  8 17 11 30.0000000  0  6  1 22 25 29 14 15
  24140818.019    14460848.894 6   3841544.234 3
  24170678.218    -4714883.236 5  -3694274.598 2
  21049411.256     7597008.265 9   1280963.402 9
  23648818.634   -12172999.054 6  -2180494.606 3
  22330954.612    -4941846.660 7  -3875506.257 6
  21395960.725     1087392.839 8   1007541.760 7
 94  2  8 17 12  0.0000000  0  6  1 22 25 29 14 15
  24157461.088    14548280.557 5   3909672.755 3
  24155816.546    -4793003.253 5  -3755147.161 2
  21059283.961     7648895.553 9   1321395.051 9
  23639893.692   -12219884.707 6  -2217028.843 3
  22318568.417    -5006933.891 7  -3926223.572 6
  21405925.976     1139778.516 8   1048361.747 7
 94  2  8 17 12 30.0000000  0  6  1 22 25 29 14 15
  24174140.881    14635937.379 5   3977976.684 3
  24140985.753    -4870886.787 5  -3815835.411 2
  21069289.025     7701478.135 9   1362368.502 9
  23631030.628   -12266464.163 6  -2253324.487 3
  22306258.938    -5071624.083 7  -3976631.507 6
  21416050.087     1192954.508 8   1089797.571 7
 94  2  8 17 13  0.0000000  0  6  1 22 25 29 14 15
  24190865.222    14723811.067 5   4046449.620 3
  24126215.219    -4948533.435 5  -3876339.092 2
  21079422.549     7754727.270 9   1403861.320 9
  23622229.681   -12312734.134 6  -2289378.991 3
  22294017.303    -5135937.933 7  -4026746.183 6
  21426313.842     1246915.988 8   1131845.448 7
 94  2  8 17 13 30.0000000  0  6  1 22 25 29 14 15
  24207623.951    14811875.241 6   4115070.992 3
  24111487.165    -5025947.810 5  -3936661.747 2
  21089677.130     7808612.859 9   1445850.099 9
  23613483.476   -12358689.878 6  -2325188.665 3
  22281851.545    -5199885.989 7  -4076575.820 6
  21436736.336     1301658.931 8   1174502.283 7
 94  2  8 17 14  0.0010000  0  6  1 22 25 29 14 15
  24224415.536    14900104.255 6   4183820.791 3
  24096791.398    -5103156.815 6  -3996824.371 2
  21100048.780     7863121.866 9   1488324.641 9
  23604792.102   -12404362.911 6  -2360777.996 3
  22269743.587    -5263513.268 7  -4126155.498 6
  21447295.536     1357159.536 8   1217749.482 7
 94  2  8 17 14 30.0010000  0  6  1 22 25 29 14 15
  24241238.720    14988506.206 6   4252705.366 3
  24082126.870    -5180162.981 5  -4056828.959 3
  21110543.915     7918268.881 9   1531296.337 9
  23596155.591   -12449754.455 6  -2396147.999 3
  22257694.809    -5326821.192 7  -4175486.338 6
  21457999.356     1413413.307 8   1261583.570 7
 94  2  8 17 15  0.0010000  0  6  1 22 25 29 14 15
  24258092.842    15077085.095 6   4321727.798 3
  24067521.582    -5256972.332 5  -4116680.169 3
  21121160.165     7974069.455 9   1574777.306 9
  23587572.144   -12494837.214 6  -2431277.403 3
  22245711.654    -5389794.147 7  -4224556.156 6
  21468849.984     1470425.119 8   1306008.351 7
 94  2  8 17 15 30.0010000  0  6  1 22 25 29 14 15
  24274977.183    15165827.408 6   4390877.566 3
  24052939.467    -5333588.949 5  -4176381.225 3
  21131902.268     8030514.071 9   1618760.127 9
  23579046.346   -12539633.372 6  -2466183.453 3
  22233791.756    -5452430.198 7  -4273363.436 6
  21479842.175     1528180.766 8   1351012.742 7
 94  2  8 17 16  0.0010000  0  6  1 22 25 29 14 15
  24291897.439    15254751.159 5   4460168.755 3
  24038398.183    -5409998.718 5  -4235921.055 3
  21142764.978     8087602.583 9   1663244.673 9
  23570573.432   -12584147.808 6  -2500869.952 2
  22221939.222    -5514720.928 7  -4321901.651 6
  21490970.141     1586672.745 8   1396590.894 7
 94  2  8 17 16 30.0010000  0  6  1 22 25 29 14 15
  24308855.619    15343856.423 6   4529601.350 3
  24023900.520    -5486200.889 5  -4295299.174 3
  21153747.066     8145312.765 9   1708213.632 9
  23562163.294   -12628378.726 6  -2535335.564 2
  22210157.858    -5576645.065 7  -4370154.217 6
  21502239.579     1645895.790 8   1442738.688 7
 94  2  8 17 17  0.0010000  0  6  1 22 25 29 14 15
  24325846.177    15433128.194 6   4599163.692 3
  24009443.328    -5562173.271 5  -4354498.239 3
  21164845.053     8203632.953 9   1753657.930 9
  23553798.874   -12672316.130 6  -2569572.463 2
  22198446.106    -5638191.997 7  -4418112.829 7
  21513648.631     1705848.918 8   1489455.406 7
 94  2  8 17 17 30.0010000  0  6  1 22 25 29 14 15
  24342857.870    15522562.199 6   4668852.447 3
  23995032.784    -5637907.778 5  -4413512.002 3
  21176061.278     8262571.077 9   1799583.731 9
  23545493.994   -12715965.105 6  -2603584.561 2
  22186802.586    -5699369.338 7  -4465783.475 7
  21525198.525     1766531.206 8   1536740.289 7
 94  2  8 17 18  0.0010000  0  6  1 22 25 29 14 15
  24359909.076    15612149.245 6   4738660.451 3
  23980673.625    -5713415.263 5  -4472348.844 3
  21187396.581     8322136.195 9   1845998.098 9
  23537244.515   -12759307.832 6  -2637358.062 2
  22175228.319    -5760183.578 7  -4513171.172 7
  21536880.838     1827937.450 8   1584589.313 7
 94  2  8 17 18 30.0010000  0  6  1 22 25 29 14 15
  24376985.014    15701868.252 6   4808571.285 3
  23966341.477    -5788698.377 5  -4531010.841 3
  21198854.079     8382341.859 9   1892911.583 9
  23529056.913   -12802338.765 6  -2670888.600 2
  22163724.383    -5820642.207 7  -4560281.783 7
  21548701.684     1890068.532 8   1633003.129 7
 94  2  8 17 19  0.0010000  0  6  1 22 25 29 14 15
  24394081.639    15791718.525 6   4878584.390 3
  23952055.587    -5863748.116 5  -4589491.052 3
  21210433.652     8443195.315 9   1940329.852 9
  23520926.811   -12845069.433 6  -2704185.189 2
  22152281.934    -5880760.593 7  -4607127.251 7
  21560666.041     1952914.348 8   1681973.887 7
 94  2  8 17 19 30.0010000  0  6  1 22 25 29 14 15
  24411210.341    15881722.654 6   4948717.370 3
  23937812.147    -5938562.470 5  -4647787.809 3
  21222137.160     8504691.147 9   1988248.674 9
  23512847.464   -12887510.892 6  -2737256.421 2
  22140910.177    -5940538.957 7  -4653707.779 7
  21572755.382     2016471.276 7   1731498.741 7
 94  2  8 17 20  0.0010000  0  6  1 22 25 29 14 15
  24428360.808    15971885.892 6   5018974.350 3
  23923625.519    -6013134.544 5  -4705895.817 3
  21233953.270     8566792.622 9   2036639.413 9
  23504823.639   -12929690.558 6  -2770123.612 2
  22129599.217    -5999975.782 8  -4700022.176 7
  21584982.328     2080723.051 7   1781565.057 7
 94  2  8 17 20 30.0010000  0  6  1 22 25 29 14 15
  24445550.188    16062213.520 5   5089359.398 3
  23909484.398    -6087453.543 5  -4763806.594 3
  21245883.061     8629486.740 9   2085491.960 9
  23496841.605   -12971645.527 6  -2802815.740 3
  22118354.242    -6059066.235 8  -4746066.679 7
  21597341.032     2145661.230 7   1832166.228 6
 94  2  8 17 21  0.0010000  0  6  1 22 25 29 14 15
  24462785.586    16152733.056 6   5159894.029 3
  23895386.178    -6161523.975 5  -4821523.708 2
  21257924.615     8692761.743 9   2134797.135 9
  23488896.535   -13013380.741 6  -2835336.687 3
  22107175.851    -6117809.847 8  -4791840.915 7
  21609829.306     2211281.157 7   1883298.627 6
 94  2  8 17 21 30.0010000  0  6  1 22 25 29 14 15
  24480044.158    16243433.966 6   5230569.950 3
  23881335.505    -6235370.355 6  -4879066.220 2
  21270075.563     8756614.510 9   2184552.518 9
  23480999.972   -13054905.624 6  -2867693.658 3
  22096061.975    -6176213.522 8  -4837350.247 7
  21622445.622     2277575.047 7   1934956.199 6
 94  2  8 17 22  0.0010000  0  6  1 22 25 29 14 15
  24497337.026    16334308.786 5   5301381.421 2
  23867324.225    -6308996.643 6  -4936437.222 2
  21282339.233     8821061.821 9   2234771.196 9
  23473137.315   -13096217.714 6  -2899884.852 3
  22085012.974    -6234271.029 8  -4882589.837 7
  21635190.699     2344547.287 8   1987142.339 6
 94  2  8 17 22 30.0010000  0  6  1 22 25 29 14 15
  24514649.561    16425336.325 5   5372311.889 2
  23853349.100    -6382434.395 6  -4993661.305 2
  21294719.552     8886109.089 9   2285457.351 9
  23465312.762   -13137307.247 6  -2931902.646 3
  22074030.557    -6292005.281 8  -4927577.546 7
  21648060.070     2412187.987 7   2039849.380 6
 94  2  8 17 23  0.0010000  0  6  1 22 25 29 14 15
  24532001.639    16516508.891 5   5443355.361 2
  23839411.929    -6455688.525 6  -5050742.284 2
  21307208.576     8951753.317 9   2336608.694 9
  23457540.163   -13178146.707 6  -2963725.605 3
  22063099.104    -6349426.737 8  -4972321.535 7
  21661062.039     2480499.176 8   2093078.866 6
 94  2  8 17 23 30.0010000  0  6  1 22 25 29 14 15
  24549376.171    16607794.831 5   5514487.167 2
  23825506.205    -6528753.620 6  -5107676.016 2
  21319811.012     9017982.448 9   2388215.797 9
  23449816.850   -13218753.440 6  -2995367.152 3
  22052233.906    -6406534.467 8  -5016821.060 7
  21674187.672     2549470.373 8   2146822.643 6
 94  2  8 17 24  0.0010000  0  6  1 22 25 29 14 15
  24566773.547    16699186.841 5   5585701.635 2
  23811645.181    -6601608.295 5  -5164445.721 2
  21332522.092     9084777.264 9   2440263.702 9
  23442134.458   -13259121.122 6  -3026822.451 3
  22041428.337    -6463322.014 8  -5061071.076 7
  21687432.653     2619099.275 8   2201078.938 6
 94  2  8 17 24 30.0010000  0  6  1 22 25 29 14 15
  24584174.130    16790677.177 5   5656992.713 2
  23797824.809    -6674241.586 6  -5221042.952 2
  21345335.941     9152116.388 9   2492735.717 9
  23434499.763   -13299241.011 6  -3058084.682 3
  22030684.674    -6519781.373 8  -5105065.394 7
  21700806.454     2689379.753 8   2255842.927 6
 94  2  8 17 25  0.0010000  0  6  1 22 25 29 14 15
  24601605.653    16882268.152 5   5728362.208 2
  23784046.557    -6746631.597 6  -5277450.604 3
  21358253.189     9219994.558 9   2545627.789 9
  23426906.560   -13339131.229 6  -3089167.936 3
  22020006.007    -6575891.470 8  -5148787.532 7
  21714307.368     2760306.515 8   2311110.544 6
 94  2  8 17 25 30.0010000  0  6  1 22 25 29 14 15
  24619056.722    16973953.825 5   5799805.505 2
  23770317.711    -6818769.724 6  -5333661.978 2
  21371272.216     9288412.091 9   2598940.140 9
  23419361.114   -13378799.251 6  -3120078.052 3
  22009400.669    -6631633.912 8  -5192223.184 7
  21727925.680     2831876.904 8   2366879.675 6
 94  2  8 17 26  0.0010000  0  6  1 22 25 29 14 15
  24636520.502    17065724.970 5   5871315.423 2
  23756629.188    -6890675.464 5  -5389692.345 2
  21384390.115     9357349.857 9   2652657.859 9
  23411854.131   -13418240.612 6  -3150811.539 3
  21998858.257    -6687026.262 8  -5235386.046 7
  21741664.719     2904076.740 8   2423139.306 6
 94  2  8 17 26 30.0010000  0  6  1 22 25 29 14 15
  24653994.625    17157588.418 5   5942897.276 2
  23742992.019    -6962358.630 6  -5445549.204 3
  21397608.834     9426817.345 9   2706788.339 9
  23404390.857   -13457469.481 6  -3181379.439 3
  21988383.119    -6742073.566 8  -5278280.048 7
  21755523.015     2976900.292 8   2479884.910 6
 94  2  8 17 27  0.0010000  0  6  1 22 25 29 14 15
  24671500.226    17249547.836 5   6014553.892 2
  23729389.955    -7033814.954 5  -5501229.287 3
  21410934.279     9496830.576 9   2761344.110 9
  23396966.647   -13496490.181 6  -3211785.134 3
  21977969.648    -6796790.334 8  -5320916.454 7
  21769499.189     3050349.422 8   2537118.038 6
 94  2  8 17 27 30.0010000  0  6  1 22 25 29 14 15
  24689016.290    17341590.446 5   6086275.329 2
  23715836.698    -7105059.407 6  -5556744.355 3
  21424355.567     9567362.536 9   2816304.053 9
  23389583.628   -13535292.667 6  -3242020.800 4
  21967616.945    -6851199.918 8  -5363313.533 7
  21783595.221     3124417.516 7   2594833.428 6
 94  2  8 17 28  0.0010000  0  6  1 22 25 29 14 15
  24706540.658    17433726.508 5   6158069.614 2
  23702321.274    -7176093.543 6  -5612095.460 3
  21437874.288     9638398.023 9   2871656.360 9
  23382240.931   -13573881.080 6  -3272089.642 4
  21957319.674    -6905311.234 8  -5405478.190 7
  21797807.332     3199097.318 7   2653025.483 6
 94  2  8 17 28 30.0010000  0  6  1 22 25 29 14 15
  24724094.885    17525940.794 5   6229924.818 2
  23688844.494    -7246913.734 6  -5667279.863 3
  21451485.915     9709936.069 9   2927400.292 9
  23374929.803   -13612276.720 6  -3302008.284 4
  21947078.853    -6959116.637 8  -5447404.449 7
  21812131.416     3274378.414 7   2711686.081 6
 94  2  8 17 29  0.0010000  0  6  1 22 25 29 14 15
  24741650.402    17618222.843 5   6301832.815 2
  23675409.895    -7317526.734 6  -5722302.876 3
  21465189.099     9781952.242 9   2983516.757 9
  23367664.213   -13650475.731 6  -3331773.688 4
  21936902.818    -7012608.771 8  -5489086.630 7
  21826572.838     3350253.146 8   2770809.253 6
 94  2  8 17 29 30.0010000  0  6  1 22 25 29 14 15
  24759227.773    17710576.738 5   6373796.788 2
  23662006.444    -7387951.602 6  -5777179.265 3
  21478982.370     9854425.446 9   3039989.346 9
  23360429.022   -13688487.861 6  -3361393.501 4
  21926786.921    -7065766.594 8  -5530508.312 8
  21841115.440     3426710.340 7   2830386.279 6
 94  2  8 17 30  0.0010000  0  6  1 22 25 29 14 15
  24776820.434    17803011.872 5   6445824.160 2
  23648641.126    -7458185.186 6  -5831906.609 3
  21492866.808     9927387.139 9   3096842.607 9
  23353226.688   -13726338.716 6  -3390887.635 4
  21916737.069    -7118570.986 8  -5571654.594 8
  21855779.519     3503745.850 7   2890413.953 6
 94  2  8 17 30 30.0010000  0  6  1 22 25 29 14 15
  24794423.318    17895527.911 5   6517914.513 2
  23635307.587    -7528235.023 6  -5886490.770 3
  21506844.721    10000839.397 9   3154078.096 9
  23346050.765   -13764038.466 6  -3420264.027 4
  21906756.018    -7171023.789 8  -5612526.889 8
  21870547.835     3581353.964 7   2950887.795 6
 94  2  8 17 31  0.0010000  0  6  1 22 25 29 14 15
  24812045.778    17988125.194 5   6590068.172 2
  23622010.412    -7598118.916 6  -5940945.623 3
  21520911.853    10074762.670 9   3211680.623 9
  23338908.120   -13801590.396 6  -3449525.220 4
  21896834.807    -7223152.679 8  -5653146.770 8
  21885419.909     3659518.129 7   3011794.943 6
 94  2  8 17 31 30.0010000  0  6  1 22 25 29 14 15
  24829686.166    18080810.653 5   6662290.526 2
  23608748.104    -7667818.916 6  -5995257.187 3
  21535072.789    10149174.456 9   3269663.811 9
  23331787.300   -13838999.006 6  -3478674.754 4
  21886975.562    -7274970.296 8  -5693524.144 8
  21900399.339     3738234.963 7   3073132.730 6
 94  2  8 17 32  0.0010000  0  6  1 22 25 29 14 15
  24847332.789    18173571.738 6   6734571.814 2
  23595516.254    -7737313.921 6  -6049408.997 3
  21549325.612    10224079.209 9   3328031.109 9
  23324699.906   -13876252.920 6  -3507703.766 4
  21877169.201    -7326500.980 8  -5733677.921 8
  21915486.245     3817503.166 7   3134900.117 6
 94  2  8 17 32 30.0010000  0  6  1 22 25 29 14 15
  24865004.056    18266412.795 6   6806915.419 2
  23582335.579    -7806586.641 6  -6103387.645 3
  21563668.883    10299457.988 9   3386767.777 9
  23317642.852   -13913324.143 6  -3536590.401 4
  21867416.413    -7377754.770 8  -5773615.938 8
  21930675.349     3897326.101 7   3197099.805 6
 94  2  8 17 33  0.0010000  0  6  1 22 25 29 14 15
  24882684.646    18359313.505 6   6879305.507 2
  23569200.712    -7875630.922 6  -6157188.273 3
  21578099.423    10375299.545 8   3445865.070 9
  23310624.830   -13950213.825 6  -3565335.588 4
  21857715.758    -7428739.079 8  -5813343.953 8
  21945968.572     3977692.973 7   3259723.355 6
 94  2  8 17 33 30.0010000  0  6  1 22 25 29 14 15
  24900369.583    18452262.595 5   6951733.306 2
  23556107.246    -7944445.595 6  -6210809.950 3
  21592618.941    10451596.918 9   3505317.537 9
  23303635.589   -13986936.973 7  -3593951.008 4
  21848062.741    -7479454.076 8  -5852862.126 8
  21961364.384     4058597.817 7   3322766.084 6
 94  2  8 17 34  0.0010000  0  6  1 22 25 29 14 15
  24918063.034    18545247.573 5   7024189.032 2
  23543057.970    -8013034.961 6  -6264256.107 3
  21607220.932    10528323.554 8   3565104.484 9
  23296679.864   -14023500.254 7  -3622441.829 4
  21838465.965    -7529891.047 8  -5892163.666 8
  21976860.206     4140036.442 7   3386224.736 6
 94  2  8 17 34 30.0010000  0  6  1 22 25 29 14 15
  24935765.928    18638272.478 5   7096675.874 2
  23530045.478    -8081398.758 6  -6317526.529 3
  21621903.148    10605480.471 9   3625226.731 9
  23289749.352   -14059912.987 7  -3650815.380 4
  21828924.470    -7580033.245 8  -5931235.508 8
  21992460.357     4222003.997 7   3450095.552 6
 94  2  8 17 35  0.0010000  0  6  1 22 25 29 14 15
  24953461.808    18731327.784 5   7169186.439 2
  23517072.559    -8149545.771 6  -6370627.960 3
  21636667.147    10683061.606 9   3685679.524 9
  23282847.950   -14096190.646 7  -3679083.652 4
  21819441.015    -7629864.542 8  -5970065.097 8
  22008154.252     4304493.235 7   3514372.862 6
 94  2  8 17 35 30.0010000  0  6  1 22 25 29 14 15
  24971184.579    18824418.358 5   7241724.418 2
  23504156.541    -8217473.551 6  -6423558.615 3
  21651511.850    10761073.711 9   3746468.147 9
  23275969.062   -14132328.883 7  -3707243.285 4
  21810019.708    -7679371.465 8  -6008641.904 8
  22023952.835     4387503.494 7   3579056.184 6
 94  2  8 17 36  0.0010000  0  6  1 22 25 29 14 15
  24988904.951    18917536.218 5   7314283.674 2
  23491263.607    -8285176.203 6  -6476313.867 4
  21666438.277    10839516.230 9   3807592.145 9
  23269120.423   -14168318.057 6  -3735286.771 4
  21800662.435    -7728548.349 8  -6046961.565 8
  22039845.462     4471026.759 7   3644139.208 6
 94  2  8 17 36 30.0010000  0  6  1 22 25 29 14 15
  25006633.118    19010678.718 4   7386862.140 2
  23478427.663    -8352662.873 6  -6528900.805 4
  21681451.194    10918403.329 9   3869062.581 9
  23262303.532   -14204148.535 6  -3763206.596 5
  21791365.542    -7777397.935 8  -6085026.180 8
  22055835.433     4555060.210 7   3709619.816 6
 94  2  8 17 37  0.0010000  0  6  1 22 25 29 14 15
  25024349.593    19103838.078 5   7459453.768 2
  23465622.807    -8419942.835 6  -6581326.632 4
  21696545.414    10997722.224 9   3930869.496 9
  23255511.404   -14239828.014 6  -3791008.755 5
  21782133.553    -7825918.186 8  -6122834.155 8
  22071923.495     4639596.524 7   3775492.240 6
 94  2  8 17 37 30.0010000  0  6  1 22 25 29 14 15
  25042085.375    19197018.560 5   7532061.797 2
  23452862.831    -8487018.785 6  -6633593.539 4
  21711720.519    11077467.907 9   3993008.960 9
  23248748.416   -14275360.523 6  -3818696.400 5
  21772961.133    -7874126.548 8  -6160399.098 8
  22088107.551     4724629.786 7   3841751.917 6
 94  2  8 17 38  0.0010000  0  6  1 22 25 29 14 15
  25059824.634    19290223.183 4   7604688.666 2
  23440135.982    -8553899.484 6  -6685708.259 4
  21726970.991    11157614.513 9   4055460.834 9
  23242013.069   -14310762.966 6  -3846282.727 5
  21763845.523    -7922030.264 8  -6197726.679 8
  22104376.808     4810152.476 7   3908392.919 6
 94  2  8 17 38 30.0010000  0  6  1 22 25 29 14 15
  25077565.393    19383461.898 4   7677342.124 2
  23427438.212    -8620595.837 6  -6737679.309 4
  21742294.133    11238140.598 9   4118208.398 9
  23235294.091   -14346059.578 6  -3873786.535 5
  21754784.596    -7969636.827 8  -6234822.698 8
  22120746.916     4896154.173 7   3975407.214 6
 94  2  8 17 39  0.0010000  0  6  1 22 25 29 14 15
  25095323.959    19476746.370 5   7750031.225 2
  23414784.662    -8687100.492 6  -6789500.998 4
  21757687.127    11319037.820 9   4181245.166 9
  23228593.220   -14381265.586 6  -3901219.785 5
  21745783.028    -8016938.828 8  -6271681.383 8
  22137199.556     4982625.414 7   4042787.410 6
 94  2  8 17 39 30.0010000  0  6  1 22 25 29 14 15
  25113076.259    19570091.810 4   7822767.775 2
  23402168.136    -8753399.505 6  -6841162.458 4
  21773156.687    11400308.887 9   4244573.232 9
  23221912.824   -14416371.853 6  -3928575.314 4
  21736839.229    -8063936.550 8  -6308302.985 8
  22153742.943     5069567.247 7   4110534.252 6
 94  2  8 17 40  0.0010000  0  6  1 22 25 29 14 15
  25130858.689    19663494.248 4   7895548.843 2
  23389597.179    -8819479.879 6  -6892653.532 4
  21788693.641    11481959.701 9   4308197.218 9
  23215257.072   -14451370.206 6  -3955846.713 4
  21727957.368    -8110620.233 8  -6344679.869 8
  22170381.934     5156978.451 7   4178646.859 6
 94  2  8 17 40 30.0010000  0  6  1 22 25 29 14 15
  25148642.437    19756952.435 5   7968373.301 2
  23377064.475    -8885325.789 6  -6943961.929 4
  21804306.233    11564013.947 9   4372135.561 9
  23208617.329   -14486253.292 7  -3983028.311 4
  21719132.348    -8156984.848 8  -6380808.129 8
  22187103.218     5244859.951 7   4247125.911 6
 94  2  8 17 41  0.0010000  0  6  1 22 25 29 14 15
  25166432.421    19850458.239 5   8041234.825 2
  23364582.646    -8950921.775 6  -6995075.560 4
  21819999.978    11646479.117 8   4436394.100 9
  23202006.665   -14521005.206 7  -4010107.727 4
  21710372.472    -8203030.843 8  -6416688.129 8
  22203913.061     5333215.719 7   4315974.521 6
 94  2  8 17 41 30.0010000  0  6  1 22 25 29 14 15
  25184234.457    19943991.986 4   8114118.175 2
  23352149.593    -9016257.230 6  -7045986.201 4
  21835766.453    11729343.309 8   4500963.586 9
  23195421.964   -14555621.139 7  -4037081.152 4
  21701667.788    -8248771.435 8  -6452330.130 8
  22220816.589     5422045.685 7   4385192.642 6
 94  2  8 17 42  0.0010000  0  6  1 22 25 29 14 15
  25202027.649    20037520.854 5   8186997.654 2
  23339763.218    -9081339.221 6  -7096699.345 4
  21851609.436    11812587.657 8   4565829.253 9
  23188852.731   -14590119.605 7  -4063963.072 4
  21693019.885    -8294219.189 8  -6487744.002 9
  22237811.733     5511332.077 7   4454766.413 6
 94  2  8 17 42 30.0010000  0  6  1 22 25 29 14 15
  25219827.257    20131038.862 5   8259868.787 2
  23327422.951    -9146177.657 6  -7147222.657 4
  21867522.809    11896201.589 8   4630982.954 9
  23182309.041   -14624508.710 7  -4090759.719 4
  21684423.456    -8339370.191 8  -6522926.576 9
  22254889.351     5601070.646 7   4524692.542 6
 94  2  8 17 43  0.0010000  0  6  1 22 25 29 14 15
  25237622.128    20224540.014 5   8332726.665 2
  23315127.653    -9210784.057 6  -7197565.226 4
  21883499.019    11980173.056 8   4696415.222 9
  23175786.277   -14658783.881 7  -4117467.615 4
  21675893.581    -8384222.241 8  -6557876.202 9
  22272046.263     5691256.401 7   4594967.117 6
 94  2  8 17 43 30.0010000  0  6  1 22 25 29 14 15
  25255419.457    20318040.926 5   8405584.475 2
  23302882.060    -9275160.145 6  -7247728.327 4
  21899549.427    12064516.076 8   4762136.990 9
  23169289.565   -14692937.525 6  -4144080.846 4
  21667417.489    -8428759.326 8  -6592580.428 9
  22289294.223     5781893.474 7   4665593.385 5
 94  2  8 17 44  0.0010000  0  6  1 22 25 29 14 15
  25273203.625    20411544.049 5   8478443.929 2
  23290664.948    -9339327.538 6  -7297728.783 4
  21915669.178    12149228.042 8   4828146.268 9
  23162812.309   -14726977.935 6  -4170605.810 3
  21659001.505    -8472978.544 8  -6627036.963 9
  22306627.803     5872969.294 7   4736561.510 5
 94  2  8 17 44 30.0010000  0  6  1 22 25 29 14 15
  25291004.552    20505075.918 5   8551325.807 2
  23278500.689    -9403281.803 6  -7347563.169 4
  21931860.759    12234321.645 8   4894452.933 9
  23156353.010   -14760889.531 6  -4197030.444 4
  21650647.339    -8516877.094 8  -6661243.616 9
  22324044.845     5964489.384 7   4807875.844 6
 94  2  8 17 45  0.0010000  0  6  1 22 25 29 14 15
  25308812.344    20598643.830 5   8624235.799 1
  23266370.217    -9467006.542 6  -7397218.749 4
  21948122.431    12319791.336 8   4961052.641 9
  23149928.458   -14794669.898 6  -4223352.802 4
  21642357.118    -8560457.727 8  -6695202.551 9
  22341543.851     6056446.039 7   4879530.329 6
 94  2  8 17 45 30.0010000  0  5 22 25 29 14 15
  23254288.431    -9530492.110 6  -7446687.906 4
  21964462.409    12405626.420 8   5027937.073 9
  23143521.683   -14828334.602 6  -4249585.066 4
  21634122.119    -8603729.897 8  -6728921.121 9
  22359123.411     6148828.367 7   4951516.531 6
 94  2  8 17 46  0.0010000  0  5 22 25 29 14 15
  23242256.471    -9593718.031 6  -7495954.789 4
  21980862.166    12491823.384 8   5095103.484 8
  23137138.292   -14861882.112 6  -4275725.970 4
  21625947.018    -8646678.207 8  -6762387.332 9
  22376778.069     6241639.204 7   5023836.623 6
 94  2  8 17 46 30.0010000  0  5 22 25 29 14 15
  23230281.381    -9656673.519 6  -7545010.917 4
  21997331.744    12578377.136 8   5162547.915 8
  23130768.632   -14895317.656 6  -4301779.678 5
  21617837.602    -8689286.471 8  -6795588.581 9
  22394521.315     6334876.313 7   5096488.868 6
 94  2  8 17 47  0.0010000  0  5 22 25 29 14 15
  23218347.962    -9719357.615 6  -7593855.582 4
  22013869.975    12665277.037 8   5230262.093 8
  23124431.289   -14928653.780 6  -4327755.883 5
  21609801.276    -8731537.706 8  -6828511.611 9
  22412347.665     6428534.201 7   5169469.020 6
 94  2  8 17 47 30.0010000  0  5 22 25 29 14 15
  23206473.333    -9781765.989 6  -7642485.394 4
  22030474.520    12752537.696 8   5298257.343 8
  23118114.932   -14961867.535 7  -4353636.762 5
  21601833.302    -8773404.927 8  -6861135.427 9
  22430251.090     6522625.302 7   5242786.702 6
 94  2  8 17 48  0.0010000  0  5 22 25 29 14 15
  23194650.118    -9843900.115 6  -7690901.508 4
  22047148.916    12840160.346 8   5366534.685 8
  23111814.794   -14994943.571 7  -4379410.311 5
  21593939.197    -8814877.237 8  -6893451.521 9
  22448240.766     6617154.350 7   5316445.675 6
 94  2  8 17 48 30.0010000  0  5 22 25 29 14 15
  23182877.838    -9905757.447 6  -7739101.934 4
  22063893.285    12928147.876 8   5435096.357 8
  23105550.570   -15027872.289 7  -4405069.073 5
  21586122.079    -8855959.982 8  -6925464.054 9
  22466311.056     6712123.754 7   5390447.762 6
 94  2  8 17 49  0.0010000  0  5 22 25 29 14 15
  23171166.415    -9967328.623 6  -7787079.385 4
  22080706.035    13016500.971 8   5503942.889 8
  23099314.767   -15060637.547 7  -4430600.436 5
  21578376.461    -8896673.851 9  -6957189.146 9
  22484468.766     6807534.770 7   5464793.973 6
 94  2  8 17 49 30.0010000  0  5 22 25 29 14 15
  23159500.591   -10028610.189 6  -7834831.166 4
  22097586.749    13105217.774 8   5573072.827 8
  23093114.160   -15093233.798 7  -4456000.113 5
  21570694.849    -8937026.937 8  -6988633.120 9
  22502708.259     6903385.604 7   5539482.881 6
 94  2  8 17 50  0.0010000  0  5 22 25 29 14 15
  23147898.743   -10089578.167 6  -7882338.586 4
  22114543.130    13194307.209 8   5642493.142 8
  23086940.564   -15125674.489 7  -4481278.576 5
  21563083.898    -8977026.706 9  -7019801.768 9
  22521034.212     6999682.752 7   5614519.585 6
 94  2  8 17 50 30.0010000  0  5 22 25 29 14 15
  23136354.815   -10150215.726 6  -7929588.548 4
  22131566.935    13283771.184 8   5712205.289 8
  23080795.838   -15157965.037 7  -4506440.046 5
  21555542.109    -9016672.917 8  -7050694.924 9
  22539443.058     7096421.794 7   5689900.614 6
 94  2  8 17 51  0.0010000  0  5 22 25 29 14 15
  23124880.049   -10210514.514 6  -7976574.537 4
  22148661.431    13373605.030 8   5782205.659 8
  23074681.750   -15190113.577 7  -4531490.853 6
  21548065.735    -9055957.484 8  -7081306.277 9
  22557933.657     7193597.860 7   5765622.188 6
 94  2  8 17 51 30.0010000  0  5 22 25 29 14 15
  23113476.243   -10270465.535 6  -8023289.548 4
  22165823.889    13463809.125 8   5852494.534 8
  23068582.802   -15222133.057 7  -4556441.090 6
  21540660.651    -9094862.741 8  -7111622.075 9
  22576510.237     7291209.461 7   5841683.132 6
 94  2  8 17 52  0.0010000  0  5 22 25 29 14 15
  23102139.052   -10330052.470 6  -8069720.838 4
  22183063.485    13554394.327 8   5923080.361 8
  23062515.003   -15254023.432 7  -4581290.727 6
  21533332.194    -9133376.519 8  -7141632.828 9
  22595167.521     7389259.290 7   5918085.531 6
 94  2  8 17 52 30.0010000  0  5 22 25 29 14 15
  23090868.624   -10389273.479 6  -8115866.983 4
  22200376.139    13645364.274 8   5993966.002 8
  23056477.483   -15285759.808 7  -4606020.345 6
  21526082.193    -9171474.160 8  -7171319.300 9
  22613911.715     7487752.726 7   5994833.641 6
 94  2  8 17 53  0.0010000  0  5 22 25 29 14 15
  23079664.960   -10448145.003 6  -8161740.818 4
  22217755.798    13736708.254 8   6065143.105 8
  23050466.674   -15317349.037 7  -4630635.304 6
  21518913.466    -9209150.090 8  -7200677.169 9
  22632736.223     7586685.927 6   6071924.399 6
 94  2  8 17 53 30.0020000  0  5 22 25 29 14 15
  23068527.011   -10506680.066 6  -8207352.485 4
  22235209.715    13828427.626 8   6136612.712 8
  23044481.617   -15348799.543 7  -4655142.177 6
  21511822.745    -9246401.341 8  -7229704.118 9
  22651650.099     7686051.113 7   6149351.750 6
 94  2  8 17 54  0.0020000  0  5 22 25 29 14 15
  23057448.720   -10564886.326 6  -8252707.929 5
  22252736.901    13920523.459 8   6208375.666 8
  23038527.319   -15380098.189 7  -4679530.706 6
  21504817.225    -9283217.273 8  -7258391.852 9
  22670634.636     7785844.474 7   6227112.780 6
 94  2  8 17 54 30.0020000  0  5 22 25 29 14 15
  23046437.733   -10622774.382 6  -8297815.459 5
  22270332.200    14012984.144 8   6280422.901 8
  23032600.243   -15411236.413 7  -4703794.222 6
  21497897.355    -9319596.499 8  -7286739.302 9
  22689708.122     7886069.743 7   6305210.344 6
 94  2  8 17 55  0.0020000  0  5 22 25 29 14 15
  23035485.086   -10680325.144 6  -8342660.155 5
  22287994.323    14105812.193 8   6352756.418 8
  23026705.993   -15442209.996 7  -4727929.452 6
  21491056.811    -9355538.971 8  -7314746.407 9
  22708863.421     7986728.317 7   6383645.550 6
 94  2  8 17 55 30.0020000  0  5 22 25 29 14 15
  23024601.480   -10737518.997 6  -8387226.753 5
  22305731.304    14199014.332 8   6425381.420 8
  23020846.490   -15473009.334 7  -4751928.935 6
  21484296.071    -9391049.367 8  -7342416.839 9
  22728099.994     8087816.061 6   6462415.176 6
 94  2  8 17 56  0.0020000  0  5 22 25 29 14 15
  23013782.030   -10794345.456 6  -8431507.080 5
  22323533.879    14292573.213 8   6498284.391 8
  23015020.023   -15503627.625 7  -4775787.314 6
  21477617.535    -9426146.148 8  -7369764.971 9
  22747415.592     8189326.179 6   6541513.916 6
 94  2  8 17 56 30.0020000  0  5 22 25 29 14 15
  23003046.852   -10850763.723 6  -8475469.332 5
  22341408.045    14386500.378 8   6571474.347 8
  23009227.943   -15534047.609 7  -4799491.173 6
  21471022.011    -9460815.544 8  -7396780.097 9
  22766816.211     8291269.802 6   6620950.475 5
 94  2  8 17 57  0.0020000  0  5 22 25 29 14 15
  22992395.106   -10906743.861 7  -8519090.138 5
  22359358.238    14480824.018 8   6644973.246 8
  23003476.694   -15564262.491 7  -4823035.212 6
  21464511.148    -9495035.776 8  -7423445.184 9
  22786298.074     8393658.102 7   6700733.507 5
 94  2  8 17 57 30.0020000  0  5 22 25 29 14 15
  22981827.932   -10962280.588 6  -8562365.464 5
  22377383.500    14575554.072 8   6718788.834 8
  22997768.376   -15594272.081 7  -4846419.302 6
  21458085.157    -9528792.535 8  -7449749.158 9
  22805866.877     8496503.066 6   6780872.401 5
 94  2  8 17 58  0.0020000  0  5 22 25 29 14 15
  22971347.817   -11017382.306 7  -8605301.827 5
  22395487.517    14670682.887 8   6792915.137 8
  22992099.481   -15624074.914 7  -4869642.275 6
  21451750.512    -9562081.178 8  -7475688.354 9
  22825525.438     8599804.104 6   6861366.669 5
 94  2  8 17 58 30.0020000  0  5 22 25 29 14 15
  22960941.901   -11072062.872 7  -8647910.015 5
  22413666.751    14766211.534 8   6867353.001 8
  22986463.502   -15653687.311 7  -4892716.854 6
  21445509.223    -9594891.684 8  -7501254.978 9
  22845269.169     8703554.633 6   6942211.187 5
 94  2  8 17 59  0.0020000  0  5 22 25 29 14 15
  22950613.601   -11126326.083 7  -8690192.979 5
  22431918.896    14862131.550 8   6942095.821 8
  22980863.679   -15683117.432 7  -4915649.421 6
  21439353.974    -9627231.812 8  -7526455.079 9
  22865097.083     8807743.597 6   7023397.342 5
 94  2  8 17 59 30.0020000  0  5 22 25 29 14 15
  22940361.118   -11180180.505 7  -8732157.414 5
  22450243.080    14958431.282 8   7017134.523 8
  22975294.674   -15712365.852 7  -4938440.367 6
  21433287.854    -9659113.333 8  -7551297.819 9
  22885001.083     8912357.973 6   7104914.997 5
 94  2  8 18  0  0.0020000  0  5 22 25 29 14 15
  22930199.263   -11233597.969 7  -8773781.361 5
  22468641.223    15055122.248 8   7092478.092 8
  22969769.679   -15741406.444 7  -4961069.420 6
  21427315.628    -9690498.643 8  -7575753.909 9
  22904994.872     9017406.702 6   7186771.116 5
 94  2  8 18  0 30.0020000  0  5 22 25 29 14 15
  22920123.029   -11286568.056 7  -8815056.705 5
  22487113.865    15152196.819 8   7168120.571 8
  22964279.730   -15770246.204 7  -4983541.961 6
  21421442.964    -9721371.924 9  -7599811.020 9
  22925069.605     9122886.520 6   7268963.126 5
 94  2  8 18  1  0.0020000  0  5 22 25 29 14 15
  22910127.409   -11339080.110 7  -8855975.133 5
  22505660.645    15249646.648 8   7244055.447 7
  22958835.349   -15798879.895 7  -5005853.918 6
  21415663.205    -9751730.727 9  -7623467.224 9
  22945224.981     9228796.468 6   7351490.323 5
 94  2  8 18  1 30.0020000  0  5 22 25 29 14 15
  22900211.533   -11391167.212 7  -8896562.449 5
  22524270.742    15347439.822 8   7320257.863 7
  22953418.819   -15827323.268 7  -5028017.602 6
  21409985.406    -9781575.194 9  -7646722.664 9
  22965452.488     9335116.308 6   7434336.914 5
 94  2  8 18  2  0.0020000  0  5 22 25 29 14 15
  22890378.071   -11442838.540 7  -8936825.782 5
  22542942.985    15445567.479 8   7396720.912 7
  22948045.699   -15855572.305 7  -5050029.851 6
  21404403.780    -9810908.909 9  -7669580.115 9
  22985762.108     9441845.199 6   7517502.217 5
 94  2  8 18  2 30.0020000  0  5 22 25 29 14 15
  22880627.022   -11494106.401 7  -8976774.739 5
  22561681.243    15544035.674 8   7473449.323 7
  22942704.836   -15883629.561 7  -5071892.668 6
  21398909.933    -9839760.406 9  -7692061.800 9
  23006147.426     9548978.214 6   7600982.462 5
 94  2  8 18  3  0.0020000  0  5 22 25 29 14 15
  22870944.954   -11544974.046 7  -9016411.819 5
  22580485.695    15642859.655 8   7550454.979 7
  22937408.283   -15911476.277 7  -5093591.423 6
  21393512.110    -9868145.298 9  -7714179.907 9
  23026612.698     9656514.254 6   7684776.724 5
 94  2  8 18  3 30.0020000  0  5 22 25 29 14 15
  22861336.126   -11595463.643 7  -9055754.332 5
  22599358.350    15742026.809 8   7627728.032 7
  22932144.886   -15939120.866 7  -5115132.663 6
  21388192.592    -9896089.613 9  -7735954.704 9
  23047147.852     9764430.561 6   7768867.296 5
 94  2  8 18  4  0.0020000  0  5 22 25 29 14 15
  22851808.212   -11645558.387 7  -9094789.145 5
  22618295.400    15841547.049 8   7705276.220 7
  22926918.485   -15966583.989 7  -5136532.485 6
  21382955.578    -9923612.251 9  -7757400.934 9
  23067757.024     9872717.560 6   7853246.750 5
 94  2  8 18  4 30.0020000  0  5 22 25 29 14 15
  22842350.090   -11695241.441 7  -9133503.191 5
  22637297.835    15941409.245 8   7783090.874 7
  22921725.240   -15993891.263 7  -5157810.917 6
  21377799.178    -9950713.845 9  -7778519.064 9
  23088429.663     9981361.454 6   7937904.257 5
 94  2  8 18  5  0.0020000  0  5 22 25 29 14 15
  22832973.901   -11744501.071 7  -9171887.284 5
  22656362.327    16041589.451 8   7861153.334 7
  22916554.240   -16021059.279 7  -5178980.783 6
  21372725.940    -9977374.411 9  -7799293.538 9
  23109165.707    10090354.321 6   8022833.725 5
 94  2  8 18  5 30.0020000  0  5 22 25 29 14 15
  22823684.742   -11793331.384 7  -9209936.844 5
  22675482.160    16142060.262 8   7939442.235 7
  22911404.165   -16048118.459 7  -5200065.855 6
  21367734.425   -10003595.338 9  -7819725.437 9
  23129972.503    10199680.042 6   8108022.538 4
 94  2  8 18  6  0.0020000  0  5 22 25 29 14 15
  22814470.381   -11841741.534 7  -9247659.042 5
  22694650.560    16242787.094 8   8017930.632 7
  22906264.823   -16075104.317 7  -5221093.804 6
  21362826.523   -10029393.114 9  -7839827.606 9
  23150835.900    10309308.953 6   8193447.601 4
 94  2  8 18  6 30.0020000  0  5 22 25 29 14 15
  22805332.647   -11889759.222 7  -9285075.395 5
  22713860.392    16343740.039 8   8096595.239 7
  22901147.396   -16102007.802 7  -5242057.554 6
  21357997.496   -10054775.193 9  -7859605.861 9
  23171753.349    10419222.605 6   8279094.562 4
 94  2  8 18  7  0.0020000  0  5 22 25 29 14 15
  22796269.261   -11937416.067 7  -9322210.578 5
  22733111.594    16444911.618 8   8175430.190 7
  22896046.907   -16128823.879 7  -5262953.204 6
  21353243.177   -10079760.195 9  -7879074.696 9
  23192720.564    10529401.865 6   8364948.464 4
 94  2  8 18  7 30.0020000  0  5 22 25 29 14 15
  22787267.873   -11984708.127 7  -9359061.504 5
  22752410.974    16546322.199 8   8254451.380 7
  22890967.013   -16155533.152 7  -5283765.607 6
  21348562.008   -10104348.522 9  -7898234.433 9
  23213739.133    10639849.259 6   8451011.322 4
 94  2  8 18  8  0.0020000  0  5 22 25 29 14 15
  22778333.188   -12031653.575 7  -9395642.352 5
  22771755.382    16647977.955 8   8333663.605 7
  22885905.018   -16182140.111 7  -5304498.283 6
  21343963.522   -10128530.239 8  -7917077.339 9
  23234806.538    10750558.045 6   8537277.834 4
 94  2  8 18  8 30.0020000  0  5 22 25 29 14 15
  22769464.218   -12078261.739 7  -9431960.410 5
  22791147.667    16749882.722 8   8413069.863 7
  22880858.191   -16208645.156 7  -5325151.575 6
  21339440.942   -10152291.886 8  -7935592.907 9
  23255915.765    10861525.754 6   8623746.102 4
 94  2  8 18  9  0.0020000  0  5 22 25 29 14 15
  22760659.553   -12124522.919 7  -9468008.057 5
  22810581.113    16852024.223 7   8492660.608 7
  22875824.916   -16235083.468 7  -5345752.844 6
  21334999.427   -10175632.464 8  -7953780.373 9
  23277081.262    10972742.405 6   8710408.384 4
 94  2  8 18  9 30.0020000  0  5 22 25 29 14 15
  22751924.351   -12170428.595 7  -9503778.681 5
  22830061.327    16954381.595 7   8572419.558 7
  22870805.281   -16261472.711 7  -5366315.884 6
  21330636.338   -10198549.356 8  -7971637.682 9
  23298287.861    11084197.520 6   8797256.443 4
 94  2  8 18 10  0.0020000  0  5 22 25 29 14 15
  22743255.882   -12215988.704 7  -9539280.053 6
  22849578.626    17056938.328 8   8652333.867 7
  22865790.383   -16287830.118 7  -5386854.121 6
  21326353.353   -10221061.644 8  -7989179.727 9
  23319538.409    11195877.427 6   8884279.679 4
 94  2  8 18 10 30.0020000  0  5 22 25 29 14 15
  22734648.690   -12261210.357 7  -9574517.665 6
  22869125.214    17159664.367 7   8732380.073 7
  22860780.971   -16314162.770 7  -5407373.043 6
  21322137.521   -10243206.219 8  -8006435.245 9
  23340836.325    11307766.621 6   8971466.016 4
 94  2  8 18 11  0.0020000  0  5 22 25 29 14 15
  22726115.038   -12306063.605 7  -9609468.207 6
  22888711.645    17262573.681 7   8812569.099 7
  22855776.475   -16340445.268 7  -5427852.895 6
  21317996.818   -10264977.724 8  -8023400.043 9
  23362170.306    11419882.412 6   9058828.922 4
 94  2  8 18 11 30.0020000  0  5 22 25 29 14 15
  22717647.760   -12350559.627 7  -9644140.398 6
  22908326.196    17365671.446 7   8892904.965 7
  22850789.817   -16366660.597 7  -5448280.421 6
  21313924.587   -10286372.293 8  -8040071.135 9
  23383546.198    11532224.348 6   9146368.019 4
 94  2  8 18 12  0.0020000  0  5 22 25 29 14 15
  22709248.384   -12394704.509 7  -9678538.969 6
  22927983.917    17468951.435 7   8973382.829 7
  22845812.723   -16392815.090 7  -5468660.520 6
  21309927.304   -10307380.246 8  -8056440.972 9
  23404972.095    11644790.117 6   9234081.521 4
 94  2  8 18 12 30.0020000  0  6 22 25 29 18 14 15
  22700913.615   -12438481.573 7  -9712650.900 6
  22947668.020    17572404.888 7   9053995.855 7
  22840847.470   -16418900.713 7  -5488986.970 6
  25355554.065    -2299989.59314  -1371075.935 1
  21306008.297   -10327975.474 8  -8072489.192 9
  23426433.278    11757580.488 6   9321970.070 4
 94  2  8 18 13  0.0020000  0  6 22 25 29 18 14 15
  22692665.485   -12481846.689 7  -9746441.870 6
  22967392.295    17676069.070 7   9134773.095 7
  22835900.085   -16444892.677 7  -5509240.429 6
  25345259.072    -2354074.058 4  -1413219.698 1
  21302178.539   -10348112.222 9  -8088180.164 9
  23447941.948    11870617.511 6   9410050.783 4
 94  2  8 18 13 30.0020000  0  6 22 25 29 18 14 15
  22684489.934   -12524799.139 7  -9779911.260 6
  22987163.548    17779950.317 7   9215719.480 7
  22830972.247   -16470785.975 7  -5529417.009 7
  25334970.045    -2408160.496 4  -1455364.944 1
  21298436.020   -10367776.977 9  -8103503.355 9
  23469499.813    11983898.534 6   9498321.635 4
 94  2  8 18 14  0.0020000  0  6 22 25 29 18 14 15
  22676397.187   -12567330.872 7  -9813052.821 6
  23006972.574    17884050.387 7   9296836.373 7
  22826070.910   -16496576.526 7  -5549513.537 7
  25324668.427    -2462277.884 4  -1497534.231 1
  21294781.460   -10386984.124 9  -8118469.951 9
  23491098.391    12097413.079 6   9586774.463 4
 94  2  8 18 14 30.0020000  0  6 22 25 29 18 14 15
  22668388.141   -12609443.404 7  -9845867.733 6
  23026824.621    17988368.665 7   9378123.291 7
  22821177.248   -16522263.554 7  -5569529.389 7
  25314365.549    -2516439.128 4  -1539737.836 1
  21291205.925   -10405764.802 8  -8133104.240 9
  23512741.668    12211146.747 6   9675398.024 4
 94  2  8 18 15  0.0020000  0  6 22 25 29 18 14 15
  22660450.896   -12651141.598 7  -9878359.803 6
  23046720.527    18092926.223 7   9459596.683 6
  22816312.216   -16547845.233 7  -5589463.147 7
  25304048.582    -2570628.351 4  -1581963.123 1
  21287709.176   -10424125.555 8  -8147411.306 9
  23534428.384    12325099.118 6   9764192.029 4
 94  2  8 18 15 30.0020000  0  6 22 25 29 18 14 15
  22652592.497   -12692426.974 7  -9910530.192 6
  23066661.013    18197723.500 7   9541256.842 6
  22811465.771   -16573306.127 7  -5609302.790 7
  25293727.147    -2624823.561 4  -1624193.153 1
  21284295.919   -10442059.987 8  -8161386.186 9
  23556156.712    12439279.417 6   9853163.609 4
 94  2  8 18 16  0.0020000  0  6 22 25 29 18 14 15
  22644820.977   -12733277.870 7  -9942362.026 6
  23086650.484    18302762.385 7   9623105.292 6
  22806641.780   -16598652.670 7  -5629053.316 7
  25283425.739    -2679001.655 4  -1666409.823 1
  21280967.023   -10459568.655 8  -8175029.291 9
  23577927.820    12553692.894 6   9942316.891 4
 94  2  8 18 16 30.0020000  0  6 22 25 29 18 14 15
  22637128.632   -12773697.373 7  -9973857.735 6
  23106680.038    18408024.653 7   9705127.794 6
  22801838.656   -16623906.069 7  -5648731.276 7
  25273118.604    -2733147.126 4  -1708601.101 1
  21277717.663   -10476644.318 8  -8188334.996 9
  23599747.825    12668337.416 6  10031650.212 4
 94  2  8 18 17  0.0020000  0  6 22 25 29 18 14 15
  22629519.390   -12813687.593 7 -10005018.920 6
  23126749.704    18513494.738 7   9787312.219 6
  22797051.420   -16649062.751 7  -5668333.876 7
  25262822.412    -2787252.722 4  -1750761.209 1
  21274555.422   -10493264.320 8  -8201285.646 9
  23621606.802    12783214.433 6  10121164.683 4
 94  2  8 18 17 30.0020000  0  6 22 25 29 18 14 15
  22621993.070   -12853237.569 7 -10035837.085 6
  23146856.335    18619154.317 7   9869644.305 6
  22792282.021   -16674120.440 7  -5687859.341 7
  25252532.156    -2841304.882 4  -1792879.714 1
  21271480.361   -10509419.966 8  -8213874.454 9
  23643508.200    12898323.905 6  10210860.290 4
 94  2  8 18 18  0.0020000  0  6 22 25 29 18 14 15
  22614548.234   -12892341.726 7 -10066307.858 6
  23166999.330    18724994.153 7   9952116.857 6
  22787533.279   -16699078.271 7  -5707306.975 7
  25242258.208    -2895295.065 4  -1834949.975 1
  21268496.826   -10525098.473 8  -8226091.463 9
  23665454.657    13013661.312 6  10300733.523 4
 94  2  8 18 18 30.0020000  0  6 22 25 29 18 14 15
  22607191.117   -12931007.596 7 -10096437.106 5
  23187174.463    18831007.484 7  10034724.608 6
  22782805.432   -16723915.607 7  -5726660.748 7
  25232001.829    -2949219.152 5  -1876968.663 2
  21265605.298   -10540284.423 8  -8237924.664 9
  23687451.569    13129228.152 6  10390785.533 4
 94  2  8 18 19  0.0020000  0  6 22 25 29 18 14 15
  22599919.771   -12969223.496 7 -10126215.726 5
  23207382.094    18937203.445 7  10117474.668 6
  22778103.787   -16748617.365 7  -5745908.845 7
  25221760.379    -3003073.393 5  -1918932.947 2
  21262813.361   -10554970.068 8  -8249368.001 9
  23709486.164    13245024.496 6  10481016.355 4
 94  2  8 18 19 30.0020000  0  6 22 25 29 18 14 15
  22592732.337   -13006997.348 7 -10155649.896 5
  23227625.549    19043589.872 7  10200373.118 6
  22773428.044   -16773190.898 7  -5765057.056 7
  25211517.999    -3056861.074 5  -1960845.334 2
  21260114.329   -10569155.686 9  -8260421.742 9
  23731563.301    13361043.529 6  10571420.716 4
 94  2  8 18 20  0.0020000  0  6 22 25 29 18 14 15
  22585625.157   -13044331.714 7 -10184741.583 5
  23247907.229    19150176.938 7  10283427.915 6
  22768776.254   -16797638.593 7  -5784107.180 7
  25201289.620    -3110599.414 5  -2002719.297 2
  21257506.045   -10582851.469 9  -8271093.754 9
  23753683.367    13477279.672 6  10661994.258 4
 94  2  8 18 20 30.0020000  0  6 22 25 29 18 14 15
  22578605.037   -13081221.447 7 -10213486.818 5
  23268230.909    19256979.809 7  10366650.893 6
  22764146.799   -16821961.190 7  -5803059.848 7
  25191074.822    -3164307.234 5  -2044569.511 2
  21254991.116   -10596067.902 9  -8281392.285 9
  23775841.358    13593723.907 6  10752729.925 4
 94  2  8 18 21  0.0020000  0  6 22 25 29 18 14 15
  22571676.863   -13117661.565 7 -10241881.716 5
  23288595.361    19364001.343 7  10450044.237 6
  22759540.668   -16846169.268 7  -5821923.270 7
  25180854.057    -3218002.400 5  -2086409.843 2
  21252566.544   -10608811.988 8  -8291322.741 9
  23798044.976    13710364.314 6  10843618.457 4
 94  2  8 18 21 30.0020000  0  6 22 25 29 18 14 15
  22564827.745   -13153638.510 7 -10269915.678 5
  23309005.891    19471236.350 7  10533603.932 6
  22754954.563   -16870263.918 7  -5840698.315 7
  25170639.799    -3271695.978 5  -2128248.959 2
  21250229.362   -10621086.825 8  -8300887.529 9
  23820272.758    13827190.354 6  10934651.645 4
 94  2  8 18 22  0.0020000  0  6 22 25 29 18 14 15
  22558078.097   -13189109.183 7 -10297555.152 5
  23329454.705    19578695.435 7  10617338.234 6
  22750395.709   -16894228.380 7  -5859371.906 7
  25160420.623    -3325381.817 5  -2170082.050 2
  21247986.915   -10632880.447 8  -8310077.379 9
  23842534.027    13944213.772 6  11025838.634 4
 94  2  8 18 22 30.0020000  0  6 22 25 29 18 14 15
  22551426.932   -13224056.707 7 -10324786.990 5
  23349942.311    19686369.420 7  10701239.987 6
  22745857.750   -16918060.308 7  -5877942.224 7
  25150211.041    -3379051.682 5  -2211902.725 2
  21245838.242   -10644158.568 8  -8318865.522 9
  23864843.862    14061445.560 6  11117187.972 4
 94  2  8 18 23  0.0020000  0  6 22 25 29 18 14 15
  22544877.936   -13258483.752 8 -10351613.240 6
  23370469.251    19794239.038 7  10785294.180 6
  22741347.013   -16941778.762 8  -5896424.124 7
  25140005.746    -3432692.394 5  -2253700.683 2
  21243792.788   -10654919.391 8  -8327250.578 9
  23887194.469    14178883.908 6  11208698.269 4
 94  2  8 18 23 30.0020000  0  6 22 25 29 18 14 15
  22538421.575   -13292405.252 8 -10378045.558 6
  23391033.335    19902304.133 7  10869500.697 6
  22736853.604   -16965387.867 8  -5914820.816 6
  25129808.725    -3486286.391 5  -2295462.231 2
  21241844.047   -10665157.832 8  -8335228.577 9
  23909583.000    14296526.879 6  11300368.046 4
 94  2  8 18 24  0.0020000  0  6 22 25 29 18 14 15
  22532055.752   -13325848.764 7 -10404105.436 6
  23411633.244    20010558.019 7  10953854.327 6
  22732379.351   -16988902.632 8  -5933143.982 7
  25119614.433    -3539819.117 5  -2337176.036 2
  21239997.356   -10674883.422 8  -8342806.959 9
  23932001.810    14414369.060 6  11392192.994 4
 94  2  8 18 24 30.0020000  0  6 22 25 29 18 14 15
  22525780.257   -13358833.353 7 -10429807.717 6
  23432265.440    20118990.051 7  11038346.767 5
  22727920.718   -17012326.868 8  -5951396.612 6
  25109443.884    -3593281.081 5  -2378834.692 2
  21238238.803   -10684104.174 8  -8349991.966 9
  23954459.743    14532398.694 6  11484164.064 4
 94  2  8 18 25  0.0020000  0  6 22 25 29 18 14 15
  22519593.500   -13391357.484 7 -10455151.199 6
  23452938.738    20227615.308 7  11122989.751 5
  22723487.387   -17035631.581 8  -5969556.125 7
  25099292.312    -3646660.192 5  -2420428.726 2
  21236576.454   -10692831.627 8  -8356792.585 9
  23976958.057    14650609.872 6  11576276.562 3
 94  2  8 18 25 30.0020000  0  6 22 25 29 18 14 15
  22513482.830   -13423431.259 7 -10480143.728 6
  23473645.823    20336422.587 7  11207774.602 5
  22719081.367   -17058803.326 8  -5987611.999 7
  25089140.380    -3699977.621 4  -2461974.742 2
  21235009.769   -10701077.549 8  -8363217.955 9
  23999487.940    14768989.220 6  11668520.105 3
 94  2  8 18 26  0.0020000  0  6 22 25 29 18 14 15
  22507475.829   -13455026.441 7 -10504763.356 6
  23494382.288    20445399.422 7  11292691.555 5
  22714696.813   -17081835.723 8  -6005559.307 7
  25078999.000    -3753254.364 5  -2503489.015 2
  21233529.423   -10708838.211 8  -8369265.243 9
  24022036.140    14887537.123 6  11760895.004 3
 94  2  8 18 26 30.0020000  0  6 22 25 29 18 14 15
  22501552.709   -13486150.276 7 -10529015.692 6
  23515150.740    20554527.812 7  11377726.615 5
  22710339.059   -17104727.306 8  -6023396.880 7
  25068870.152    -3806515.450 5  -2544991.117 2
  21232148.250   -10716112.641 8  -8374933.626 9
  24044637.134    15006245.229 6  11853394.722 3
 94  2  8 18 27  0.0030000  0  6 22 25 29 18 14 15
  22495719.318   -13516797.592 7 -10552896.691 6
  23535947.553    20663821.701 7  11462890.638 5
  22706006.459   -17127484.834 8  -6041129.984 7
  25058737.077    -3859766.236 5  -2586485.168 2
  21230856.864   -10722899.369 8  -8380221.983 9
  24067257.434    15125120.557 6  11946024.755 3
 94  2  8 18 27 30.0030000  0  6 22 25 29 18 14 15
  22489977.573   -13546970.604 7 -10576408.145 6
  23556771.916    20773268.688 7  11548173.950 5
  22701695.413   -17150146.312 8  -6058788.278 7
  25048599.505    -3913013.854 5  -2627976.713 2
  21229658.413   -10729199.874 8  -8385131.486 9
  24089903.517    15244147.380 5  12038772.808 3
 94  2  8 18 28  0.0030000  0  6 22 25 29 18 14 15
  22484324.416   -13576674.094 7 -10599553.705 6
  23577628.388    20882864.501 7  11633573.243 5
  22697396.180   -17172742.688 8  -6076395.827 7
  25038468.319    -3966264.257 5  -2669470.465 2
  21228550.260   -10735019.367 8  -8389666.144 9
  24112579.668    15363312.638 6  12131628.743 3
 94  2  8 18 28 30.0030000  0  6 22 25 29 18 14 15
  22478761.857   -13605905.812 7 -10622331.672 6
  23598518.316    20992631.691 7  11719106.051 5
  22693111.786   -17195264.919 8  -6093945.597 7
  25028342.109    -4019486.701 5  -2710942.424 2
  21227535.223   -10740348.189 8  -8393818.487 9
  24135286.729    15482618.247 6  12224594.064 3
 94  2  8 18 29  0.0030000  0  6 22 25 29 18 14 15
  22473294.932   -13634637.015 7 -10644719.611 6
  23619438.133    21102580.141 7  11804780.125 5
  22688838.544   -17217715.408 8  -6111439.476 7
  25018210.923    -4072685.900 5  -2752396.257 2
  21226618.038   -10745178.034 8  -8397581.993 9
  24158014.834    15602058.145 5  12317664.013 3
 94  2  8 18 29 30.0030000  0  6 22 25 29 18 14 15
  22467923.880   -13662852.366 7 -10666705.586 6
  23640394.555    21212694.889 7  11890583.766 5
  22684580.921   -17240088.314 8  -6128872.896 7
  25008100.422    -4125866.782 5  -2793835.794 2
  21225797.416   -10749496.454 8  -8400946.999 9
  24180770.071    15721626.646 6  12410834.136 3
 94  2  8 18 30  0.0030000  0  6 22 25 29 18 14 15
  22462653.259   -13690546.031 7 -10688285.057 6
  23661376.070    21322955.701 7  11976501.213 4
  22680338.648   -17262367.716 8  -6146233.443 7
  24997978.140    -4179034.738 5  -2835265.292 2
  21225072.038   -10753298.918 9  -8403909.968 9
  24203538.739    15841313.715 5  12504096.717 3
 94  2  8 18 30 30.0030000  0  6 22 25 29 18 14 15
  22457481.059   -13717725.282 7 -10709463.690 6
  23682381.419    21433343.972 7  12062517.977 4
  22676118.710   -17284554.181 8  -6163521.604 7
  24987865.601    -4232198.969 5  -2876691.891 2
  21224447.481   -10756588.671 8  -8406473.407 9
  24226346.799    15961114.064 5  12597447.483 3
 94  2  8 18 31  0.0030000  0  6 22 25 29 18 14 15
  22452405.693   -13744406.966 7 -10730254.583 6
  23703407.932    21543828.030 7  12148609.388 4
  22671912.322   -17306665.314 8  -6180751.040 7
  24977740.470    -4285382.307 5  -2918133.432 2
  21223914.540   -10759380.896 8  -8408649.171 9
  24249152.851    16081013.665 5  12690875.648 3
 94  2  8 18 31 30.0030000  0  6 22 25 29 18 14 15
  22447417.596   -13770623.925 7 -10750683.370 7
  23724447.247    21654397.947 7  12234767.707 4
  22667717.955   -17328703.723 8  -6197923.817 7
  24967623.524    -4338574.988 5  -2959582.242 2
  21223477.292   -10761679.427 8  -8410440.252 9
  24271991.250    16201008.751 5  12784378.169 3
 94  2  8 18 32  0.0030000  0  6 22 25 29 18 14 15
  22442515.240   -13796387.285 7 -10770758.720 7
  23745505.569    21765063.120 7  12321000.233 4
  22663538.908   -17350665.400 8  -6215036.795 7
  24957501.301    -4391756.964 5  -3001022.722 2
  21223134.300   -10763478.325 8  -8411841.999 9
  24294844.009    16321106.614 5  12877960.830 3
 94  2  8 18 32 30.0030000  0  6 22 25 29 18 14 15
  22437697.695   -13821712.920 7 -10790492.942 7
  23766585.535    21875828.262 7  12407310.685 4
  22659373.382   -17372555.623 8  -6232094.082 7
  24947380.398    -4444934.302 5  -3042459.526 2
  21222880.256   -10764805.330 8  -8412876.003 9
  24317721.052    16441299.213 5  12971617.310 3
 94  2  8 18 33  0.0030000  0  6 22 25 29 18 14 15
  22432959.265   -13846610.902 7 -10809893.993 7
  23787684.059    21986700.117 7  12493704.242 4
  22655221.137   -17394374.598 8  -6249095.884 7
  24937261.953    -4498118.848 5  -3083902.032 2
  21222715.190   -10765676.529 8  -8413554.882 9
  24340608.318    16561569.975 5  13065334.633 3
 94  2  8 18 33 30.0030000  0  6 22 25 29 18 14 15
  22428302.379   -13871068.031 7 -10828951.510 7
  23808802.969    22097681.878 7  12580183.439 5
  22651085.260   -17416119.561 8  -6266039.997 7
  24927137.032    -4551309.965 5  -3125349.630 2
  21222636.105   -10766090.933 8  -8413877.812 9
  24363503.168    16681915.106 5  13159109.949 3
 94  2  8 18 34  0.0030000  0  6 22 25 29 18 14 15
  22423740.258   -13895058.298 7 -10847645.224 7
  23829939.416    22208761.409 6  12666738.850 5
  22646959.816   -17437794.152 8  -6282929.291 7
  24917010.283    -4604519.597 5  -3166811.712 2
  21222640.602   -10766063.141 8  -8413856.164 9
  24386415.676    16802323.870 5  13252934.825 3
 94  2  8 18 34 30.0030000  0  6 22 25 29 18 14 15
  22419267.324   -13918557.576 7 -10865956.337 7
  23851095.590    22319939.010 6  12753370.657 5
  22642848.762   -17459383.915 8  -6299752.450 7
  24906875.619    -4657754.550 5  -3208293.452 2
  21222730.659   -10765589.408 8  -8413487.021 9
  24409339.126    16922797.126 5  13346809.948 3
 94  2  8 18 35  0.0030000  0  6 22 25 29 18 14 15
  22414891.823   -13941554.933 7 -10883876.353 7
  23872270.771    22431199.282 7  12840066.890 5
  22638755.426   -17480891.305 8  -6316511.469 7
  24896743.353    -4711021.224 5  -3249799.917 2
  21222908.406   -10764652.068 8  -8412756.641 9
  24432284.222    17043329.924 5  13440731.504 3
 94  2  8 18 35 30.0030000  0  6 22 25 29 18 14 15
  22410612.256   -13964039.891 7 -10901397.100 7
  23893454.256    22542533.002 6  12926820.361 5
  22634676.719   -17502320.374 8  -6333209.427 8
  24886607.700    -4764310.028 5  -3291323.664 2
  21223181.427   -10763231.130 8  -8411649.408 9
  24455231.865    17163925.791 5  13534702.191 2
 94  2  8 18 36  0.0030000  0  6 22 25 29 18 14 15
  22406429.851   -13986022.469 7 -10918526.374 7
  23914654.379    22653946.761 6  13013636.191 5
  22630618.459   -17523665.909 8  -6349842.298 8
  24876460.475    -4817626.097 5  -3332868.625 2
  21223544.686   -10761322.090 8  -8410161.851 9
  24478184.156    17284576.295 5  13628715.461 3
 94  2  8 18 36 30.0030000  0  6 22 25 29 18 14 15
  22402337.175   -14007517.644 7 -10935275.862 7
  23935872.041    22765453.957 6  13100524.834 5
  22626575.038   -17544915.841 8  -6366400.690 8
  24866306.264    -4870963.662 5  -3374430.326 2
  21224003.428   -10758912.099 8  -8408283.938 9
  24501162.138    17405280.863 5  13722770.819 3
 94  2  8 18 37  0.0030000  0  6 22 25 29 18 14 15
  22398341.361   -14028519.947 7 -10951641.281 7
  23957115.154    22877070.511 6  13187498.717 5
  22622549.575   -17566075.959 8  -6382889.082 8
  24856152.114    -4924301.194 5  -3415992.024 2
  21224564.460   -10755973.948 8  -8405994.463 9
  24524137.843    17526048.113 5  13816875.057 3
 94  2  8 18 37 30.0030000  0  6 22 25 29 18 14 15
  22394437.613   -14049039.875 7 -10967630.819 7
  23978374.397    22988787.613 6  13274550.928 5
  22618535.474   -17587160.947 8  -6399318.950 8
  24846015.471    -4977632.076 5  -3457548.476 2
  21225221.725   -10752506.867 8  -8403292.850 9
  24547130.305    17646868.475 5  13911020.682 3
 94  2  8 18 38  0.0030000  0  6 22 25 29 18 14 15
  22390625.902   -14069076.639 7 -10983243.874 7
  23999652.316    23100607.922 6  13361683.575 4
  22614536.003   -17608170.160 8  -6415689.747 8
  24835859.642    -5030963.989 5  -3499105.758 2
  21225979.180   -10748527.548 8  -8400192.064 9
  24570130.623    17767734.284 5  14005201.712 3
 94  2  8 18 38 30.0030000  0  6 22 25 29 18 14 15
  22386902.690   -14088627.192 8 -10998478.055 7
  24020949.123    23212516.260 6  13448884.799 4
  22610550.322   -17629124.269 8  -6432017.625 8
  24825711.458    -5084290.069 5  -3540658.497 2
  21226836.407   -10744036.965 8  -8396692.910 9
  24593138.494    17888642.709 5  14099415.897 3
 94  2  8 18 39  0.0030000  0  6 22 25 29 18 14 15
  22383277.210   -14107685.738 8 -11013328.870 7
  24042260.140    23324498.593 6  13536143.697 4
  22606568.448   -17650038.762 8  -6448314.644 8
  24815568.130    -5137605.620 5  -3582203.025 2
  21227787.139   -10739038.839 8  -8392798.276 9
  24616151.763    18009586.345 5  14193657.564 3
 94  2  8 18 39 30.0030000  0  6 22 25 29 18 14 15
  22379747.004   -14126240.167 8 -11027786.863 7
  24063582.758    23436576.276 6  13623476.878 4
  22602602.854   -17670885.901 8  -6464559.151 8
  24805424.142    -5190902.809 5  -3623733.206 2
  21228830.746   -10733543.674 8  -8388516.314 9
  24639180.171    18130567.385 5  14287928.372 2
 94  2  8 18 40  0.0030000  0  6 22 25 29 18 14 15
  22376309.044   -14144294.143 7 -11041854.866 7
  24084929.480    23548740.513 6  13710877.500 4
  22598647.902   -17691664.021 8  -6480749.905 8
  24795291.517    -5244196.116 5  -3665260.410 2
  21229966.360   -10727574.682 8  -8383865.159 9
  24662205.520    18251575.109 5  14382219.947 2
 94  2  8 18 40 30.0030000  0  6 22 25 29 18 14 15
  22372971.334   -14161847.396 8 -11055532.730 7
  24106284.207    23660964.845 6  13798324.961 4
  22594708.089   -17712375.935 8  -6496889.070 8
  24785139.585    -5297485.740 5  -3706784.763 2
  21231192.451   -10721130.197 8  -8378843.481 9
  24685230.690    18372601.261 5  14476525.918 2
 94  2  8 18 41  0.0030000  0  6 22 25 29 18 14 15
  22369723.982   -14178906.126 8 -11068825.237 7
  24127647.237    23773232.718 6  13885806.359 4
  22590780.478   -17733015.484 8  -6512971.822 8
  24774995.777    -5350796.567 5  -3748325.607 2
  21232508.660   -10714221.473 8  -8373460.061 9
  24708267.492    18493630.826 5  14570834.519 2
 94  2  8 18 41 30.0030000  0  6 22 25 29 18 14 15
  22366570.196   -14195481.593 8 -11081741.173 7
  24149014.285    23885517.181 6  13973300.670 4
  22586862.610   -17753590.422 9  -6529004.247 8
  24764837.250    -5404161.560 5  -3789908.646 2
  21233905.753   -10706860.246 8  -8367724.043 9
  24731289.724    18614648.124 5  14665133.539 2
 94  2  8 18 42  0.0030000  0  6 22 25 29 18 14 15
  22363507.126   -14211586.632 8 -11094290.541 7
  24170377.976    23997786.657 6  14060783.299 4
  22582957.094   -17774120.082 9  -6545001.397 8
  24754674.675    -5457595.214 5  -3831545.224 2
  21235395.362   -10699041.874 8  -8361631.800 9
  24754320.620    18735645.650 5  14759417.178 2
 94  2  8 18 42 30.0030000  0  6 22 25 29 18 14 15
  22360531.116   -14227224.157 8 -11106475.636 7
  24191738.938    24110042.970 6  14148255.650 5
  22579058.443   -17794600.804 8  -6560960.400 8
  24744497.681    -5511097.991 5  -3873235.675 2
  21236974.369   -10690749.737 8  -8355170.409 9
  24777339.465    18856622.846 5  14853685.014 2
 94  2  8 18 43  0.0030000  0  6 22 25 29 18 14 15
  22357644.535   -14242389.008 8 -11118292.404 7
  24213105.086    24222313.400 6  14235739.039 5
  22575172.743   -17815027.442 8  -6576877.261 8
  24734302.848    -5564661.907 5  -3914973.792 2
  21238643.703   -10681970.824 8  -8348329.695 9
  24800358.879    18977589.073 5  14947944.248 2
 94  2  8 18 43 30.0030000  0  6 22 25 29 18 14 15
  22354847.531   -14257083.815 8 -11129742.883 7
  24234475.192    24334608.684 6  14323241.789 5
  22571294.868   -17835404.901 8  -6592755.807 8
  24724092.487    -5618275.325 5  -3956750.475 2
  21240408.461   -10672709.995 8  -8341113.471 9
  24823387.227    19098545.506 5  15042195.883 2
 94  2  8 18 44  0.0030000  0  6 22 25 29 18 14 15
  22352140.675   -14271315.355 8 -11140832.398 7
  24255851.743    24446939.521 6  14410772.213 5
  22567424.667   -17855736.627 8  -6608598.702 8
  24713888.271    -5671940.736 5  -3998567.638 2
  21242258.151   -10662977.249 8  -8333529.524 9
  24846393.750    19219483.065 5  15136432.783 2
 94  2  8 18 44 30.0030000  0  6 22 25 29 18 14 15
  22349524.026   -14285051.463 8 -11151535.864 7
  24277234.021    24559324.853 6  14498345.105 5
  22563570.145   -17876009.534 8  -6624395.789 8
  24703666.008    -5725639.946 6  -4040411.157 2
  21244205.752   -10652754.216 8  -8325563.520 9
  24869401.681    19340410.182 5  15230661.497 2
 94  2  8 18 45  0.0030000  0  6 22 25 29 18 14 15
  22347013.534   -14298260.962 8 -11161828.976 7
  24298640.791    24671791.229 6  14585981.150 5
  22559723.418   -17896209.609 8  -6640136.100 8
  24693447.012    -5779342.800 5  -4082257.533 2
  21246244.221   -10642021.100 8  -8317200.087 9
  24892413.061    19461345.040 5  15324896.350 2
 94  2  8 18 45 30.0030000  0  6 22 25 29 18 14 15
  22344608.539   -14310897.377 8 -11171675.513 7
  24320064.170    24784378.049 6  14673711.072 5
  22555901.844   -17916297.065 8  -6655788.656 8
  24683241.717    -5833004.583 5  -4124071.865 2
  21248396.401   -10630732.584 8  -8308403.838 9
  24915433.734    19582323.479 5  15419165.104 2
 94  2  8 18 46  0.0030000  0  6 22 25 29 18 14 15
  22342311.410   -14322962.880 8 -11181077.223 7
  24341507.485    24897064.690 6  14761518.743 5
  22552097.718   -17936278.104 8  -6671358.300 8
  24673040.799    -5886622.055 6  -4165851.707 2
  21250649.731   -10618875.155 8  -8299164.303 9
  24938467.059    19703336.094 5  15513460.450 2
 94  2  8 18 46 30.0030000  0  6 22 25 29 18 14 15
  22340126.282   -14334450.196 8 -11190028.354 7
  24362969.957    25009849.392 6  14849402.838 5
  22548321.712   -17956134.161 8  -6686830.543 8
  24662851.483    -5940164.906 5  -4207573.376 2
  21253019.950   -10606435.567 8  -8289471.122 9
  24961506.828    19824389.885 5  15607787.906 2
 94  2  8 18 47  0.0030000  0  6 22 25 29 18 14 15
  22338048.241   -14345364.124 8 -11198532.717 7
  24384453.954    25122744.006 6  14937372.576 4
  22544569.389   -17975831.780 8  -6702179.328 8
  24652673.529    -5993625.590 6  -4249231.047 2
  21255497.795   -10593414.303 8  -8279324.687 9
  24984546.898    19945491.763 5  15702152.852 2
 94  2  8 18 47 30.0030000  0  6 22 25 29 18 14 15
  22336083.761   -14355695.385 8 -11206583.027 7
  24405956.148    25235740.842 6  15025421.986 4
  22540858.289   -17995351.545 8  -6717389.523 8
  24642515.901    -6047004.094 5  -4290824.666 2
  21258088.362   -10579807.793 8  -8268722.232 9
  25007597.730    20066644.339 5  15796557.268 2
 94  2  8 18 48  0.0030000  0  6 22 25 29 18 14 15
  22334228.735   -14365445.159 8 -11214180.250 7
  24427478.758    25348837.889 6  15113549.461 4
  22537179.355   -18014681.350 8  -6732451.707 8
  24632371.074    -6100298.527 5  -4332352.749 2
  21260786.344   -10565621.109 8  -8257667.680 9
  25030666.910    20187847.080 5  15891000.809 2
 94  2  8 18 48 30.0030000  0  6 22 25 29 18 14 15
  22332487.001   -14374591.318 7 -11221307.109 7
  24449020.375    25462053.993 6  15201769.732 4
  22533537.447   -18033821.493 8  -6747366.105 8
  24622246.963    -6153516.719 5  -4373821.444 2
  21263593.630   -10550860.122 8  -8246165.623 9
  25053730.363    20309099.683 5  15985483.178 2
 94  2  8 18 49  0.0030000  0  6 22 25 29 18 14 15
  22330859.068   -14383123.589 7 -11227955.616 7
  24470587.355    25575383.340 6  15290078.231 4
  22529927.286   -18052809.048 8  -6762161.589 8
  24612129.657    -6206680.065 5  -4415247.384 2
  21266511.870   -10535519.977 8  -8234212.270 9
  25076822.237    20430392.333 5  16079996.781 2
 94  2  8 18 49 30.0030000  0  6 22 25 29 18 14 15
  22329354.739   -14391051.469 7 -11234133.190 7
  24492169.954    25688797.660 6  15378452.950 4
  22526332.265   -18071696.771 8  -6776879.317 8
  24602023.833    -6259804.396 5  -4456642.967 2
  21269543.162   -10519608.065 8  -8221813.417 9
  25099907.995    20551702.897 5  16174524.285 2
 94  2  8 18 50  0.0030000  0  6 22 25 29 18 14 15
  22327956.597   -14398392.316 7 -11239853.292 8
  24513764.664    25802285.286 6  15466884.808 4
  22522748.066   -18090513.764 8  -6791541.901 8
  24591917.350    -6312903.704 5  -4498019.000 2
  21272677.642   -10503125.713 8  -8208970.018 9
  25122998.190    20673008.962 5  16269048.358 2
 94  2  8 18 50 30.0030000  0  6 22 25 29 18 14 15
  22326670.817   -14405143.936 8 -11245114.289 8
  24535374.064    25915828.644 6  15555360.038 4
  22519182.994   -18109258.499 8  -6806148.204 8
  24581813.774    -6365993.805 5  -4539387.856 2
  21275923.824   -10486073.497 8  -8195682.590 9
  25146064.852    20794303.771 4  16363563.572 2
 94  2  8 18 51  0.0030000  0  6 22 25 29 18 14 15
  22325498.119   -14411327.979 8 -11249933.008 8
  24556984.154    26029416.918 6  15643870.317 4
  22515633.152   -18127914.740 7  -6820685.541 8
  24571710.469    -6419081.359 5  -4580754.773 2
  21279273.166   -10468463.025 8  -8181960.147 9
  25169145.123    20915581.418 4  16458065.467 2
 94  2  8 18 51 30.0030000  0  6 22 25 29 18 14 15
  22324427.111   -14416948.173 8 -11254312.383 8
  24578612.081    26143063.526 6  15732426.013 4
  22512108.761   -18146443.913 8  -6835123.824 9
  24561608.962    -6472162.832 5  -4622116.942 2
  21282732.741   -10450296.696 8  -8167804.570 9
  25192233.490    21036851.983 4  16552561.822 2
 94  2  8 18 52  0.0030000  0  6 22 25 29 18 14 15
  22323467.715   -14421999.214 8 -11258248.250 8
  24600254.428    26256776.317 6  15821033.293 4
  22508608.804   -18164820.358 8  -6849443.122 9
  24551507.305    -6525245.419 5  -4663479.961 2
  21286291.367   -10431584.401 8  -8153223.574 9
  25215294.125    21158118.841 4  16647055.273 2
 94  2  8 18 52 30.0030000  0  6 22 25 29 18 14 15
  22322610.009   -14426502.250 7 -11261757.104 8
  24621901.782    26370549.441 6  15909687.601 4
  22505138.467   -18183050.538 8  -6863648.486 9
  24541405.439    -6578345.961 5  -4704857.015 2
  21289954.171   -10412352.541 8  -8138237.726 9
  25238372.298    21279370.060 4  16741536.579 2
 94  2  8 18 53  0.0030000  0  6 22 25 29 18 14 15
  22321856.270   -14430460.038 7 -11264841.087 8
  24643567.693    26484398.518 6  15998401.072 4
  22501694.571   -18201148.445 8  -6877750.761 9
  24531297.816    -6631443.298 5  -4746231.538 2
  21293713.179   -10392588.719 8  -8122837.349 9
  25261447.953    21400604.358 4  16836004.654 2
 94  2  8 18 53 30.0030000  0  6 22 25 29 18 14 15
  22321204.492   -14433861.099 7 -11267491.257 8
  24665246.675    26598316.025 6  16087167.867 4
  22498276.637   -18219124.852 8  -6891758.349 9
  24521199.517    -6684519.732 5  -4787589.756 2
  21297577.774   -10372271.471 8  -8107005.743 9
  25284508.709    21521822.368 4  16930460.019 2
 94  2  8 18 54  0.0030000  0  6 22 25 29 18 14 15
  22320670.202   -14436690.576 7 -11269696.037 8
  24686934.051    26712296.587 6  16175983.787 4
  22494879.719   -18236974.449 8  -6905667.135 9
  24511108.173    -6737547.660 6  -4828910.221 2
  21301552.992   -10351383.950 8  -8090729.775 9
  25307585.023    21643025.320 4  17024903.688 2
 94  2  8 18 54 30.0030000  0  6 22 25 29 18 14 15
  22320244.916   -14438930.966 7 -11271441.773 8
  24708638.336    26826346.997 6  16264854.130 4
  22491505.495   -18254693.894 8  -6919474.486 9
  24501033.857    -6790496.005 6  -4870168.643 2
  21305642.161   -10329902.587 8  -8073991.054 9
  25330642.451    21764221.219 5  17119341.816 2
 94  2  8 18 55  0.0030000  0  6 22 25 29 18 14 15
  22319931.003   -14440557.716 7 -11272709.346 8
  24730351.674    26940450.846 6  16353766.133 4
  22488158.492   -18272281.692 8  -6933179.258 9
  24490977.409    -6843345.605 6  -4911350.126 2
  21309844.801   -10307822.471 8  -8056785.785 9
  25353701.438    21885412.058 5  17213776.105 2
 94  2  8 18 55 30.0030000  0  6 22 25 29 18 14 15
  22319737.787   -14441573.891 7 -11273501.165 8
  24752070.498    27054588.440 6  16442704.412 3
  22484840.659   -18289736.485 8  -6946780.400 9
  24480931.694    -6896116.219 6  -4952470.092 2
  21314155.727   -10285158.312 8  -8039125.429 9
  25376756.347    22006587.255 5  17308198.098 2
 94  2  8 18 56  0.0030000  0  6 22 25 29 18 14 15
  22319663.139   -14441982.546 7 -11273819.573 8
  24773798.406    27168767.427 6  16531674.965 3
  22481542.732   -18307057.297 8  -6960277.121 9
  24470902.287    -6948819.275 6  -4993537.392 2
  21318577.096   -10261922.108 8  -8021019.298 9
  25399811.466    22127739.140 5  17402601.991 2
 94  2  8 18 56 30.0030000  0  6 22 25 29 18 14 15
  22319700.553   -14441773.007 8 -11273656.292 8
  24795538.366    27282999.613 6  16620686.922 3
  22478272.026   -18324242.397 8  -6973668.119 9
  24460888.319    -7001465.033 6  -5034560.032 2
  21323107.800   -10238116.159 8  -8002469.241 9
  25422869.853    22248869.323 5  17496988.935 2
 94  2  8 18 57  0.0030000  0  7 19 22 25 29 18 14 15
  25862333.339    -3995979.02914  -1732351.727 1
  22319854.646   -14440964.614 8 -11273026.348 8
  24817282.493    27397278.130 6  16709735.044 3
  22475029.981   -18341290.989 8  -6986952.736 9
  24450876.690    -7054080.277 6  -5075558.889 2
  21327745.139   -10213747.544 8  -7983480.725 9
  25445920.746    22369961.947 5  17591346.594 2
 94  2  8 18 57 30.0030000  0  7 19 22 25 29 18 14 15
  25849412.524    -4063865.978 5  -1785250.474 1
  22320124.369   -14439563.045 8 -11271934.205 8
  24839046.586    27511627.898 6  16798838.653 3
  22471811.079   -18358181.117 8  -7000113.879 9
  24440864.342    -7106670.863 6  -5116538.579 2
  21332490.914   -10188805.851 8  -7964045.646 9
  25468946.215    22491021.209 5  17685678.267 2
 94  2  8 18 58  0.0030000  0  7 19 22 25 29 18 14 15
  25836525.675    -4131569.493 4  -1838006.499 1
  22320502.708   -14437563.626 7 -11270376.198 8
  24860817.904    27626049.089 6  16887997.922 3
  22468629.412   -18374922.325 9  -7013158.980 9
  24430866.053    -7159232.754 5  -5157495.863 2
  21337343.504   -10163297.424 8  -7944168.974 9
  25491974.503    22612042.128 5  17779980.051 2
 94  2  8 18 58 30.0030000  0  7 19 22 25 29 18 14 15
  25823681.607    -4199105.925 4  -1890632.187 1
  22320993.348   -14434982.002 8 -11268364.535 8
  24882601.783    27740535.823 6  16977208.282 3
  22465469.179   -18391513.891 9  -7026087.472 9
  24420868.604    -7211771.026 6  -5198434.778 2
  21342309.297   -10137217.072 8  -7923846.651 9
  25514998.774    22733019.453 5  17874247.887 2
 94  2  8 18 59  0.0030000  0  7 19 22 25 29 18 14 15
  25810855.527    -4266463.577 4  -1943118.599 1
  22321596.201   -14431810.146 8 -11265892.953 8
  24904409.166    27855115.181 6  17066490.826 3
  22462346.241   -18407936.322 8  -7038884.176 9
  24410882.368    -7264251.497 6  -5239328.637 3
  21347386.102   -10110529.432 8  -7903051.102 9
  25538013.781    22853972.789 5  17968497.020 2
 94  2  8 18 59 30.0030000  0  7 19 22 25 29 18 14 15
  25798074.894    -4333640.361 4  -1995464.030 1
  22322316.992   -14428028.530 7 -11262946.251 8
  24926228.241    27969792.558 6  17155849.681 3
  22459255.201   -18424195.902 9  -7051553.988 9
  24400909.442    -7316643.326 6  -5280153.433 3
  21352579.287   -10083230.032 8  -7881778.858 9
  25561023.721    22974912.306 5  18062735.357 2
 94  2  8 19  0  0.0030000  0  7 19 22 25 29 18 14 15
  25785335.364    -4400623.858 3  -2047658.870 1
  22323156.021   -14423629.911 7 -11259518.738 8
  24948066.323    28084564.946 6  17245282.622 3
  22456186.166   -18440295.615 9  -7064099.217 9
  24390965.326    -7368923.737 6  -5320891.344 3
  21357896.556   -10055308.853 8  -7860022.112 9
  25584035.851    23095839.863 5  18156964.431 2
 94  2  8 19  0 30.0040000  0  7 19 22 25 29 18 14 15
  25772621.016    -4467401.372 4  -2099693.292 1
  22324109.271   -14418616.157 7 -11255611.914 8
  24969928.808    28199427.640 6  17334785.904 3
  22453155.564   -18456225.214 8  -7076511.885 9
  24381031.583    -7421094.661 6  -5361543.980 3
  21363329.515   -10026758.247 8  -7837774.895 9
  25607056.104    23216755.051 5  18251183.834 2
 94  2  8 19  1  0.0040000  0  7 19 22 25 29 18 14 15
  25759945.821    -4533973.810 4  -2151567.874 1
  22325185.406   -14412962.085 7 -11251206.164 8
  24991796.150    28314339.184 6  17424327.251 3
  22450156.380   -18471997.740 8  -7088802.202 9
  24371129.768    -7473151.660 6  -5402107.865 3
  21368875.435    -9997593.739 8  -7815049.331 9
  25630050.545    23337640.684 5  18345380.178 2
 94  2  8 19  1 30.0040000  0  7 19 22 25 29 18 14 15
  25747329.475    -4600331.344 3  -2203275.033 1
  22326386.974   -14406639.614 7 -11246279.575 8
  25013668.318    28429287.983 6  17513897.645 2
  22447189.004   -18487597.536 8  -7100957.889 9
  24361240.094    -7525101.169 6  -5442587.991 3
  21374541.273    -9967818.100 8  -7791847.547 9
  25653053.291    23458506.570 5  18439561.163 2
 94  2  8 19  2  0.0040000  0  7 19 22 25 29 18 14 15
  25734736.063    -4666450.657 3  -2254796.509 1
  22327720.721   -14399633.101 7 -11240819.967 8
  25035549.330    28544291.359 5  17603510.563 2
  22444261.771   -18502981.725 8  -7112945.573 9
  24351373.775    -7576948.399 6  -5482988.386 3
  21380332.634    -9937397.890 8  -7768143.512 9
  25676051.809    23579371.116 5  18533741.069 2
 94  2  8 19  2 30.0040000  0  7 19 22 25 29 18 14 15
  25722212.413    -4732332.763 3  -2306133.117 1
  22329188.265   -14391925.027 7 -11234813.685 8
  25057451.477    28659356.964 5  17693171.993 2
  22441370.063   -18518148.468 8  -7124763.821 9
  24341528.770    -7628702.145 6  -5523315.969 3
  21386249.548    -9906318.675 8  -7743925.954 9
  25699052.036    23700243.959 4  18627927.479 2
 94  2  8 19  3  0.0040000  0  7 19 22 25 29 18 14 15
  25709708.579    -4797968.572 3  -2357277.890 2
  22330794.613   -14383499.995 7 -11228248.732 8
  25079361.419    28774512.918 5  17782903.757 2
  22438533.726   -18533083.222 8  -7136401.297 9
  24331702.173    -7680350.600 6  -5563561.495 3
  21392287.188    -9874575.474 8  -7719191.006 9
  25722064.225    23821139.255 4  18722131.359 2
 94  2  8 19  3 30.0040000  0  6 22 25 29 18 14 15
  22332522.346   -14374399.242 7 -11221157.261 8
  25101298.433    28889784.382 5  17872725.569 2
  22435731.626   -18547789.941 8  -7147861.086 9
  24321888.797    -7731907.775 6  -5603735.887 3
  21398451.161    -9842178.764 8  -7693946.826 9
  25745061.785    23942042.144 4  18816341.103 2
 94  2  8 19  4  0.0040000  0  6 22 25 29 18 14 15
  22334379.171   -14364651.046 7 -11213561.268 9
  25123259.729    29005171.966 5  17962637.871 2
  22432972.786   -18562296.227 8  -7159164.688 9
  24312090.440    -7783384.189 6  -5643847.401 3
  21404741.376    -9809145.330 8  -7668206.519 9
  25768065.010    24062930.751 4  18910539.788 2
 94  2  8 19  4 30.0040000  0  6 22 25 29 18 14 15
  22336352.795   -14354277.882 7 -11205478.289 9
  25145226.332    29120649.027 5  18052619.847 2
  22430242.216   -18576644.836 8  -7170345.417 9
  24302312.109    -7834789.201 6  -5683903.227 3
  21411138.467    -9775526.116 8  -7642009.736 9
  25791066.976    24183768.681 4  19004698.908 2
 94  2  8 19  5  0.0040000  0  6 22 25 29 18 14 15
  22338446.245   -14343275.420 7 -11196904.957 9
  25167223.424    29236230.468 5  18142683.221 2
  22427546.183   -18590812.625 8  -7181385.262 9
  24292536.477    -7886104.604 6  -5723889.277 3
  21417642.974    -9741314.301 8  -7615351.209 9
  25814056.980    24304561.027 4  19098822.585 2
 94  2  8 19  5 30.0040000  0  6 22 25 29 18 14 15
  22340659.523   -14331636.922 8 -11187836.003 9
  25189236.315    29351913.492 5  18232825.761 2
  22424886.094   -18604798.913 8  -7192283.683 9
  24282801.976    -7937324.548 6  -5763800.904 3
  21424273.064    -9706486.289 8  -7588212.511 9
  25837029.986    24425312.959 4  19192914.748 2
 94  2  8 19  6  0.0040000  0  6 22 25 29 18 14 15
  22343000.812   -14319339.450 7 -11178253.569 9
  25211268.842    29467680.270 5  18323033.512 2
  22422261.262   -18618591.181 8  -7203030.913 9
  24273071.432    -7988448.359 6  -5803637.637 3
  21431020.973    -9671032.832 8  -7560586.456 9
  25860001.673    24546030.571 4  19286980.142 2
 94  2  8 19  6 30.0040000  0  6 22 25 29 18 14 15
  22345466.036   -14306374.821 7 -11168151.258 9
  25233308.414    29583520.021 5  18413298.157 2
  22419674.322   -18632176.909 8  -7213617.199 9
  24263360.525    -8039465.845 6  -5843391.509 3
  21437888.379    -9634941.090 8  -7532463.039 9
  25882976.598    24666714.762 4  19381019.492 2
 94  2  8 19  7  0.0040000  0  7 19 22 25 29 18 14 15
  25611322.960     3027550.73415    -47938.182 1
  22348058.221   -14292753.879 7 -11157537.536 9
  25255372.599    29699423.698 5  18503612.588 2
  22417126.087   -18645556.106 8  -7224042.552 9
  24253667.725    -8090387.861 6  -5883070.996 3
  21444879.779    -9598203.671 8  -7503836.488 9
  25905936.503    24787358.288 4  19475027.189 2
 94  2  8 19  7 30.0040000  0  7 19 22 25 29 18 14 15
  25599209.336     2963887.902 5    -97545.491 1
  22350778.358   -14278482.234 7 -11146416.768 9
  25277432.408    29815375.003 5  18593964.153 2
  22414621.560   -18658721.736 8  -7234301.491 9
  24244000.378    -8141205.832 6  -5922669.416 3
  21451992.505    -9560824.661 8  -7474710.010 9
  25928879.530    24907954.555 3  19568997.986 2
 94  2  8 19  8  0.0040000  0  7 19 22 25 29 18 14 15
  25587123.593     2900429.988 4   -146993.169 2
  22353614.785   -14263561.157 7 -11134789.964 9
  25299512.632    29931371.609 5  18684350.994 2
  22412156.157   -18671675.883 8  -7244395.656 9
  24234349.039    -8191915.680 6  -5962183.599 3
  21459225.927    -9522814.980 8  -7445092.105 9
  25951821.388    25028494.889 4  19662925.239 2
 94  2  8 19  8 30.0040000  0  7 19 22 25 29 18 14 15
  25575087.705     2837172.984 5   -196284.277 2
  22356578.323   -14247990.044 7 -11122656.629 9
  25321588.389    30047418.670 5  18774777.188 2
  22409733.324   -18684429.547 8  -7254333.573 9
  24224723.033    -8242507.889 6  -6001606.086 4
  21466580.166    -9484163.333 8  -7414973.941 9
  25974750.864    25148977.083 4  19756807.181 2
 94  2  8 19  9  0.0040000  0  7 19 22 25 29 18 14 15
  25563093.818     2774114.501 5   -245420.708 2
  22359664.896   -14231770.048 8 -11110017.662 9
  25343690.678    30163511.738 5  18865239.238 2
  22407341.670   -18696984.277 9  -7264116.480 9
  24215114.265    -8292991.702 6  -6040944.111 4
  21474057.170    -9444879.074 8  -7384362.849 9
  25997660.434    25269396.161 4  19850639.959 2
 94  2  8 19  9 30.0040000  0  7 19 22 25 29 18 14 15
  25551137.436     2711269.893 5   -294390.389 2
  22362878.521   -14214886.125 7 -11096861.348 9
  25365784.813    30279664.731 5  18955747.922 2
  22404989.708   -18709343.223 8  -7273746.838 9
  24205529.750    -8343359.106 6  -6080191.426 4
  21481654.510    -9404958.175 8  -7353255.665 9
  26020571.683    25389760.744 4  19944430.279 2
 94  2  8 19 10  0.0040000  0  6 19 22 25 29 18 14
  25539217.747     2648661.299 5   -343176.164 2
  22366218.119   -14197327.189 7 -11083179.073 9
  25387902.601    30395890.275 5  19046313.192 2
  22402672.732   -18721533.938 8  -7283246.100 9
  24195966.791    -8393630.031 6  -6119363.569 3
  21489368.080    -9364404.329 8  -7321655.283 9
 94  2  8 19 10 30.0040000  0  6 19 22 25 29 18 14
  25527358.018     2586298.602 5   -391770.379 2
  22369690.376   -14179093.198 8 -11068970.766 9
  25410035.708    30512187.134 5  19136933.947 2
  22400386.455   -18733543.685 8  -7292604.359 9
  24186416.212    -8443806.011 6  -6158461.698 3
  21497206.004    -9323222.049 8  -7289565.223 9
 94  2  8 19 11  0.0040000  0  6 19 22 25 29 18 14
  25515539.450     2524180.617 5   -440173.852 2
  22373286.386   -14160199.657 7 -11054248.524 9
  25432177.900    30628542.904 5  19227600.694 2
  22398136.333   -18745373.587 8  -7301822.487 9
  24176885.241    -8493901.929 6  -6197497.488 3
  21505157.159    -9281440.129 8  -7257007.912 9
 94  2  8 19 11 30.0040000  0  6 19 22 25 29 18 14
  25503763.692     2462307.272 5   -488386.714 2
  22377003.123   -14140658.433 8 -11039021.599 9
  25454329.025    30744958.696 5  19318314.186 2
  22395916.789   -18757029.622 8  -7310905.099 9
  24167366.350    -8543919.449 6  -6236472.202 3
  21513225.504    -9239049.646 8  -7223976.379 9
 94  2  8 19 12  0.0040000  0  6 19 22 25 29 18 14
  25492030.295     2400672.416 4   -536413.688 2
  22380842.925   -14120477.567 8 -11023296.246 9
  25476481.229    30861412.509 4  19409057.316 2
  22393734.150   -18768493.817 8  -7319838.264 9
  24157860.022    -8593860.817 6  -6275387.546 3
  21521407.140    -9196044.381 8  -7190465.817 9
 94  2  8 19 12 30.0040000  0  6 19 22 25 29 18 14
  25480346.213     2339264.349 4   -584263.985 2
  22384803.453   -14099650.840 8 -11007067.619 9
  25498651.391    30977902.230 5  19499828.370 2
  22391596.420   -18779724.619 8  -7328589.537 9
  24148379.295    -8643695.788 6  -6314219.979 3
  21529714.449    -9152399.163 8  -7156456.569 9
 94  2  8 19 13  0.0040000  0  6 19 22 25 29 18 14
  25468708.750     2278084.194 4   -631936.647 2
  22388894.331   -14078171.253 8 -10990330.262 9
  25520830.427    31094433.867 4  19590632.126 2
  22389505.038   -18790718.839 8  -7337156.455 9
  24138917.785    -8693414.933 6  -6352962.164 3
  21538142.154    -9108097.931 8  -7121936.156 9
 94  2  8 19 13 30.0040000  0  6 19 22 25 29 18 14
  25457104.144     2217129.195 3   -679433.828 2
  22393107.584   -14056034.742 8 -10973081.011 9
  25543014.079    31211009.720 5  19681470.377 2
  22387456.796   -18801475.398 8  -7345538.191 9
  24129483.706    -8743012.951 6  -6391609.946 3
  21546697.722    -9063138.358 8  -7086902.743 9
 94  2  8 19 14  0.0040000  0  6 19 22 25 29 18 14
  25445527.388     2156385.843 3   -726766.132 2
  22397440.425   -14033245.759 8 -10955323.385 9
  25565204.537    31327616.887 4  19772332.994 2
  22385452.024   -18812010.495 8  -7353747.368 9
  24120067.195    -8792497.605 6  -6430169.444 3
  21555370.687    -9017557.586 8  -7051385.278 9
 94  2  8 19 14 30.0040000  0  6 19 22 25 29 18 14
  25434018.236     2095847.698 3   -773938.518 2
  22401902.056   -14009809.327 8 -10937061.227 9
  25587397.034    31444263.486 4  19863226.397 2
  22383487.334   -18822344.521 8  -7361799.854 9
  24110670.560    -8841870.192 6  -6468641.564 3
  21564163.150    -8971379.986 8  -7015402.764 9
 94  2  8 19 15  0.0040000  0  6 19 22 25 29 18 14
  25422552.583     2035531.363 4   -820938.073 2
  22406483.304   -13985728.537 8 -10918296.999 9
  25609605.839    31560956.762 4  19954156.086 2
  22381554.422   -18832494.723 8  -7369709.117 9
  24101295.211    -8891140.240 6  -6507033.813 3
  21573058.832    -8924620.743 8  -6978967.019 9
 94  2  8 19 15 30.0040000  0  6 19 22 25 29 18 14
  25411103.509     1975437.675 3   -867764.171 2
  22411187.977   -13961001.633 8 -10899029.277 9
  25631824.477    31677700.612 4  20045125.216 2
  22379659.104   -18842469.034 8  -7377481.306 9
  24091936.080    -8940308.522 6  -6545346.732 4
  21582065.977    -8877281.779 8  -6942079.544 9
 94  2  8 19 16  0.0040000  0  6 19 22 25 29 18 14
  25399709.537     1915560.330 4   -914421.648 2
  22416016.405   -13935627.172 8 -10879256.976 9
  25654034.481    31794484.687 4  20136125.683 1
  22377793.136   -18852268.968 8  -7385117.623 9
  24082600.513    -8989372.050 6  -6583578.048 4
  21591187.132    -8829349.722 8  -6904729.914 9
 94  2  8 19 16 30.0040000  0  6 19 22 25 29 18 14
  25388355.617     1855898.742 4   -960911.019 2
  22420968.317   -13909617.762 8 -10858989.915 9
  25676277.103    31911306.677 4  20227155.746 1
  22375964.732   -18861888.999 8  -7392613.759 9
  24073281.134    -9038348.514 6  -6621741.487 4
  21600422.748    -8780816.758 8  -6866912.041 9
 94  2  8 19 17  0.0040000  0  6 19 22 25 29 18 14
  25377040.550     1796459.031 4  -1007227.590 2
  22426039.006   -13882972.620 8 -10838227.466 9
  25698523.652    32028159.490 4  20318209.802 1
  22374169.035   -18871326.334 8  -7399967.539 9
  24063976.026    -9087242.198 6  -6659840.454 4
  21609773.995    -8731674.602 8  -6828619.487 9
 94  2  8 19 17 30.0040000  0  6 19 22 25 29 18 14
  25365779.926     1737234.137 4  -1053376.693 2
  22431228.174   -13855687.743 8 -10816966.540 9
  25720756.831    32145031.626 4  20409278.907 1
  22372405.026   -18880581.115 8  -7407179.060 9
  24054688.306    -9136052.817 6  -6697874.686 4
  21619243.389    -8681927.164 8  -6789855.261 9
 94  2  8 19 18  0.0040000  0  6 19 22 25 29 18 14
  25354545.953     1678229.342 4  -1099354.339 2
  22436542.055   -13827765.970 8 -10795209.314 9
  25742973.850    32261914.829 3  20500356.607 1
  22370680.800   -18889643.459 8  -7414240.637 9
  24045410.659    -9184791.727 6  -6735853.041 4
  21628821.578    -8631583.304 8  -6750626.321 9
 94  2  8 19 18 30.0040000  0  6 19 22 25 29 18 14
  25343361.566     1619461.836 4  -1145147.079 2
  22441979.001   -13799204.997 8 -10772954.037 9
  25765241.624    32378815.606 3  20591448.034 1
  22368996.116   -18898504.859 8  -7421145.606 9
  24036151.059    -9233458.628 6  -6773775.279 4
  21638513.689    -8580645.498 8  -6710934.538 9
 94  2  8 19 19  0.0040000  0  6 19 22 25 29 18 14
  25332229.522     1560914.114 4  -1190768.545 2
  22447535.325   -13770000.978 8 -10750197.664 9
  25787485.385    32495711.060 3  20682535.324 1
  22367345.159   -18907173.628 8  -7427900.500 9
  24026908.038    -9282051.463 7  -6811639.809 4
  21648320.380    -8529113.560 8  -6670779.790 9
 94  2  8 19 19 30.0040000  0  6 19 22 25 29 18 14
  25321123.741     1502580.245 5  -1236223.419 2
  22453215.103   -13740150.484 8 -10726937.539 9
  25809725.249    32612596.120 3  20773614.482 1
  22365733.835   -18915643.837 8  -7434500.665 9
  24017671.942    -9330569.458 7  -6849446.027 4
  21658242.701    -8476976.927 8  -6630153.880 9
 94  2  8 19 20  0.0040000  0  6 19 22 25 29 18 14
  25310062.089     1444441.532 5  -1281526.192 2
  22459018.425   -13709664.924 8 -10703182.555 9
  25831961.095    32729456.402 3  20864674.350 1
  22364159.265   -18923921.330 8  -7440950.668 9
  24008451.645    -9379021.127 7  -6887200.562 4
  21668278.463    -8424235.567 8  -6589056.735 9
 94  2  8 19 20 30.0040000  0  6 19 22 25 29 18 14
  25299036.681     1386485.522 5  -1326686.625 2
  22464939.866   -13678546.807 8 -10678934.667 9
  25854195.443    32846294.630 3  20955716.972 1
  22362618.092   -18932015.837 8  -7447258.074 9
  23999248.436    -9427390.487 7  -6924890.949 4
  21678433.423    -8370885.003 8  -6547484.892 9
 94  2  8 19 21  0.0040000  0  6 19 22 25 29 18 14
  25288035.797     1328696.907 4  -1371716.620 2
  22470979.904   -13646801.135 8 -10654197.785 9
  25876425.204    32963117.032 3  21046747.303 1
  22361111.994   -18939934.742 8  -7453428.652 9
  23990057.339    -9475676.722 7  -6962516.579 4
  21688696.818    -8316936.975 8  -6505447.488 9
 94  2  8 19 21 30.0040000  0  6 19 22 25 29 18 14
  25277077.483     1271081.498 5  -1416611.654 2
  22477138.811   -13614437.549 8 -10628979.386 9
  25898651.007    33079937.660 3  21137776.248 1
  22359637.525   -18947680.122 8  -7459464.019 9
  23980890.375    -9523867.887 7  -7000068.112 4
  21699073.084    -8262401.451 8  -6462952.305 9
 94  2  8 19 22  0.0040000  0  6 19 22 25 29 18 14
  25266143.513     1213649.518 5  -1461363.737 2
  22483418.443   -13581453.651 8 -10603277.650 9
  25920885.055    33196776.151 3  21228819.080 1
  22358198.461   -18955241.159 9  -7465355.733 9
  23971740.799    -9571942.727 7  -7037529.001 4
  21709565.281    -8207288.501 8  -6420007.172 9
 94  2  8 19 22 30.0040000  0  6 19 22 25 29 18 14
  25255251.453     1156401.184 5  -1505972.761 2
  22489807.770   -13547864.809 8 -10577104.511 9
  25943132.773    33313632.756 3  21319876.146 1
  22356796.272   -18962621.472 9  -7471106.629 9
  23962614.757    -9619907.081 6  -7074903.820 4
  21720156.678    -8151609.776 8  -6376621.173 9
 94  2  8 19 23  0.0040000  0  6 19 22 25 29 18 14
  25244390.812     1099349.700 5  -1550428.364 2
  22496315.785   -13513662.909 8 -10550453.680 8
  25965373.986    33430492.152 3  21410935.262 1
  22355429.278   -18969806.676 9  -7476705.492 9
  23953508.801    -9667759.206 6  -7112191.158 4
  21730861.188    -8095356.365 8  -6332787.380 9
 94  2  8 19 23 30.0040000  0  6 19 22 25 29 18 14
  25233571.602     1042506.279 5  -1594721.854 2
  22502941.078   -13478838.931 8 -10523318.107 8
  25987613.789    33547348.988 3  21501992.478 1
  22354098.050   -18976780.966 9  -7482140.004 9
  23944421.702    -9715495.400 6  -7149388.192 4
  21741682.646    -8038505.762 8  -6288488.220 9
 94  2  8 19 24  0.0040000  0  5 19 22 29 18 14
  25222799.130      985885.874 5  -1638841.511 2
  22509691.745   -13443383.315 8 -10495690.348 8
  22352813.349   -18983530.749 9  -7487399.578 9
  23935357.657    -9763127.532 6  -7186504.125 4
  21752614.129    -7981047.103 8  -6243715.266 9
 94  2  8 19 24 30.0040000  0  5 19 22 29 18 14
  25212075.014      929499.721 5  -1682778.701 2
  22516557.082   -13407292.763 8 -10467567.855 8
  22351575.356   -18990044.421 9  -7492475.191 9
  23926311.299    -9810668.739 6  -7223549.209 4
  21763666.607    -7922960.834 8  -6198453.281 9
 94  2  8 19 25  0.0040000  0  5 19 22 29 18 14
  25201388.522      873341.350 5  -1726538.346 2
  22523543.805   -13370572.336 8 -10438954.531 8
  22350378.795   -18996336.856 9  -7497378.387 9
  23917279.002    -9858131.631 6  -7260533.264 4
  21774839.123    -7864265.413 8  -6152716.606 9
 94  2  8 19 25 30.0040000  0  5 19 22 29 18 14
  25190740.763      817414.657 5  -1770117.472 2
  22530649.576   -13333236.364 8 -10409861.544 8
  22349219.317   -19002425.521 9  -7502122.797 9
  23908259.806    -9905533.542 6  -7297469.783 4
  21786120.912    -7804979.254 8  -6106519.612 9
 94  2  8 19 26  0.0040000  0  5 19 22 29 18 14
  25180145.558      761726.310 5  -1813510.883 2
  22537871.276   -13295290.617 8 -10380293.455 8
  22348100.822   -19008320.344 9  -7506716.189 9
  23899253.411    -9952879.022 7  -7334362.365 4
  21797508.529    -7745130.609 8  -6059884.326 9
 94  2  8 19 26 30.0040000  0  5 19 22 29 18 14
  25169589.026      706247.394 5  -1856741.102 2
  22545206.808   -13256745.936 8 -10350258.642 8
  22347004.870   -19014047.681 9  -7511179.057 9
  23890252.382   -10000173.406 7  -7371215.127 4
  21808999.154    -7684746.348 8  -6012831.695 9
 94  2  8 19 27  0.0040000  0  5 19 22 29 18 14
  25159068.619      650974.973 5  -1899810.476 2
  22552654.402   -13217585.377 8 -10319743.936 8
  22345946.873   -19019626.089 9  -7515525.893 9
  23881262.626   -10047397.680 7  -7408013.264 4
  21820588.891    -7623829.974 8  -5965364.424 9
 94  2  8 19 27 30.0040000  0  5 19 22 29 18 14
  25148588.624      595895.181 4  -1942729.682 2
  22560225.661   -13177809.484 8 -10288749.745 8
  22344912.769   -19025057.392 9  -7519758.070 9
  23872293.435   -10094547.673 7  -7444753.519 4
  21832283.734    -7562374.348 8  -5917476.944 9
 94  2  8 19 28  0.0040000  0  5 19 22 29 18 14
  25138137.470      540974.834 5  -1985524.708 2
  22567912.609   -13137424.486 8 -10257280.927 8
  22343906.096   -19030339.543 9  -7523874.048 9
  23863332.968   -10141623.948 7  -7481436.329 4
  21844082.786    -7500379.570 8  -5869169.378 9
 94  2  8 19 28 30.0040000  0  5 19 22 29 18 14
  25127715.275      486200.379 5  -2028206.039 2
  22575711.920   -13096431.668 8 -10225338.481 8
  22342929.702   -19035474.924 9  -7527875.661 9
  23854389.770   -10188636.742 7  -7518069.671 4
  21855987.575    -7437825.956 8  -5820426.329 9
 94  2  8 19 29  0.0040000  0  5 19 22 29 18 14
  25117315.205      431579.191 5  -2070767.942 2
  22583627.070   -13054845.491 8 -10192933.673 8
  22341983.976   -19040454.633 9  -7531755.942 9
  23845455.565   -10235591.907 7  -7554658.114 4
  21867998.520    -7374702.469 8  -5771239.215 9
 94  2  8 19 29 30.0040000  0  5 19 22 29 18 14
  25106963.131      377131.744 5  -2113194.469 2
  22591650.116   -13012678.335 8 -10160076.171 8
  22341071.258   -19045237.449 8  -7535482.822 9
  23836528.525   -10282494.192 7  -7591205.354 5
  21880119.309    -7311000.154 8  -5721601.091 9
 94  2  8 19 30  0.0040000  0  5 19 22 29 18 14
  25096636.870      322880.488 5  -2155468.168 2
  22599784.775   -12969930.168 8 -10126765.926 8
  22340203.299   -19049814.440 8  -7539049.316 9
  23827613.506   -10329346.951 7  -7627713.987 5
  21892350.511    -7246720.725 8  -5671513.257 9
 94  2  8 19 30 30.0040000  0  5 19 22 29 18 14
  25086355.158      268848.997 4  -2197570.601 2
  22608030.476   -12926592.367 8 -10092996.226 8
  22339368.287   -19054179.214 9  -7542450.437 9
  23818710.510   -10376129.094 7  -7664167.630 5
  21904694.855    -7181863.905 8  -5620975.514 9
 94  2  8 19 31  0.0040000  0  5 19 22 29 18 14
  25076111.669      215038.097 5  -2239501.081 2
  22616389.050   -12882678.711 8 -10058777.795 8
  22338580.493   -19058331.924 9  -7545686.324 9
  23809824.601   -10422823.325 7  -7700552.739 5
  21917140.349    -7116448.492 8  -5570002.486 9
 94  2  8 19 31 30.0040000  0  5 19 22 29 18 14
  25065912.370      161442.078 5  -2281264.250 2
  22624856.808   -12838178.614 8 -10024102.404 8
  22337827.534   -19062283.384 9  -7548765.368 9
  23800958.209   -10469416.450 7  -7736859.062 5
  21929693.379    -7050485.629 8  -5518602.873 9
 94  2  8 19 32  0.0050000  0  5 19 22 29 18 14
  25055751.324      108039.856 5  -2322876.352 2
  22633438.696   -12793084.068 8  -9988963.826 8
  22337108.452   -19066069.306 9  -7551715.458 9
  23792114.002   -10515899.475 7  -7773079.605 5
  21942348.069    -6983991.464 8  -5466789.292 9
 94  2  8 19 32 30.0050000  0  5 19 22 29 18 14
  25045634.588       54827.126 5  -2364340.806 2
  22642131.988   -12747389.204 8  -9953357.437 8
  22336420.098   -19069685.594 9  -7554533.348 9
  23783289.551   -10562262.047 7  -7809206.255 5
  21955102.469    -6916959.962 8  -5414556.984 9
 94  2  8 19 33  0.0050000  0  5 19 22 29 18 14
  25035537.608        1797.423 5  -2405662.592 2
  22650943.398   -12701085.397 8  -9917276.559 8
  22335765.561   -19073126.034 9  -7557214.224 9
  23774488.034   -10608522.212 7  -7845253.136 5
  21967960.687    -6849391.200 8  -5361906.048 9
 94  2  8 19 33 30.0050000  0  5 19 22 29 18 14
  25025477.892      -51063.549 5  -2446852.942 2
  22659868.879   -12654182.946 8  -9880729.215 8
  22335143.282   -19076400.174 9  -7559765.524 9
  23765700.578   -10654700.301 7  -7881236.059 5
  21980920.565    -6781294.610 8  -5308843.799 9
 94  2  8 19 34  0.0050000  0  5 19 22 29 18 14
  25015445.398     -103743.243 5  -2487902.043 2
  22668908.101   -12606686.273 8  -9843718.834 8
  22334557.278   -19079484.876 9  -7562169.200 9
  23756927.541   -10700797.013 7  -7917155.544 5
  21993982.013    -6712660.839 8  -5255362.977 9
 94  2  8 19 34 30.0050000  0  5 19 22 29 18 14
  25005465.516     -156225.546 5  -2528797.300 2
  22678062.324   -12558587.587 8  -9806239.350 8
  22334012.105   -19082349.288 9  -7564401.219 9
  23748170.664   -10746808.697 7  -7953008.778 5
  22007145.180    -6643473.958 8  -5201451.157 9
 94  2  8 19 35  0.0050000  0  5 19 22 29 18 14
  24995517.383     -208492.476 5  -2569524.744 2
  22687326.780   -12509889.207 8  -9768292.554 8
  22333510.732   -19084983.611 9  -7566453.946 9
  23739435.791   -10792716.787 7  -7988781.305 5
  22020419.361    -6573731.168 8  -5147106.163 9
 94  2  8 19 35 30.0050000  0  5 19 22 29 18 14
  24985619.106     -260526.791 5  -2610070.954 3
  22696708.666   -12460595.068 8  -9729881.569 8
  22333051.660   -19087392.633 8  -7568331.122 9
  23730723.222   -10838511.647 7  -8024465.599 5
  22033795.081    -6503424.435 8  -5092321.727 9
 94  2  8 19 36  0.0050000  0  5 19 22 29 18 14
  24975763.489     -312332.870 5  -2650439.284 3
  22706200.574   -12410706.313 8  -9691007.221 8
  22332635.398   -19089579.362 9  -7570035.055 9
  23722026.123   -10884206.971 7  -8060072.317 5
  22047282.324    -6432561.215 8  -5037103.673 9
 94  2  8 19 36 30.0050000  0  5 19 22 29 18 14
  24965946.425     -363905.392 5  -2690625.624 3
  22715807.034   -12360214.611 8  -9651663.076 8
  22332262.456   -19091543.279 8  -7571565.399 9
  23713346.112   -10929806.834 7  -8095604.697 5
  22060875.394    -6361139.079 8  -4981450.100 9
 94  2  8 19 37  0.0050000  0  5 19 22 29 18 14
  24956175.799     -415247.774 5  -2730632.649 3
  22725530.023   -12309132.581 8  -9611858.918 8
  22331926.689   -19093296.218 9  -7572931.327 9
  23704686.967   -10975315.776 7  -8131066.183 5
  22074569.703    -6289164.320 8  -4925365.924 9
 94  2  8 19 37 30.0050000  0  5 19 22 29 18 14
  24946449.752     -466349.770 5  -2770452.343 3
  22735364.265   -12257443.420 8  -9571581.679 8
  22331638.678   -19094824.225 8  -7574121.992 9
  23696047.188   -11020726.592 7  -8166451.239 5
  22088375.476    -6216621.980 8  -4868839.460 9
 94  2  8 19 38  0.0050000  0  5 19 22 29 18 14
  24936772.002     -517225.365 5  -2810095.593 3
  22745319.653   -12205146.729 8  -9530831.022 8
  22331390.900   -19096115.201 8  -7575127.951 9
  23687427.315   -11066029.870 7  -8201752.489 5
  22102289.353    -6143508.844 8  -4811868.219 9
 94  2  8 19 38 30.0050000  0  5 19 22 29 18 14
  24927135.263     -567881.944 5  -2849568.248 3
  22755384.525   -12152252.418 8  -9489614.711 8
  22331186.531   -19097184.148 8  -7575960.908 9
  23678826.300   -11111212.044 7  -8236959.364 6
  22116306.809    -6069832.468 8  -4754458.104 9
 94  2  8 19 39  0.0050000  0  5 19 22 29 18 14
  24917529.763     -618340.848 6  -2888886.855 3
  22765560.081   -12098772.407 8  -9447941.998 8
  22331024.224   -19098045.969 8  -7576632.454 9
  23670252.175   -11156268.966 7  -8272068.675 6
  22130432.071    -5995600.674 8  -4696615.182 9
 94  2  8 19 39 30.0050000  0  5 19 22 29 18 14
  24907959.339     -668613.186 5  -2928060.063 3
  22775850.847   -12044702.795 8  -9405809.867 8
  22330897.441   -19098705.220 8  -7577146.176 9
  23661699.456   -11201208.409 7  -8307086.440 5
  22144662.379    -5920829.027 8  -4638351.607 9
 94  2  8 19 40  0.0050000  0  5 19 22 29 18 14
  24898424.649     -718709.828 5  -2967096.370 3
  22786253.285   -11990042.827 8  -9363217.709 8
  22330808.613   -19099168.734 8  -7577507.375 9
  23653172.040   -11246032.454 7  -8342014.267 5
  22158989.551    -5845534.535 8  -4579680.612 9
 94  2  8 19 40 30.0050000  0  5 19 22 29 18 14
  24888929.892     -768620.623 6  -3005987.891 3
  22796764.159   -11934793.628 8  -9320166.420 8
  22330757.528   -19099437.288 8  -7577716.660 9
  23644664.499   -11290741.270 7  -8376852.318 5
  22173415.654    -5769724.547 8  -4520607.936 9
 94  2  8 19 41  0.0050000  0  5 19 22 29 18 14
  24879477.826     -818329.684 6  -3044722.163 3
  22807392.131   -11878946.434 8  -9276649.143 8
  22330751.143   -19099488.562 8  -7577756.609 9
  23636181.332   -11335338.448 7  -8411603.379 6
  22187944.855    -5693383.099 8  -4461121.121 9
 94  2  8 19 41 30.0050000  0  5 19 22 29 18 14
  24870055.379     -867820.882 5  -3083286.703 3
  22818134.354   -11822498.711 8  -9232663.929 8
  22330787.627   -19099294.446 8  -7577605.365 9
  23627712.375   -11379807.584 7  -8446254.662 6
  22202574.188    -5616500.567 8  -4401212.714 9
 94  2  8 19 42  0.0050000  0  5 19 22 29 18 14
  24860678.680     -917071.074 5  -3121663.481 3
  22828988.880   -11765449.125 8  -9188209.744 8
  22330875.437   -19098828.262 8  -7577242.127 9
  23619285.419   -11424113.541 7  -8480778.785 6
  22217313.274    -5539037.480 8  -4340851.901 9
 94  2  8 19 42 30.0050000  0  5 19 22 29 18 14
  24851352.467     -966069.728 5  -3159844.230 3
  22839959.035   -11707810.464 8  -9143296.528 8
  22331018.588   -19098079.743 8  -7576658.884 9
  23610882.896   -11468257.286 7  -8515176.509 6
  22232167.301    -5460979.864 8  -4280027.847 9
 94  2  8 19 43  0.0050000  0  5 19 22 29 18 14
  24842070.353    -1014830.684 5  -3197839.740 3
  22851040.084   -11649583.376 8  -9097924.814 8
  22331209.495   -19097064.061 8  -7575867.451 9
  23602512.121   -11512255.328 7  -8549460.719 6
  22247134.709    -5382340.926 8  -4218750.782 9
 94  2  8 19 43 30.0050000  0  5 19 22 29 18 14
  24832842.021    -1063329.110 5  -3235630.708 3
  22862237.063   -11590743.863 8  -9052075.866 8
  22331456.674   -19095774.069 8  -7574862.269 9
  23594169.526   -11556084.013 7  -8583612.942 6
  22262208.514    -5303115.139 8  -4157016.456 9
 94  2  8 19 44  0.0050000  0  5 19 22 29 18 14
  24823671.340    -1111558.607 5  -3273212.129 3
  22873552.039   -11531286.549 8  -9005745.515 8
  22331748.612   -19094235.517 8  -7573663.417 9
  23585858.020   -11599766.729 7  -8617651.422 6
  22277391.413    -5223316.849 8  -4094836.008 9
 94  2  8 19 44 30.0050000  0  5 19 22 29 18 14
  24814547.996    -1159518.886 5  -3310583.792 3
  22884983.755   -11471195.159 8  -8958921.094 8
  22332089.746   -19092452.350 8  -7572273.957 9
  23577570.168   -11643320.232 7  -8651589.229 6
  22292685.565    -5142963.485 8  -4032223.038 9
 94  2  8 19 45  0.0050000  0  5 19 22 29 18 14
  24805465.663    -1207229.608 5  -3347760.927 3
  22896539.765   -11410478.864 8  -8911609.717 8
  22332469.823   -19090443.690 8  -7570708.781 9
  23569305.849   -11686751.391 7  -8685431.675 6
  22308075.201    -5062087.815 8  -3969203.081 9
 94  2  8 19 45 30.0050000  0  5 19 22 29 18 14
  24796434.086    -1254693.787 6  -3384746.033 3
  22908207.898   -11349158.673 8  -8863827.783 8
  22332898.826   -19088192.129 8  -7568954.349 9
  23561067.073   -11730050.302 7  -8719171.101 6
  22323567.246    -4980681.700 8  -3905769.807 9
 94  2  8 19 46  0.0050000  0  5 19 22 29 18 14
  24787440.222    -1301921.103 5  -3421546.515 3
  22919988.392   -11287243.819 8  -8815582.472 8
  22333376.095   -19085676.558 8  -7566994.173 9
  23552854.618   -11773208.584 7  -8752800.918 6
  22339160.291    -4898735.848 8  -3841915.930 9
 94  2  8 19 46 30.0050000  0  5 19 22 29 18 14
  24778499.782    -1348934.127 6  -3458180.033 3
  22931879.300   -11224767.096 8  -8766899.349 8
  22333907.058   -19082895.880 8  -7564827.438 9
  23544667.796   -11816223.649 7  -8786319.148 6
  22354854.996    -4816265.002 8  -3777652.979 9
 94  2  8 19 47  0.0050000  0  5 19 22 29 18 14
  24769592.498    -1395737.697 6  -3494650.350 3
  22943871.298   -11161752.614 8  -8717797.183 8
  22334489.495   -19079854.993 8  -7562457.942 9
  23536509.454   -11859090.503 7  -8819721.896 6
  22370648.572    -4733270.004 8  -3712981.623 9
 94  2  8 19 47 30.0050000  0  5 19 22 29 18 14
  24760734.170    -1442329.917 6  -3530955.987 3
  22955961.958   -11098215.402 8  -8668287.708 8
  22335114.022   -19076559.120 8  -7559889.752 9
  23528380.431   -11901819.775 7  -8853017.441 6
  22386541.620    -4649739.691 8  -3647893.103 9
 94  2  8 19 48  0.0050000  0  5 19 22 29 18 14
  24751904.383    -1488703.434 6  -3567091.160 3
  22968155.297   -11034143.286 8  -8618361.434 8
  22335785.048   -19073033.870 8  -7557142.815 9
  23520272.754   -11944419.045 7  -8886211.670 6
  22402538.216    -4565680.231 8  -3582392.272 9
 94  2  8 19 48 30.0050000  0  5 19 22 29 18 14
  24743120.944    -1534863.319 6  -3603059.944 3
  22980450.805   -10969529.054 8  -8568012.706 8
  22336493.937   -19069294.992 8  -7554229.434 9
  23512187.741   -11986906.160 7  -8919318.528 6
  22418633.473    -4481101.508 8  -3516486.828 9
 94  2  8 19 49  0.0050000  0  5 19 22 29 18 14
  24734374.709    -1580815.525 6  -3638866.854 3
  22992848.872   -10904364.812 8  -8517235.393 8
  22337242.219   -19065358.001 8  -7551161.654 9
  23504121.795   -12029296.373 7  -8952349.866 6
  22434824.934    -4396019.941 8  -3450189.542 9
 94  2  8 19 49 30.0050000  0  5 19 22 29 18 14
  24725671.764    -1626555.252 5  -3674508.203 3
  23005361.340   -10838629.543 8  -8466013.168 8
  22338035.200   -19061208.399 8  -7547928.222 9
  23496074.406   -12071583.352 7  -8985300.782 6
  22451110.650    -4310432.706 8  -3383498.251 9
 94  2  8 19 50  0.0050000  0  5 19 22 29 18 14
  24716999.547    -1672101.675 5  -3709998.881 3
  23017978.555   -10772314.359 7  -8414339.055 8
  22338868.443   -19056831.052 8  -7544517.315 9
  23488047.673   -12113769.294 7  -9018172.935 6
  22467491.759    -4224355.443 8  -3316425.099 9
 94  2  8 19 50 30.0050000  0  5 19 22 29 18 14
  24708367.593    -1717469.277 5  -3745350.279 3
  23030702.377   -10705439.989 7  -8362229.223 8
  22339744.826   -19052213.995 8  -7540919.631 9
  23480038.208   -12155856.932 7  -9050968.516 6
  22483961.218    -4137808.226 8  -3248985.762 9
 94  2  8 19 51  0.0050000  0  5 19 22 29 18 14
  24699769.036    -1762658.058 5  -3780562.295 3
  23043536.731   -10638010.446 7  -8309686.770 8
  22340671.005   -19047352.270 8  -7537131.299 9
  23472052.096   -12197828.302 7  -9083673.487 6
  22500520.614    -4050785.979 8  -3181176.285 8
 94  2  8 19 51 30.0050000  0  5 19 22 29 18 14
  24691199.888    -1807683.616 5  -3815647.102 3
  23056469.478   -10570043.545 7  -8256725.589 8
  22341641.733   -19042244.121 8  -7533150.947 9
  23464086.701   -12239683.000 7  -9116287.531 6
  22517169.768    -3963283.620 8  -3112992.655 8
 94  2  8 19 52  0.0050000  0  5 19 22 29 18 14
  24682670.223    -1852531.618 5  -3850593.599 3
  23069505.204   -10501541.437 7  -8203347.377 8
  22342658.599   -19036899.082 8  -7528985.996 9
  23456143.490   -12281420.972 7  -9148810.621 6
  22533912.877    -3875306.856 8  -3044439.402 8
 94  2  8 19 52 30.0050000  0  5 19 22 29 18 14
  24674170.987    -1897197.800 6  -3885398.409 3
  23082641.780   -10432513.014 7  -8149559.036 8
  22343716.237   -19031347.277 8  -7524659.935 9
  23448222.194   -12323041.522 7  -9181242.236 6
  22550739.688    -3786867.460 8  -2975525.640 8
 94  2  8 19 53  0.0050000  0  5 19 22 29 18 14
  24665699.422    -1941684.127 5  -3920063.038 3
  23095873.839   -10362963.943 7  -8095364.998 8
  22344807.931   -19025602.951 8  -7520183.863 9
  23440327.429   -12364541.644 7  -9213579.971 6
  22567657.965    -3697962.606 8  -2906249.170 8
 94  2  8 19 53 30.0050000  0  5 19 22 29 18 14
  24657269.797    -1985992.362 6  -3954588.928 3
  23109201.832   -10292914.348 7  -8040780.957 8
  22345936.980   -19019682.625 8  -7515570.634 9
  23432448.793   -12405944.377 7  -9245841.850 6
  22584661.714    -3608614.573 8  -2836627.390 8
 94  2  8 19 54  0.0050000  0  5 19 22 29 18 14
  24648872.940    -2030122.948 6  -3988976.382 3
  23122632.894   -10222365.662 7  -7985807.991 7
  22347094.658   -19013593.512 8  -7510825.897 9
  23424587.695   -12447252.814 7  -9278030.239 6
  22601743.768    -3518838.363 8  -2766671.967 8
 94  2  8 19 54 30.0050000  0  5 19 22 29 18 14
  24640507.262    -2074075.452 6  -4023225.052 3
  23136147.418   -10151323.604 7  -7930450.571 7
  22348289.331   -19007310.959 8  -7505930.425 9
  23416749.022   -12488446.347 7  -9310129.094 6
  22618913.542    -3428615.607 8  -2696368.562 8
 94  2  8 19 55  0.0050000  0  5 19 22 29 18 14
  24632186.312    -2117834.650 6  -4057323.130 3
  23149760.574   -10079795.409 7  -7874714.367 7
  22349525.346   -19000815.060 8  -7500868.708 9
  23408930.675   -12529526.033 7  -9342139.223 6
  22636171.724    -3337934.811 8  -2625708.265 8
 94  2  8 19 55 30.0050000  0  5 19 22 29 18 14
  24623891.954    -2161406.017 6  -4091274.816 3
  23163466.306   -10007776.729 7  -7818595.948 7
  22350802.851   -18994096.598 8  -7495633.556 9
  23401131.933   -12570502.957 7  -9374069.294 6
  22653512.949    -3246805.442 8  -2554698.423 8
 94  2  8 19 56  0.0050000  0  5 19 22 29 18 14
  24615638.848    -2204788.365 6  -4125079.228 3
  23177265.273    -9935256.763 7  -7762086.931 7
  22352128.533   -18987129.611 8  -7490204.764 9
  23393359.484   -12611358.619 7  -9405904.888 6
  22670938.956    -3155218.577 8  -2483332.090 8
 94  2  8 19 56 30.0050000  0  5 19 22 29 18 14
  24607424.325    -2247988.834 6  -4158741.917 3
  23191158.795    -9862245.578 7  -7705195.125 7
  22353499.784   -18979921.308 8  -7484587.911 9
  23385600.376   -12652103.596 7  -9437654.203 6
  22688456.249    -3063176.341 8  -2411610.928 8
 94  2  8 19 57  0.0050000  0  5 19 22 29 18 14
  24599229.258    -2290998.648 6  -4192256.030 3
  23205153.467    -9788716.960 7  -7647900.141 7
  22354916.124   -18972471.720 8  -7478783.052 9
  23377872.506   -12692731.964 7  -9469312.668 6
  22706058.503    -2970677.151 8  -2339533.686 8
 94  2  8 19 57 30.0050000  0  5 19 22 29 18 14
  24591079.700    -2333823.371 6  -4225625.913 4
  23219244.881    -9714657.427 7  -7590191.442 7
  22356385.137   -18964765.167 8  -7472777.961 9
  23370168.259   -12733227.444 7  -9500867.567 6
  22723749.675    -2877712.305 8  -2267093.592 8
 94  2  8 19 58  0.0050000  0  5 19 22 29 18 14
  24582968.845    -2376438.494 6  -4258832.488 4
  23233438.645    -9640067.125 7  -7532069.168 7
  22357902.866   -18956796.370 8  -7466568.525 9
  23362491.504   -12773568.583 7  -9532302.224 6
  22741533.424    -2784259.170 7  -2194273.033 8
 94  2  8 19 58 30.0050000  0  5 19 22 29 18 14
  24574903.618    -2418840.012 6  -4291872.614 4
  23247732.690    -9564951.914 7  -7473537.873 7
  22359466.673   -18948580.488 8  -7460166.560 9
  23354841.969   -12813761.101 7  -9563621.079 6
  22759408.220    -2690315.346 7  -2121070.107 8
 94  2  8 19 59  0.0050000  0  5 19 22 29 18 14
  24566873.797    -2461025.223 6  -4324744.176 4
  23262127.794    -9489306.991 7  -7414593.810 7
  22361080.666   -18940094.802 8  -7453554.336 9
  23347224.783   -12853797.037 8  -9594817.910 6
  22777379.099    -2595889.079 8  -2047491.246 8
 94  2  8 19 59 30.0050000  0  5 19 22 29 18 14
  24558888.255    -2502998.115 6  -4357450.344 4
  23276619.102    -9413145.595 7  -7355247.316 7
  22362746.882   -18931334.676 8  -7446728.292 9
  23339638.295   -12893672.766 8  -9625889.921 6
  22795434.909    -2500989.486 8  -1973543.590 8
 94  2  8 20  0  0.0050000  0  6 19 22 28 29 18 14
  24550941.147    -2544765.124 6  -4389996.021 4
  23291213.179    -9336471.688 7  -7295501.453 7
  26592314.724      100912.31813   -776821.948 1
  22364461.605   -18922319.321 8  -7439703.355 9
  23332073.422   -12933402.951 8  -9656848.506 6
  22813583.205    -2405634.861 8  -1899241.341 8
 94  2  8 20  0 30.0050000  0  6 19 22 28 29 18 14
  24543025.697    -2586345.464 6  -4422396.255 4
  23305900.101    -9259288.166 7  -7235358.480 7
  26583710.380       55706.675 3   -812046.985 1
  22366222.916   -18913055.832 9  -7432485.065 9
  23324541.196   -12973001.988 8  -9687704.899 6
  22831809.507    -2309855.516 8  -1824608.129 8
 94  2  8 20  1  0.0050000  0  6 19 22 28 29 18 14
  24535155.965    -2627732.214 6  -4454645.679 4
  23320679.899    -9181596.605 7  -7174819.647 7
  26575105.048       10574.083 3   -847215.026 2
  22368037.560   -18903540.871 8  -7425070.830 9
  23317031.155   -13012465.907 8  -9718456.010 6
  22850113.246    -2213657.476 8  -1749648.690 8
 94  2  8 20  1 30.0050000  0  6 19 22 28 29 18 14
  24527317.142    -2668908.144 6  -4486730.775 4
  23335563.875    -9103392.426 7  -7113881.367 7
  26566543.245      -34474.112 3   -882317.294 2
  22369891.686   -18893789.440 9  -7417472.339 9
  23309547.376   -13051779.423 8  -9749089.928 6
  22868504.674    -2117020.056 8  -1674346.871 8
 94  2  8 20  2  0.0050000  0  6 19 22 28 29 18 14
  24519522.898    -2709881.166 6  -4518657.800 4
  23350538.209    -9024694.501 7  -7052558.355 7
  26557978.894      -79456.772 3   -917368.545 2
  22371793.779   -18883803.560 8  -7409691.163 9
  23302093.666   -13090957.167 8  -9779618.039 6
  22886979.864    -2019938.617 8  -1598699.052 8
 94  2  8 20  2 30.0050000  0  6 19 22 28 29 18 14
  24511758.812    -2750624.874 6  -4550406.152 4
  23365610.574    -8945491.303 7  -6990841.627 7
  26549421.078     -124363.932 3   -952360.932 2
  22373743.480   -18873552.918 9  -7401703.667 9
  23294671.075   -13129962.670 8  -9810011.950 7
  22905542.353    -1922382.425 8  -1522681.308 8
 94  2  8 20  3  0.0060000  0  6 19 22 28 29 18 14
  24504053.247    -2791154.962 6  -4581987.988 4
  23380776.415    -8865798.809 7  -6928743.614 7
  26540894.861     -169223.573 3   -987316.332 2
  22375739.558   -18863050.708 8  -7393520.155 9
  23287280.501   -13168806.462 8  -9840279.858 7
  22924196.009    -1824352.185 8  -1446294.181 8
 94  2  8 20  3 30.0060000  0  6 19 22 28 29 18 14
  24496378.920    -2831484.543 6  -4613413.602 4
  23396030.365    -8785638.867 7  -6866281.361 7
  26532369.543     -214033.988 3  -1022233.314 2
  22377787.530   -18852293.824 8  -7385138.191 9
  23279920.656   -13207486.443 8  -9870420.103 7
  22942939.963    -1725858.675 8  -1369546.053 8
 94  2  8 20  4  0.0060000  0  6 19 22 28 29 18 14
  24488739.099    -2871630.561 6  -4644696.206 4
  23411371.075    -8705024.845 7  -6803465.288 7
  26523853.248     -258789.465 4  -1057107.543 2
  22379886.977   -18841281.975 8  -7376557.546 9
  23272587.883   -13246013.375 8  -9900441.095 7
  22961766.720    -1626920.363 8  -1292451.316 7
 94  2  8 20  4 30.0060000  0  6 19 22 28 29 18 14
  24481136.182    -2911591.385 6  -4675834.495 4
  23426797.855    -8623953.846 7  -6740293.132 7
  26515348.047     -303480.811 4  -1091931.770 2
  22382027.375   -18830019.665 8  -7367781.742 9
  23265284.818   -13284379.708 7  -9930336.933 7
  22980675.260    -1527556.674 8  -1215025.135 8
 94  2  8 20  5  0.0060000  0  6 19 22 28 29 18 14
  24473567.112    -2951376.640 6  -4706835.975 4
  23442312.865    -8542426.733 7  -6676765.568 7
  26506859.483     -348099.965 5  -1126699.779 2
  22384222.695   -18818490.636 8  -7358798.104 9
  23258013.652   -13322593.720 7  -9960114.093 7
  22999661.536    -1427787.269 8  -1137282.812 8
 94  2  8 20  5 30.0060000  0  6 19 22 28 29 18 14
  24466030.450    -2990981.188 6  -4737696.663 4
  23457916.792    -8460431.681 7  -6612873.368 7
  26498383.031     -392618.486 4  -1161389.403 2
  22386468.740   -18806675.359 8  -7349591.407 9
  23250777.771   -13360643.633 7  -9989763.374 7
  23018724.948    -1327606.489 8  -1059219.945 7
 94  2  8 20  6  0.0060000  0  6 19 22 28 29 18 14
  24458522.507    -3030407.633 6  -4768418.555 4
  23473609.638    -8377951.236 7  -6548602.928 7
  26489929.004     -437029.273 4  -1195995.041 3
  22388771.776   -18794579.521 8  -7340166.099 9
  23243562.037   -13398544.774 7 -10019296.717 7
  23037865.348    -1227023.299 8   -980843.501 7
 94  2  8 20  6 30.0060000  0  6 19 22 28 29 18 14
  24451062.172    -3069650.599 6  -4798997.461 4
  23489399.527    -8294984.709 7  -6483953.712 7
  26481497.581     -481353.762 4  -1230533.435 3
  22391126.286   -18782192.678 8  -7330514.005 9
  23236376.821   -13436314.344 7 -10048727.536 7
  23057081.714    -1126037.609 8   -902153.397 7
 94  2  8 20  7  0.0060000  0  6 19 22 28 29 18 14
  24443628.398    -3108702.320 6  -4829427.334 4
  23505281.422    -8211523.964 7  -6418919.424 7
  26473078.659     -525594.449 5  -1265006.537 3
  22393540.125   -18769523.253 8  -7320641.750 9
  23229212.171   -13473949.775 7 -10078053.851 8
  23076379.865    -1024635.419 8   -823138.781 7
 94  2  8 20  7 30.0060000  0  6 19 22 28 29 18 14
  24436234.737    -3147559.280 6  -4859705.499 4
  23521252.985    -8127586.485 7  -6353513.658 7
  26464665.763     -569773.797 4  -1299431.844 3
  22395996.534   -18756608.517 8  -7310578.322 9
  23222071.954   -13511454.476 8 -10107278.282 8
  23095753.473     -922814.485 8   -743797.863 7
 94  2  8 20  8  0.0060000  0  6 19 22 28 29 18 14
  24428880.438    -3186195.247 6  -4889811.413 4
  23537322.251    -8043157.870 7  -6287725.166 7
  26456276.761     -613886.007 5  -1333804.858 2
  22398505.737   -18743431.955 8  -7300310.887 9
  23214963.485   -13548818.990 8 -10136393.473 8
  23115211.052     -820564.505 8   -664122.618 7
 94  2  8 20  8 30.0060000  0  6 19 22 28 29 18 14
  24421572.907    -3224603.835 6  -4919740.175 4
  23553477.737    -7958244.402 7  -6221558.883 7
  26447904.367     -657915.799 5  -1368113.634 2
  22401064.136   -18729978.582 8  -7289827.764 9
  23207888.893   -13586009.607 8 -10165373.181 8
  23134750.116     -717884.757 7   -584112.496 7
 94  2  8 20  9  0.0060000  0  6 19 22 28 29 18 14
  24414298.923    -3262788.357 6  -4949494.329 4
  23569731.045    -7872847.514 7  -6155015.870 7
  26439541.776     -701824.228 4  -1402327.887 2
  22403677.157   -18716245.789 8  -7279126.899 9
  23200853.363   -13622995.493 8 -10194193.341 8
  23154372.252     -614777.580 7   -503769.307 7
 94  2  8 20  9 30.0060000  0  6 19 22 28 29 18 14
  24407086.426    -3300732.358 6  -4979061.079 4
  23586071.233    -7786962.107 7  -6088092.217 7
  26431222.266     -745572.047 4  -1436416.940 2
  22406350.316   -18702192.273 8  -7268176.124 9
  23193855.938   -13659756.427 8 -10222838.225 8
  23174077.820     -511226.579 7   -423080.277 7
 94  2  8 20 10  0.0060000  0  6 19 22 28 29 18 14
  24399911.912    -3338425.643 6  -5008432.435 4
  23602514.609    -7700571.834 7  -6020775.189 7
  26422932.764     -789122.251 5  -1470352.064 2
  22409093.178   -18687784.499 8  -7256949.319 9
  23186905.789   -13696277.581 8 -10251296.252 8
  23193869.698     -407216.675 7   -342033.668 7
 94  2  8 20 10 30.0060000  0  6 19 22 28 29 18 14
  24392787.555    -3375866.204 6  -5037606.866 5
  23619046.005    -7613689.708 7  -5953074.848 7
  26414680.947     -832470.400 5  -1504129.759 2
  22411900.614   -18673037.012 8  -7245457.763 9
  23180006.455   -13732539.571 8 -10279552.342 8
  23213750.495     -302742.795 7   -260625.530 7
 94  2  8 20 11  0.0060000  0  6 19 22 28 29 18 14
  24385713.622    -3413021.005 6  -5066558.644 5
  23635673.154    -7526301.594 7  -5884980.253 7
  26406481.024     -875620.035 5  -1537752.706 2
  22414774.724   -18657945.167 8  -7233697.907 9
  23173154.999   -13768540.530 8 -10307605.023 8
  23233723.718     -197779.921 7   -178836.321 7
 94  2  8 20 11 30.0060000  0  6 19 22 28 29 18 14
  24378706.453    -3449880.012 6  -5095279.945 5
  23652403.192    -7438392.473 7  -5816479.678 7
  26398298.099     -918593.716 4  -1571238.592 2
  22417707.924   -18642521.915 8  -7221679.810 9
  23166351.389   -13804290.720 9 -10335462.330 8
  23253793.054      -92329.223 7    -96667.017 7
 94  2  8 20 12  0.0060000  0  6 19 22 28 29 18 14
  24371741.255    -3486450.926 6  -5123776.729 5
  23669232.132    -7349954.785 7  -5747567.246 6
  26390151.478     -961405.349 5  -1604598.246 2
  22420700.602   -18626786.685 8  -7209418.602 9
  23159593.197   -13839798.556 9 -10363130.772 8
  23273947.651       13587.744 7    -14134.401 7
 94  2  8 20 12 30.0060000  0  6 19 22 28 29 18 14
  24364832.687    -3522746.874 6  -5152059.285 5
  23686161.951    -7260996.156 7  -5678248.880 6
  26382030.700    -1004069.873 5  -1637843.239 2
  22423751.620   -18610753.706 8  -7196925.389 9
  23152884.981   -13875064.735 9 -10390610.920 8
  23294186.640      119944.296 7     68740.771 7
 94  2  8 20 13  0.0060000  0  6 19 22 28 29 18 14
  24357973.556    -3558797.569 6  -5180150.694 5
  23703187.015    -7171523.685 7  -5608530.099 6
  26373934.745    -1046602.706 5  -1670985.592 2
  22426860.378   -18594417.674 8  -7184196.033 9
  23146212.770   -13910113.047 9 -10417921.299 8
  23314503.425      226713.046 7    151937.143 7
 94  2  8 20 13 30.0060000  0  6 19 22 28 29 18 14
  24351160.802    -3594627.436 6  -5208070.071 5
  23720310.021    -7081538.339 7  -5538411.709 6
  26365865.141    -1088979.843 5  -1704006.667 2
  22430031.013   -18577763.259 8  -7171218.576 9
  23139588.406   -13944932.994 9 -10445053.731 8
  23334898.366      333894.345 8    235454.938 7
 94  2  8 20 14  0.0060000  0  6 19 22 28 29 18 14
  24344382.735    -3630247.374 6  -5235825.862 5
  23737527.761    -6991066.037 7  -5467913.846 6
  26357838.078    -1131184.856 5  -1736893.573 2
  22433260.857   -18560779.576 8  -7157984.551 9
  23133005.743   -13979518.273 9 -10472003.277 8
  23355375.030      441491.091 8    319296.504 7
 94  2  8 20 14 30.0060000  0  6 19 22 28 29 18 14
  24337640.252    -3665656.803 6  -5263417.592 5
  23754833.791    -6900125.486 7  -5397051.135 6
  26349843.003    -1173216.516 5  -1769645.426 2
  22436557.524   -18543460.025 8  -7144488.821 9
  23126471.677   -14013862.516 8 -10498765.033 8
  23375931.769      549514.392 8    403470.434 7
 94  2  8 20 15  0.0060000  0  6 19 22 28 29 18 14
  24330949.334    -3700823.209 6  -5290819.987 5
  23772232.876    -6808703.075 7  -5325812.937 6
  26341883.154    -1215046.219 5  -1802239.916 2
  22439923.624   -18525778.426 8  -7130710.968 9
  23119979.971   -14047966.348 8 -10525339.445 8
  23396572.210      657985.797 8    487993.545 7
 94  2  8 20 15 30.0060000  0  6 19 22 28 29 18 14
  24324305.784    -3735743.370 6  -5318030.498 5
  23789716.562    -6716812.416 7  -5254209.876 6
  26333959.789    -1256665.373 4  -1834670.344 2
  22443350.162   -18507761.823 8  -7116672.072 9
  23113534.733   -14081843.694 8 -10551737.368 8
  23417297.013      766900.799 7    572862.304 7
 94  2  8 20 16  0.0060000  0  7 19 22 28 27 29 18 14
  24317706.182    -3770401.075 6  -5345036.493 5
  23807291.595    -6624446.508 7  -5182236.492 6
  26326085.530    -1298079.623 5  -1866941.120 2
  26806230.733      406441.61614   -217369.656 1
  22446843.104   -18489405.554 8  -7102368.512 9
  23107130.297   -14115504.693 8 -10577966.721 8
  23438107.496      876245.483 7    658065.888 7
 94  2  8 20 16 30.0060000  0  7 19 22 28 27 29 18 14
  24311161.533    -3804800.386 6  -5371841.145 5
  23824963.161    -6531591.636 7  -5109882.103 6
  26318243.079    -1339297.996 4  -1899059.225 2
  26795594.126      350476.917 4   -260978.484 1
  22450404.998   -18470696.097 8  -7087789.748 9
  23100766.512   -14148950.179 8 -10604028.130 8
  23458995.625      986011.248 7    743597.566 7
 94  2  8 20 17  0.0060000  0  7 19 22 28 27 29 18 14
  24304661.523    -3838952.928 6  -5398453.483 5
  23842725.385    -6438248.695 7  -5037147.378 6
  26310423.743    -1380321.309 4  -1931025.371 2
  26784959.199      294594.782 4   -304522.914 1
  22454032.757   -18451638.911 8  -7072940.013 9
  23094441.221   -14182182.241 8 -10629923.230 8
  23479954.716     1096181.829 7    829444.699 6
 94  2  8 20 17 30.0060000  0  7 19 22 28 27 29 18 14
  24298209.809    -3872866.909 6  -5424879.953 5
  23860579.824    -6344410.519 7  -4964026.781 6
  26302662.056    -1421138.754 4  -1962831.115 2
  26774336.982      238820.258 4   -347983.515 1
  22457726.290   -18432217.755 8  -7057806.656 9
  23088166.805   -14215157.218 8 -10655618.011 8
  23501004.133     1206772.342 7    915619.062 6
 94  2  8 20 18  0.0060000  0  7 19 22 28 27 29 18 14
  24291798.298    -3906534.764 6  -5451114.615 5
  23878534.455    -6250073.569 7  -4890517.527 6
  26294931.638    -1461742.298 4  -1994470.135 2
  26763749.842      183174.587 4   -391343.756 1
  22461496.839   -18412404.098 8  -7042367.465 9
  23081945.122   -14247853.618 8 -10681095.715 8
  23522129.549     1317789.248 8   1002125.668 6
 94  2  8 20 18 30.0060000  0  7 19 22 28 27 29 18 14
  24285440.449    -3939972.536 6  -5477170.019 5
  23896574.286    -6155280.149 7  -4816652.565 6
  26287259.079    -1502137.246 4  -2025946.604 2
  26753183.656      127654.836 4   -434605.847 1
  22465337.930   -18392230.828 8  -7026648.053 9
  23075777.192   -14280274.771 8 -10706358.946 8
  23543330.631     1429212.437 7   1088948.836 6
 94  2  8 20 19  0.0060000  0  7 19 22 28 27 29 18 14
  24279120.495    -3973187.791 6  -5503052.031 6
  23914691.164    -6060061.292 7  -4742456.100 6
  26279602.230    -1542327.100 4  -2057263.263 2
  26742636.268       72258.176 4   -477772.144 1
  22469239.579   -18371741.595 8  -7010682.440 9
  23069650.963   -14312440.345 7 -10731423.026 8
  23564609.960     1541020.867 7   1176072.215 6
 94  2  8 20 19 30.0060000  0  7 19 22 28 27 29 18 14
  24272836.005    -4006189.180 6  -5528767.378 6
  23932891.894    -5964433.639 7  -4667941.084 6
  26271995.296    -1582309.950 4  -2088418.607 2
  26732120.448       16983.378 3   -520843.230 1
  22473192.672   -18350950.816 8  -6994481.847 9
  23063575.339   -14344376.035 8 -10756307.938 8
  23585955.843     1653202.892 7   1263486.722 6
 94  2  8 20 20  0.0060000  0  7 19 22 28 27 29 18 14
  24266607.637    -4038940.701 6  -5554288.030 6
  23951165.803    -5868366.051 7  -4593083.264 6
  26264436.869    -1622066.945 5  -2119397.992 2
  26721641.892      -38159.906 3   -563812.034 1
  22477205.994   -18329846.979 8  -6978037.315 9
  23057546.453   -14376073.522 8 -10781007.278 9
  23607373.106     1765770.836 7   1351201.912 6
 94  2  8 20 20 30.0060000  0  7 19 22 28 27 29 18 14
  24260423.278    -4071436.710 6  -5579609.613 6
  23969534.836    -5771860.215 7  -4517883.976 6
  26256910.879    -1661603.211 5  -2150205.400 2
  26711171.851      -93178.963 3   -606684.035 1
  22481282.092   -18308430.460 8  -6961349.140 9
  23051559.088   -14407527.946 8 -10805517.216 9
  23628875.870     1878718.259 7   1439212.783 6
 94  2  8 20 21  0.0060000  0  7 19 22 28 27 29 18 14
  24254288.715    -4103687.355 6  -5604739.961 6
  23987984.694    -5674901.520 7  -4442331.782 6
  26249413.519    -1700931.231 4  -2180850.435 2
  26700720.396     -148078.296 3   -649462.644 1
  22485420.337   -18286680.837 8  -6944401.389 9
  23045617.621   -14438742.160 8 -10829839.964 9
  23650440.751     1992054.104 7   1527526.351 6
 94  2  8 20 21 30.0060000  0  7 19 22 28 27 29 18 14
  24248200.830    -4135681.592 6  -5629670.544 6
  24006524.099    -5577479.576 7  -4366418.615 6
  26241975.728    -1740042.941 5  -2211326.984 2
  26690304.107     -202845.225 3   -692138.100 1
  22489628.494   -18264557.786 8  -6927162.656 9
  23039727.838   -14469695.317 9 -10853959.290 9
  23672080.430     2105790.529 7   1616152.065 6
 94  2  8 20 22  0.0060000  0  7 19 22 28 27 29 18 14
  24242161.361    -4167414.375 6  -5654397.395 6
  24025149.155    -5479597.905 7  -4290147.223 6
  26234576.041    -1778945.409 4  -2241640.459 2
  26679910.602     -257476.643 3   -734708.031 2
  22493916.096   -18242048.038 8  -6909622.596 9
  23033893.727   -14500368.497 8 -10877860.461 9
  23693803.661     2219932.772 7   1705093.954 6
 94  2  8 20 22 30.0060000  0  7 19 22 28 27 29 18 14
  24236170.488    -4198898.422 7  -5678930.437 6
  24043862.950    -5381272.740 7  -4213530.254 6
  26227215.926    -1817634.015 5  -2271787.295 2
  26669523.603     -311968.262 3   -777168.975 2
  22498273.010   -18219147.758 8  -6891778.272 9
  23028108.392   -14530765.709 8 -10901546.621 9
  23715602.200     2334485.512 7   1794355.732 6
 94  2  8 20 23  0.0060000  0  7 19 22 28 27 29 18 14
  24230219.668    -4230153.561 7  -5703285.102 6
  24062658.498    -5282498.674 7  -4136563.496 6
  26219890.108    -1856097.305 4  -2301758.633 2
  26659184.061     -366319.140 3   -819520.222 2
  22502700.315   -18195880.714 8  -6873648.118 9
  23022373.273   -14560906.059 8 -10925032.611 9
  23737482.103     2449449.294 7   1883937.820 6
 94  2  8 20 23 30.0060000  0  7 19 22 28 27 29 18 14
  24224314.596    -4261182.557 7  -5727463.552 6
  24081538.078    -5183283.302 7  -4059252.866 6
  26212620.051    -1894327.296 4  -2331548.118 2
  26648870.211     -420544.226 3   -861773.516 2
  22507191.955   -18172271.334 8  -6855251.228 9
  23016684.531   -14590800.314 8 -10948326.819 9
  23759430.628     2564814.512 7   1973832.698 6
 94  2  8 20 24  0.0060000  0  7 19 22 28 27 29 18 14
  24218448.887    -4292007.764 7  -5751483.210 5
  24100500.071    -5083627.832 7  -3981599.314 6
  26205378.624    -1932339.948 4  -2361168.274 2
  26638572.760     -474665.203 3   -903945.642 2
  22511744.424   -18148352.087 8  -6836612.882 9
  23011039.469   -14620461.737 8 -10971439.628 9
  23781460.038     2680560.096 7   2064023.958 6
 94  2  8 20 24 30.0060000  0  7 19 22 28 27 29 18 14
  24212627.067    -4322642.416 7  -5775354.363 5
  24119547.775    -4983539.379 7  -3903608.329 6
  26198180.577    -1970145.643 4  -2390627.178 2
  26628278.726     -528699.005 3   -946049.810 2
  22516354.872   -18124140.444 8  -6817746.662 9
  23005435.329   -14649904.963 8 -10994382.374 9
  23803546.468     2796663.405 7   2154494.004 6
 94  2  8 20 25  0.0060000  0  7 19 22 28 27 29 18 14
  24206828.331    -4353086.263 7  -5799076.867 5
  24138675.553    -4883029.418 7  -3825288.945 6
  26191043.208    -2007743.590 4  -2419924.243 2
  26618020.158     -582661.990 3   -988098.818 2
  22521016.795   -18099636.617 8  -6798652.809 9
  22999875.408   -14679132.055 8 -11017156.757 9
  23825709.195     2913102.718 7   2245225.836 6
 94  2  8 20 25 30.0060000  0  8 19 22 28 31 27 29 18 14
  24201075.644    -4383315.942 6  -5822632.462 5
  24157878.099    -4782112.033 7  -3746652.071 6
  26183930.212    -2045138.352 4  -2449062.979 2
  26623558.284    -2146106.93914  -2366963.754 2
  26607754.335     -636552.699 4  -1030091.583 2
  22525739.905   -18074810.827 8  -6779308.044 9
  22994361.415   -14708118.821 8 -11039743.831 9
  23847927.263     3029859.931 7   2336205.411 6
 94  2  8 20 26  0.0060000  0  8 19 22 28 31 27 29 18 14
  24195363.219    -4413322.402 6  -5846014.124 6
  24177160.300    -4680797.461 7  -3667705.709 6
  26176840.331    -2082318.402 4  -2478034.358 2
  26612335.254    -2205068.152 4  -2412907.339 2
  26597524.787     -690343.284 3  -1072006.257 2
  22530527.890   -18049640.106 8  -6759694.513 9
  22988891.881   -14736847.339 8 -11062129.680 9
  23870203.072     3146926.118 7   2427425.701 6
 94  2  8 20 26 30.0060000  0  8 19 22 28 31 27 29 18 14
  24189698.460    -4443089.522 6  -5869209.280 6
  24196511.274    -4579098.979 7  -3588460.196 6
  26169805.760    -2119264.459 3  -2506823.453 2
  26601108.476    -2264064.608 4  -2458878.369 2
  26587310.288     -744027.931 3  -1113838.442 2
  22535391.303   -18024103.315 8  -6739795.740 9
  22983471.963   -14765320.554 8 -11084316.598 9
  23892538.030     3264308.416 7   2518892.330 6
 94  2  8 20 27  0.0060000  0  8 19 22 28 31 27 29 18 14
  24184082.958    -4472622.141 6  -5892221.716 6
  24215932.879    -4477031.420 7  -3508927.084 6
  26162819.517    -2155977.846 3  -2535431.214 2
  26589872.015    -2323096.308 3  -2504876.814 2
  26577102.475     -797610.968 4  -1155591.406 2
  22540318.092   -17998199.460 8  -6719610.940 9
  22978101.032   -14793540.898 8 -11106306.466 9
  23914937.563     3381995.737 7   2610596.638 6
 94  2  8 20 27 30.0060000  0  8 19 22 28 31 27 29 18 14
  24178507.897    -4501920.446 6  -5915051.527 6
  24235430.840    -4374586.634 7  -3429100.015 6
  26155888.345    -2192460.777 3  -2563859.319 2
  26578626.200    -2382171.899 3  -2550909.505 2
  26566947.905     -851076.819 4  -1197253.050 2
  22545318.421   -17971928.073 8  -6699139.747 9
  22972781.095   -14821505.895 8 -11128097.354 9
  23937387.581     3500000.610 7   2702548.413 6
 94  2  8 20 28  0.0060000  0  8 19 22 28 31 27 29 18 14
  24172974.868    -4530994.440 7  -5937706.584 6
  24254997.065    -4271743.141 7  -3348962.288 6
  26148981.936    -2228702.240 4  -2592099.397 2
  26567390.908    -2441301.427 3  -2596984.181 2
  26556784.970     -904422.597 3  -1238821.147 2
  22550384.434   -17945291.859 8  -6678384.277 9
  22967509.754   -14849216.205 8 -11149689.793 9
  23959915.606     3618350.510 7   2794769.016 6
 94  2  8 20 28 30.0060000  0  8 19 22 28 31 27 29 18 14
  24167482.820    -4559848.738 7  -5960190.441 6
  24274644.383    -4168499.899 7  -3268513.059 6
  26142138.304    -2264708.589 4  -2620156.240 2
  26556118.022    -2500477.939 4  -2643095.537 2
  26546653.484     -957669.046 4  -1280311.836 2
  22555521.467   -17918307.255 8  -6657357.319 9
  22962280.684   -14876681.478 9 -11171091.292 9
  23982495.224     3737044.592 7   2887257.811 6
 94  2  8 20 29  0.0060000  0  8 19 22 28 31 27 29 18 14
  24162031.034    -4588482.677 7  -5982502.588 6
  24294372.196    -4064848.447 7  -3187745.737 6
  26135328.668    -2300465.510 4  -2648018.707 2
  26544843.637    -2559688.248 4  -2689233.181 2
  26536539.866    -1010789.681 4  -1321704.516 2
  22560721.997   -17890978.128 8  -6636061.933 9
  22957107.345   -14903879.059 8 -11192284.217 9
  24005157.315     3856093.513 7   2980023.098 6
 94  2  8 20 29 30.0060000  0  8 19 22 28 31 27 29 18 14
  24156627.185    -4616906.139 7  -6004650.717 6
  24314168.721    -3960798.501 7  -3106667.908 6
  26128572.306    -2335968.649 5  -2675683.422 2
  26533567.813    -2618937.529 4  -2735401.235 2
  26526459.224    -1063789.287 4  -1363002.890 2
  22565984.344   -17863324.663 8  -6614513.788 9
  22951980.714   -14930815.643 8 -11213273.743 9
  24027872.980     3975502.729 7   3073069.155 6
 94  2  8 20 30  0.0060000  0  8 19 22 28 31 27 29 18 14
  24151252.746    -4645131.355 7  -6026644.351 6
  24334041.274    -3856376.669 7  -3025300.290 6
  26121866.578    -2371221.309 5  -2703152.987 2
  26522290.071    -2678217.646 5  -2781593.297 2
  26516396.391    -1116685.271 4  -1404220.505 2
  22571304.371   -17835362.859 8  -6592725.389 9
  22946904.569   -14957498.172 8 -11234065.311 9
  24050668.808     4095259.808 7   3166386.267 6
 94  2  8 20 30 30.0060000  0  8 19 22 28 31 27 29 18 14
  24145921.267    -4673143.730 7  -6048472.155 6
  24353977.112    -3751600.163 7  -2943656.325 6
  26115208.637    -2406210.848 5  -2730417.442 2
  26511012.448    -2737524.429 5  -2827806.214 3
  26506352.714    -1169462.341 4  -1445345.481 2
  22576686.125   -17807089.712 8  -6570694.396 9
  22941874.950   -14983930.283 8 -11254661.755 9
  24073513.593     4215350.842 6   3259963.574 6
 94  2  8 20 31  0.0060000  0  8 19 22 28 31 27 29 18 14
  24140626.662    -4700958.746 7  -6070146.148 6
  24373983.612    -3646481.743 7  -2861745.921 6
  26108593.057    -2440952.251 5  -2757488.559 3
  26499708.564    -2796886.215 5  -2874061.940 3
  26496325.526    -1222135.053 5  -1486389.094 2
  22582124.810   -17778505.265 8  -6548420.794 9
  22936888.503   -15010126.622 9 -11275074.481 9
  24096431.018     4335753.615 7   3353783.810 6
 94  2  8 20 31 30.0060000  0  8 19 22 28 31 27 29 18 14
  24135373.189    -4728578.637 7  -6091668.120 6
  24394049.411    -3541029.534 7  -2779575.411 6
  26102027.602    -2475458.789 5  -2784376.701 3
  26488405.099    -2856311.905 5  -2920367.489 3
  26486319.143    -1274730.420 5  -1527372.489 2
  22587623.604   -17749601.179 8  -6525898.151 9
  22931943.696   -15036096.060 9 -11295310.400 9
  24119397.099     4456455.838 7   3447837.393 6
 94  2  8 20 32  0.0060000  0  8 19 22 28 31 27 29 18 14
  24130155.001    -4756002.306 7  -6113037.173 6
  24414177.087    -3435246.760 7  -2697147.336 6
  26095507.806    -2509732.744 5  -2811083.650 3
  26477082.447    -2915803.665 5  -2966724.516 3
  26476321.754    -1327244.637 4  -1568292.612 2
  22593188.471   -17720357.415 8  -6503110.811 9
  22927048.774   -15061835.821 9 -11315367.352 9
  24142415.344     4577433.832 7   3542105.846 6
 94  2  8 20 32 30.0060000  0  8 19 22 28 31 27 29 18 14
  24124978.785    -4783214.524 7  -6134241.491 6
  24434376.653    -3329116.280 6  -2614448.320 6
  26089034.118    -2543767.499 5  -2837604.220 3
  26465752.541    -2975353.741 5  -3013126.980 3
  26466352.455    -1379676.831 5  -1609148.800 2
  22598819.503   -17690760.045 8  -6480047.940 9
  22922195.045   -15087336.585 9 -11335238.071 9
  24165490.519     4698672.222 7   3636577.208 6
 94  2  8 20 33  0.0060000  0  8 19 22 28 31 27 29 18 14
  24119840.732    -4810213.907 7  -6155279.926 6
  24454637.587    -3222617.614 6  -2531462.402 6
  26082600.122    -2577554.933 5  -2863932.068 3
  26454416.519    -3034921.964 5  -3059543.581 3
  26456392.151    -1432022.011 5  -1649937.227 2
  22604522.545   -17660794.486 8  -6456698.167 9
  22917393.898   -15112561.926 9 -11354894.170 9
  24188616.389     4820192.535 7   3731268.248 5
 94  2  8 20 33 30.0060000  0  8 19 22 28 31 27 29 18 14
  24114738.924    -4837010.963 7  -6176160.728 6
  24474975.237    -3115760.911 6  -2448197.490 6
  26076227.913    -2611092.571 5  -2890065.281 3
  26443088.741    -3094492.710 5  -3105962.157 3
  26446443.238    -1484285.077 5  -1690661.669 2
  22610296.278   -17630475.830 8  -6433073.238 9
  22912647.104   -15137510.371 8 -11374334.500 9
  24211795.503     4941995.344 7   3826179.419 5
 94  2  8 20 34  0.0070000  0  8 19 22 28 31 27 29 18 14
  24109679.896    -4863595.089 7  -6196875.590 6
  24495379.861    -3008526.554 6  -2364638.313 6
  26069884.604    -2644372.893 5  -2915997.944 3
  26431744.474    -3154067.323 5  -3152383.779 3
  26436515.071    -1536459.624 5  -1731317.129 2
  22616129.609   -17599807.899 8  -6409176.162 9
  22907952.055   -15162175.008 8 -11393553.689 9
  24235026.900     5064079.641 7   3921309.943 5
 94  2  8 20 34 30.0070000  0  8 19 22 28 31 27 29 18 14
  24104664.938    -4889958.263 7  -6217418.296 6
  24515859.703    -2900904.730 6  -2280777.208 6
  26063607.190    -2677380.163 5  -2941717.881 3
  26420409.711    -3213618.103 5  -3198786.816 3
  26426605.222    -1588537.071 5  -1771896.938 2
  22622032.763   -17568789.414 8  -6385005.929 9
  22903313.936   -15186544.016 8 -11412542.523 9
  24258317.836     5186455.958 6   4016667.987 5
 94  2  8 20 35  0.0070000  0  8 19 22 28 31 27 29 18 14
  24099685.625    -4916114.366 7  -6237799.652 6
  24536414.614    -2792897.003 6  -2196615.393 6
  26057381.850    -2710107.078 5  -2967219.311 3
  26409083.192    -3273141.974 5  -3245168.887 3
  26416708.503    -1640513.076 4  -1812397.638 2
  22628004.598   -17537407.905 8  -6360552.815 9
  22898737.244   -15210614.714 8 -11431298.902 9
  24281660.067     5309140.617 7   4112266.322 5
 94  2  8 20 35 30.0070000  0  8 19 22 28 31 27 29 18 14
  24094750.082    -4942057.554 7  -6258015.078 6
  24557038.146    -2684515.695 6  -2112162.492 6
  26051199.350    -2742553.110 5  -2992501.875 3
  26397760.751    -3332652.639 6  -3291540.706 3
  26406839.755    -1692383.343 4  -1852816.004 2
  22634044.457   -17505668.846 8  -6335821.092 9
  22894209.329   -15234403.376 8 -11449835.514 9
  24305065.853     5432113.021 7   4208088.870 5
 94  2  8 20 36  0.0070000  0  8 19 22 28 31 27 29 18 14
  24089851.563    -4967790.581 7  -6278066.782 6
  24577734.409    -2575777.417 6  -2027431.459 6
  26045080.826    -2774729.084 5  -3017574.043 3
  26386435.101    -3392166.186 6  -3337914.761 2
  26396988.185    -1744150.999 4  -1893154.411 2
  22640150.720   -17473578.964 8  -6310816.004 9
  22889731.988   -15257920.759 8 -11468160.742 9
  24328510.253     5555346.677 7   4304114.967 5
 94  2  8 20 36 30.0070000  0  8 19 22 28 31 27 29 18 14
  24084987.850    -4993342.365 7  -6297977.229 6
  24598483.254    -2466716.173 6  -1942448.727 6
  26039008.230    -2806648.777 5  -3042446.492 3
  26375107.593    -3451682.995 6  -3384291.360 2
  26387150.016    -1795826.056 4  -1933420.592 2
  22646320.598   -17441149.540 8  -6285546.333 9
  22885308.850   -15281183.522 9 -11486287.551 9
  24352006.307     5678827.204 7   4400333.445 5
 94  2  8 20 37  0.0070000  0  8 19 22 28 31 27 29 18 14
  24080168.146    -5018704.941 7  -6317740.228 6
  24619297.395    -2357344.149 6  -1857223.830 6
  26032987.258    -2838311.650 5  -3067118.818 3
  26363785.241    -3511207.021 5  -3430673.583 2
  26377342.486    -1847395.509 4  -1973604.573 2
  22652557.481   -17408385.615 8  -6260016.008 9
  22880929.992   -15304178.942 9 -11504206.036 9
  24375552.276     5802559.002 7   4496747.732 5
 94  2  8 20 37 30.0070000  0  8 19 22 28 31 27 29 18 14
  24075372.337    -5043863.531 7  -6337344.318 6
  24640164.689    -2247672.470 6  -1771765.444 6
  26027012.274    -2869710.058 5  -3091585.067 3
  26352451.288    -3570735.360 5  -3477059.150 2
  26367550.994    -1898853.691 4  -2013701.819 2
  22658852.193   -17375290.036 8  -6234227.269 9
  22876607.404   -15326900.959 8 -11521911.486 9
  24399148.641     5926542.290 7   4593357.969 6
 94  2  8 20 38  0.0070000  0  8 19 22 28 31 27 29 18 14
  24070623.024    -5068812.679 7  -6356785.193 6
  24661097.068    -2137688.903 7  -1686063.999 6
  26021088.016    -2900822.735 5  -3115828.679 3
  26341127.677    -3630249.053 5  -3523433.374 2
  26357780.878    -1950200.547 4  -2053712.287 2
  22665218.766   -17341838.185 8  -6208160.924 9
  22872338.659   -15349325.570 8 -11539385.202 9
  24422792.463     6050796.827 6   4690179.568 6
 94  2  8 20 38 30.0070000  0  8 19 22 28 31 27 29 18 14
  24065920.840    -5093558.643 7  -6376067.762 6
  24682087.996    -2027393.789 7  -1600119.792 6
  26015221.227    -2931643.947 5  -3139845.149 3
  26329807.993    -3689728.042 6  -3569780.533 2
  26348035.914    -2001441.007 4  -2093639.874 2
  22671654.560   -17308020.264 8  -6181809.303 9
  22868132.631   -15371443.330 8 -11556619.788 9
  24446492.915     6175341.374 6   4787227.136 6
 94  2  8 20 39  0.0070000  0  8 19 22 28 31 27 29 18 14
  24061250.073    -5118098.856 7  -6395189.985 6
  24703131.808    -1916795.049 7  -1513939.009 6
  26009408.851    -2962167.792 5  -3163629.925 3
  26318498.623    -3749179.280 5  -3616106.111 2
  26338291.910    -2052591.928 3  -2133497.708 2
  22678160.476   -17273832.052 7  -6155169.162 9
  22863978.107   -15393263.471 9 -11573622.487 9
  24470245.981     6300163.668 6   4884491.142 6
 94  2  8 20 39 30.0070000  0  8 19 22 28 31 27 29 18 14
  24056595.975    -5142557.722 7  -6414248.811 6
  24724214.173    -1806004.904 7  -1427609.060 6
  26003637.816    -2992503.015 5  -3187267.717 3
  26307171.174    -3808720.424 5  -3662501.719 2
  26328553.781    -2103792.482 4  -2173394.176 2
  22684715.588   -17239391.977 8  -6128332.740 9
  22859858.359   -15414923.625 9 -11590500.499 9
  24494027.228     6425130.332 7   4981867.654 6
 94  2  8 20 40  0.0070000  0  8 19 22 28 31 27 29 18 14
  24051932.314    -5167053.693 7  -6433336.539 6
  24745317.883    -1695105.634 7  -1341194.099 6
  25997888.306    -3022757.727 5  -3210842.728 3
  26295797.498    -3868451.613 5  -3709045.423 2
  26318779.948    -2155145.403 4  -2213409.361 2
  22691292.315   -17204813.652 8  -6101388.598 9
  22855746.256   -15436526.466 9 -11607333.862 9
  24517814.890     6550139.043 6   5079276.911 6
 94  2  8 20 40 30.0070000  0  8 19 22 28 31 27 29 18 14
  24047252.284    -5191649.283 7  -6452501.905 6
  24766428.548    -1584164.202 7  -1254746.258 6
  25992131.572    -3053001.836 5  -3234409.490 3
  26284385.089    -3928446.072 5  -3755794.235 2
  26308969.629    -2206711.097 4  -2253590.353 2
  22697886.040   -17170174.276 8  -6074396.877 9
  22851629.776   -15458148.715 9 -11624182.345 9
  24541595.117     6675112.226 6   5176658.502 6
 94  2  8 20 41  0.0070000  0  8 19 22 28 31 27 29 18 14
  24042557.084    -5216325.612 7  -6471730.209 6
  24787548.837    -1473169.840 6  -1168257.180 6
  25986367.822    -3083222.686 5  -3257958.146 3
  26272911.282    -3988698.493 4  -3802744.064 2
  26299114.912    -2258472.532 3  -2293923.889 2
  22704489.239   -17135474.085 8  -6047357.783 9
  22847513.625   -15479785.773 9 -11641042.367 9
  24565369.169     6800040.847 6   5274005.354 6
 94  2  8 20 41 30.0070000  0  8 19 22 28 31 27 29 18 14
  24037868.180    -5240976.354 7  -6490938.556 6
  24808703.572    -1362001.593 6  -1081632.603 6
  25980652.818    -3113309.606 5  -3281402.405 3
  26261417.659    -4049083.478 4  -3849797.212 2
  26289252.249    -2310300.867 4  -2334309.540 2
  22711124.276   -17100603.424 7  -6020185.868 9
  22843418.730   -15501308.293 8 -11657813.144 9
  24589155.782     6925054.678 6   5371418.586 6
 94  2  8 20 42  0.0070000  0  8 19 22 28 31 27 29 18 14
  24033214.172    -5265413.434 7  -6509980.422 6
  24829925.340    -1250495.242 6   -994744.609 6
  25974981.614    -3143088.084 5  -3304606.382 3
  26249945.351    -4109421.567 4  -3896813.813 2
  26279417.468    -2362008.694 4  -2374601.292 2
  22717829.854   -17065367.790 7  -5992729.531 9
  22839382.564   -15522524.606 9 -11674345.314 9
  24612997.376     7050343.187 6   5469045.891 6
 94  2  8 20 42 30.0070000  0  8 19 22 28 31 27 29 18 14
  24028641.707    -5289450.683 7  -6528710.715 6
  24851231.081    -1138502.444 6   -907477.546 6
  25969413.599    -3172374.987 5  -3327427.239 3
  26238496.457    -4169549.106 4  -3943666.330 2
  26269631.912    -2413425.857 4  -2414666.540 2
  22724639.130   -17029582.726 8  -5964845.089 9
  22835435.587   -15543270.818 8 -11690511.179 9
  24636926.751     7176063.019 6   5567009.244 6
 94  2  8 20 43  0.0070000  0  8 19 22 28 31 27 29 18 14
  24024164.697    -5312976.893 7  -6547042.813 6
  24872662.914    -1025901.184 6   -819736.361 5
  25963959.715    -3201023.997 5  -3349751.036 3
  26227124.819    -4229335.777 5  -3990253.255 2
  26259923.433    -2464422.188 4  -2454403.896 2
  22731580.494   -16993109.177 8  -5936424.152 9
  22831602.590   -15563411.749 9 -11706205.394 9
  24660957.275     7302347.918 6   5665412.906 6
 94  2  8 20 43 30.0070000  0  8 19 22 28 31 27 29 18 14
  24019789.256    -5335970.983 7  -6564960.252 6
  24894210.916     -912658.732 6   -731495.530 5
  25958629.225    -3229000.643 5  -3371550.901 3
  26215809.633    -4288753.435 4  -4036552.645 2
  26250306.601    -2514968.209 5  -2493790.353 2
  22738660.153   -16955901.205 8  -5907430.943 9
  22827891.160   -15582904.591 9 -11721394.603 9
  24685104.358     7429235.561 6   5764286.280 5
 94  2  8 20 44  0.0070000  0  8 19 22 28 31 27 29 18 14
  24015518.712    -5358414.130 7  -6582448.371 6
  24915882.104     -798778.836 6   -642757.969 5
  25953440.117    -3256293.015 4  -3392817.622 3
  26204575.060    -4347799.020 5  -4082562.113 2
  26240783.454    -2565057.959 4  -2532821.287 2
  22745887.070   -16917951.619 8  -5877859.842 9
  22824309.120   -15601739.990 9 -11736071.525 9
  24709360.476     7556701.552 6   5863610.294 5
 94  2  8 20 44 30.0070000  0  8 19 22 28 31 27 29 18 14
  24011351.987    -5380318.419 7  -6599516.623 6
  24937672.728     -684257.655 6   -553520.738 5
  25948372.216    -3282890.073 5  -3413542.462 3
  26193419.093    -4406451.218 4  -4128264.999 2
  26231341.490    -2614687.445 4  -2571493.530 2
  22753246.435   -16879263.554 8  -5847713.310 9
  22820849.365   -15619914.975 9 -11750233.837 9
  24733718.853     7684734.066 6   5963375.764 5
 94  2  8 20 45  0.0070000  0  8 19 22 28 31 27 29 18 14
  24007279.516    -5401719.231 7  -6616192.558 6
  24959586.538     -569123.429 6   -463805.804 5
  25943441.589    -3308842.894 5  -3433765.324 3
  26182329.500    -4464721.504 5  -4173670.358 2
  26221973.306    -2663894.505 5  -2609836.615 2
  22760739.238   -16839875.936 8  -5817021.682 9
  22817511.565   -15637457.723 9 -11763903.502 9
  24758190.641     7813311.915 6   6063566.168 5
 94  2  8 20 45 30.0070000  0  8 19 22 28 31 27 29 18 14
  24003302.859    -5422618.637 7  -6632477.797 6
  24981603.806     -453419.438 6   -373646.909 5
  25938611.123    -3334206.242 5  -3453528.882 3
  26171309.579    -4522628.488 5  -4218792.564 2
  26212678.630    -2712714.174 5  -2647877.886 3
  22768360.802   -16799838.407 8  -5785823.617 9
  22814285.829   -15654397.036 9 -11777102.957 9
  24782754.856     7942389.998 6   6164146.346 5
 94  2  8 20 46  0.0070000  0  8 19 22 28 31 27 29 18 14
  23999411.853    -5443048.664 7  -6648397.256 6
  25003720.485     -337190.895 6   -283079.264 5
  25933897.576    -3359012.823 5  -3472858.579 3
  26160350.126    -4580207.762 5  -4263659.451 2
  26203458.123    -2761182.069 5  -2685645.035 3
  22776092.629   -16759201.127 8  -5754158.217 9
  22811170.086   -15670779.404 9 -11789868.434 9
  24807395.338     8071923.925 6   6265081.766 5
 94  2  8 20 46 30.0070000  0  8 19 22 28 31 27 29 18 14
  23995604.489    -5463059.954 7  -6663990.434 6
  25025931.148     -220473.142 6   -192130.411 5
  25929273.697    -3383309.731 5  -3491791.112 3
  26149455.758    -4637498.851 5  -4308301.786 2
  26194298.325    -2809349.417 5  -2723177.993 3
  22783933.101   -16717997.421 8  -5722051.437 9
  22808148.238   -15686646.942 9 -11802232.724 9
  24832132.412     8201891.151 6   6366354.792 5
 94  2  8 20 47  0.0070000  0  8 19 22 28 31 27 29 18 14
  23991873.961    -5482669.627 7  -6679270.642 6
  25048231.360     -103288.792 6   -100817.993 5
  25924737.268    -3407118.811 5  -3510343.542 3
  26138600.304    -4694530.485 5  -4352741.914 2
  26185172.732    -2857232.959 5  -2760489.809 3
  22791876.462   -16676258.040 8  -5689527.261 9
  22805223.762   -15702014.356 8 -11814207.323 9
  24856943.536     8332259.821 6   6467940.630 5
 94  2  8 20 47 30.0070000  0  8 19 22 28 31 27 29 18 14
  23988216.104    -5501904.173 7  -6694258.555 6
  25070615.544       14344.716 6     -9155.553 5
  25920306.335    -3430436.216 5  -3528512.854 3
  26127789.308    -4751327.868 5  -4396999.521 2
  26176113.094    -2904842.300 5  -2797587.951 3
  22799918.875   -16633989.137 8  -5656590.452 9
  22802391.923   -15716895.623 8 -11825803.100 9
  24881820.494     8462992.175 6   6569809.892 5
 94  2  8 20 48  0.0070000  0  8 19 22 28 31 27 29 18 14
  23984613.498    -5520813.097 7  -6708992.738 6
  25093084.569      132420.634 6     82851.583 5
  25915953.289    -3453258.149 5  -3546296.072 3
  26117029.247    -4807902.527 5  -4441083.610 2
  26167105.740    -2952191.720 5  -2834483.564 3
  22808062.077   -16591188.934 7  -5623239.661 9
  22799651.580   -15731305.530 8 -11837031.583 9
  24906765.145     8594079.488 6   6671955.708 4
 94  2  8 20 48 30.0070000  0  8 19 22 28 31 27 29 18 14
  23981074.238    -5539427.245 7  -6723497.249 6
  25115631.420      250904.106 6    175176.295 5
  25911707.238    -3475605.501 5  -3563709.526 2
  26106296.617    -4864275.437 6  -4485010.476 2
  26158135.919    -2999321.030 4  -2871207.668 4
  22816304.151   -16547884.055 7  -5589495.612 9
  22796997.367   -15745260.648 9 -11847905.703 9
  24931776.081     8725490.832 6   6774354.031 4
 94  2  8 20 49  0.0070000  0  8 19 22 28 31 27 29 18 14
  23977586.752    -5557752.423 7  -6737776.554 6
  25138251.331      369779.018 6    267806.061 5
  25907547.408    -3497479.779 5  -3580754.296 2
  26095604.039    -4920454.700 6  -4528786.514 2
  26149212.177    -3046233.927 5  -2907763.126 4
  22824639.581   -16504099.833 7  -5555378.010 9
  22794422.450   -15758778.784 9 -11858439.276 9
  24956837.711     8857207.751 6   6876990.481 4
 94  2  8 20 49 30.0070000  0  8 19 22 28 31 27 29 18 14
  23974146.664    -5575822.241 7  -6751856.881 6
  25160942.442      489003.246 7    360707.984 5
  25903465.494    -3518922.351 5  -3597462.700 2
  26084939.912    -4976476.655 6  -4572439.859 2
  26140313.258    -3092985.833 5  -2944193.149 4
  22833054.875   -16459863.280 7  -5520907.992 9
  22791926.378   -15771896.518 9 -11868660.876 9
  24981955.702     8989207.918 6   6979847.615 4
 94  2  8 20 50  0.0070000  0  8 19 22 28 31 27 29 18 14
  23970751.874    -5593662.373 7  -6765758.221 6
  25183684.728      608536.549 7    453850.776 5
  25899462.275    -3539963.337 5  -3613858.187 2
  26074311.070    -5032374.803 5  -4615996.766 2
  26131440.450    -3139623.826 5  -2980534.361 4
  22841546.466   -16415216.138 7  -5486117.999 9
  22789500.697   -15784644.000 9 -11878593.947 9
  25007128.135     9121466.083 6   7082905.823 4
 94  2  8 20 50 30.0070000  0  8 19 22 28 31 27 29 18 14
  23967405.860    -5611255.583 7  -6779467.144 6
  25206484.934      728356.868 6    547217.230 5
  25895534.125    -3560621.516 5  -3629955.393 2
  26063688.164    -5088170.062 6  -4659473.531 3
  26122581.163    -3186167.823 5  -3016802.396 3
  22850120.441   -16370178.675 7  -5451023.874 9
  22787144.148   -15797035.904 9 -11888249.956 9
  25032340.801     9253952.413 6   7186141.767 4
 94  2  8 20 51  0.0070000  0  8 19 22 28 31 27 29 18 14
  23964104.246    -5628607.787 8  -6792988.296 6
  25229342.070      848457.078 6    640801.760 5
  25891668.991    -3580912.280 5  -3645766.305 2
  26053096.347    -5143865.384 6  -4702872.428 3
  26113750.237    -3232609.962 5  -3052990.982 3
  22858767.624   -16324740.140 7  -5415617.231 9
  22784849.267   -15809083.777 9 -11897637.897 9
  25057586.834     9386657.703 6   7289548.339 4
 94  2  8 20 51 30.0070000  0  8 19 22 28 31 27 29 18 14
  23960844.423    -5645720.873 7  -6806323.105 6
  25252250.141      968840.726 6    734607.173 5
  25887873.858    -3600826.298 5  -3661283.655 2
  26042520.208    -5199445.559 6  -4746181.598 3
  26104931.872    -3278945.609 5  -3089096.578 3
  22867489.397   -16278884.637 7  -5379885.672 9
  22782624.747   -15820777.405 9 -11906749.781 9
  25082885.839     9519578.421 6   7393122.806 4
 94  2  8 20 52  0.0070000  0  8 19 22 28 31 27 29 18 14
  23957636.104    -5662589.021 7  -6819467.038 7
  25275209.716     1089501.854 6    828628.819 4
  25884159.429    -3620349.345 5  -3676496.309 2
  26031962.357    -5254889.809 5  -4789384.812 3
  26096140.728    -3325149.713 5  -3125099.599 3
  22876298.198   -16232611.869 7  -5343828.939 9
  22780466.091   -15832119.683 9 -11915587.878 9
  25108213.056     9652703.562 6   7496856.541 4
 94  2  8 20 52 30.0070000  0  8 19 22 28 31 27 29 18 14
  23954470.595    -5679216.771 7  -6832423.691 7
  25298220.287     1210431.710 6    922859.794 4
  25880523.426    -3639477.266 5  -3691401.105 2
  26021445.098    -5310186.379 5  -4832473.059 3
  26087371.768    -3371198.639 5  -3160981.879 3
  22885185.456   -16185914.201 7  -5307441.173 9
  22778376.568   -15843108.364 9 -11924150.476 9
  25133587.130     9786035.311 6   7600751.244 4
 94  2  8 20 53  0.0070000  0  8 19 22 28 31 27 29 18 14
  23951352.873    -5695612.046 7  -6845199.192 7
  25321291.295     1331636.563 6   1017305.117 4
  25876957.125    -3658203.474 5  -3705992.835 2
  26010952.212    -5365324.518 5  -4875437.739 3
  26078631.499    -3417077.930 5  -3196731.824 3
  22894151.499   -16138793.010 7  -5270723.355 9
  22776354.318   -15853733.278 9 -11932429.593 9
  25159005.033     9919590.305 6   7704819.953 4
 94  2  8 20 53 30.0070000  0  8 19 22 28 31 27 29 18 14
  23948277.482    -5711775.379 7  -6857793.934 7
  25344404.784     1453112.992 6   1111962.051 4
  25873471.888    -3676512.544 6  -3720259.530 3
  26000489.576    -5420297.933 5  -4918274.066 3
  26069943.094    -3462792.485 5  -3232353.442 3
  22903196.627   -16091261.864 7  -5233686.088 9
  22774404.438   -15863993.690 9 -11940424.698 9
  25184457.623    10053361.607 6   7809057.174 4
 94  2  8 20 54  0.0070000  0  8 19 22 28 31 27 29 18 14
  23945247.090    -5727697.134 7  -6870200.443 7
  25367569.927     1574846.231 6   1206819.134 4
  25870069.843    -3694398.161 6  -3734196.321 3
  25990064.323    -5475124.933 5  -4960996.328 3
  26061273.336    -3508334.661 5  -3267840.721 3
  22912320.361   -16043317.640 7  -5196326.955 9
  22772517.664   -15873886.389 9 -11948133.263 9
  25209952.963    10187339.477 6   7913455.383 4
 94  2  8 20 54 30.0070000  0  8 19 22 28 31 27 29 18 14
  23942257.410    -5743394.073 8  -6882431.775 7
  25390785.465     1696842.177 6   1301880.895 4
  25866748.982    -3711870.791 6  -3747811.269 3
  25979646.535    -5529834.051 5  -5003626.692 3
  26052642.761    -3553728.637 5  -3303212.510 3
  22921518.173   -15994966.651 7  -5158650.851 9
  22770710.845   -15883403.073 8 -11955548.849 9
  25235485.987    10321515.713 6   8018008.157 4
 94  2  8 20 55  0.0070000  0  8 19 22 28 31 27 29 18 14
  23939315.157    -5758865.738 7  -6894487.570 7
  25414051.758     1819112.233 6   1397156.254 4
  25863499.622    -3728940.776 5  -3761112.510 3
  25969257.527    -5584424.539 5  -5046164.635 3
  26044021.149    -3598995.237 5  -3338485.061 3
  22930799.388   -15946209.470 8  -5120658.245 9
  22768967.582   -15892539.252 8 -11962667.922 9
  25261054.176    10455874.907 6   8122703.442 4
 94  2  8 20 55 30.0070000  0  8 19 22 28 31 27 29 18 14
  23936411.667    -5774116.012 7  -6906370.847 7
  25437369.645     1941648.103 6   1492638.778 3
  25860329.796    -3745601.022 5  -3774094.430 3
  25958886.267    -5638887.413 5  -5088603.133 3
  26035437.222    -3644147.839 5  -3373668.713 3
  22940156.480   -15897032.455 8  -5082338.494 9
  22767304.423   -15901294.289 8 -11969490.001 9
  25286650.246    10590406.282 6   8227532.952 4
 94  2  8 20 56  0.0070000  0  8 19 22 28 31 27 29 18 14
  23933550.598    -5789150.367 7  -6918085.885 7
  25460737.808     2064443.167 6   1588323.212 4
  25857235.249    -3761869.374 6  -3786770.957 3
  25948553.650    -5693226.142 5  -5130944.843 2
  26026857.551    -3689201.138 5  -3408775.013 3
  22949591.309   -15847445.585 8  -5043699.371 9
  22765706.679   -15909671.984 9 -11976018.057 9
  25312284.960    10725111.168 6   8332497.668 4
 94  2  8 20 56 30.0070000  0  8 19 22 28 31 27 29 18 14
  23930722.566    -5804008.759 7  -6929663.830 7
  25484149.920     2187478.039 6   1684194.566 4
  25854204.826    -3777782.702 6  -3799170.876 3
  25938237.552    -5747435.513 5  -5173185.748 2
  26018301.505    -3734201.815 5  -3443840.359 3
  22959102.464   -15797473.885 8  -5004760.402 9
  22764182.564   -15917692.315 9 -11982267.636 9
  25337955.438    10859981.306 6   8437591.164 4
 94  2  8 20 57  0.0070000  0  8 19 22 28 31 27 29 18 14
  23927927.151    -5818709.232 7  -6941118.704 7
  25507601.035     2310719.566 6   1780226.910 4
  25851242.427    -3793350.270 6  -3811301.368 3
  25927932.696    -5801507.615 5  -5215319.732 2
  26009734.965    -3779164.199 4  -3478875.871 3
  22968679.694   -15747135.404 8  -4965535.596 9
  22762722.515   -15925377.905 9 -11988256.392 9
  25363648.581    10995001.505 6   8542801.545 4
 94  2  8 20 57 30.0070000  0  8 19 22 28 31 27 29 18 14
  23925164.323    -5833238.629 7  -6952440.294 7
  25531093.911     2434175.972 6   1876426.703 4
  25848347.931    -3808540.150 6  -3823137.567 3
  25917685.520    -5855432.846 5  -5257339.237 3
  26001193.728    -3824058.523 5  -3513858.326 3
  22978331.032   -15696425.641 8  -4926021.499 9
  22761322.424   -15932723.430 9 -11993980.160 9
  25389372.693    11130184.684 5   8648138.920 4
 94  2  8 20 58  0.0070000  0  8 19 22 28 31 27 29 18 14
  23922429.197    -5847597.185 7  -6963628.763 7
  25554630.977     2557848.043 6   1972794.530 4
  25845532.820    -3823337.170 6  -3834667.655 3
  25907451.055    -5909225.526 5  -5299255.423 3
  25992666.342    -3868858.536 5  -3548767.277 3
  22988052.702   -15645349.587 8  -4886221.967 9
  22759991.616   -15939719.819 9 -11999431.870 9
  25415130.172    11265531.023 6   8753603.447 4
 94  2  8 20 58 30.0070000  0  8 19 22 28 31 27 29 18 14
  23919724.889    -5861796.265 7  -6974692.942 7
  25578202.039     2681727.141 6   2069323.672 4
  25842794.336    -3837732.785 5  -3845884.940 3
  25897233.708    -5962902.252 5  -5341081.256 3
  25984167.615    -3913557.676 5  -3583597.605 3
  22997838.258   -15593908.034 8  -4846137.634 9
  22758728.020   -15946366.450 9 -12004611.034 9
  25440914.212    11401019.956 5   8859179.083 4
 94  2  8 20 59  0.0070000  0  8 19 22 28 31 27 29 18 14
  23917055.987    -5875817.456 7  -6985618.512 7
  25601812.014     2805818.093 5   2166017.870 5
  25840129.900    -3851717.123 5  -3856781.785 3
  25887043.373    -6016470.468 5  -5382822.590 2
  25975681.060    -3958135.430 5  -3618333.422 3
  23007698.132   -15542107.772 8  -4805773.802 9
  22757528.521   -15952678.351 9 -12009529.382 9
  25466717.858    11536632.466 5   8964850.995 4
 94  2  8 20 59 30.0070000  0  8 19 22 28 31 27 29 18 14
  23914428.216    -5889636.759 7  -6996386.780 7
  25625470.586     2930130.492 5   2262884.660 5
  25837556.002    -3865282.953 5  -3867352.478 3
  25876861.342    -6069924.276 5  -5424474.703 2
  25967226.253    -4002583.984 5  -3652968.525 3
  23017625.759   -15489937.812 8  -4765121.889 9
  22756390.719   -15958646.275 8 -12014179.679 9
  25492551.784    11672372.578 5   9070622.301 3
 94  2  8 21  0  0.0070000  0  8 19 22 28 31 27 29 18 14
  23911841.756    -5903243.206 7  -7006989.169 7
  25649174.096     3054668.610 6   2359927.300 5
  25835046.050    -3878445.211 5  -3877608.722 3
  25866730.695    -6123223.847 5  -5466006.656 2
  25958786.886    -4046911.883 5  -3687509.671 3
  23027630.433   -15437368.274 8  -4724158.618 9
  22755325.616   -15964244.167 9 -12018541.659 9
  25518408.254    11808259.283 6   9176507.899 3
 94  2  8 21  0 30.0070000  0  8 19 22 28 31 27 29 18 14
  23909294.180    -5916624.354 7  -7017415.993 7
  25672913.672     3179436.200 6   2457148.797 5
  25832614.913    -3891226.189 5  -3887567.885 3
  25856621.214    -6176328.952 5  -5507387.131 2
  25950370.243    -4091141.597 5  -3721974.255 3
  23037710.235   -15384380.641 8  -4682869.564 9
  22754329.585   -15969473.737 8 -12022616.617 9
  25544295.632    11944295.829 6   9282510.255 3
 94  2  8 21  1  0.0070000  0  8 19 22 28 31 27 29 18 14
  23906790.134    -5929765.519 7  -7027655.824 7
  25696703.193     3304443.788 6   2554557.260 5
  25830255.966    -3903613.386 6  -3897220.204 3
  25846558.740    -6229206.062 5  -5548589.911 2
  25941976.563    -4135265.486 5  -3756356.397 3
  23047878.596   -15330951.874 8  -4641236.767 9
  22753408.083   -15974329.799 8 -12026400.532 9
  25570212.270    12080495.454 6   9388639.667 3
 94  2  8 21  1 30.0070000  0  8 19 22 28 31 27 29 18 14
  23904338.191    -5942669.555 7  -7037710.879 7
  25720535.254     3429689.177 6   2652151.075 4
  25827981.710    -3915578.413 5  -3906543.526 3
  25836546.871    -6281837.608 5  -5589601.323 2
  25933598.713    -4179265.823 5  -3790642.293 3
  23058136.145   -15277043.060 8  -4599229.902 9
  22752558.352   -15978782.843 8 -12029870.404 9
  25596165.843    12216881.419 6   9494914.316 3
 94  2  8 21  2  0.0070000  0  8 19 22 28 31 27 29 18 14
  23901924.322    -5955348.074 8  -7047590.205 7
  25744412.434     3555178.196 6   2749934.692 4
  25825789.478    -3927107.013 5  -3915526.786 3
  25826575.264    -6334219.577 5  -5630418.281 2
  25925254.620    -4223131.944 5  -3824823.568 3
  23068490.496   -15222641.811 8  -4556839.312 9
  22751788.455   -15982827.253 8 -12033021.864 9
  25622154.552    12353456.005 6   9601335.885 3
 94  2  8 21  2 30.0070000  0  8 19 22 28 31 27 29 18 14
  23899558.390    -5967797.007 8  -7057290.623 7
  25768338.990     3680909.072 6   2847906.789 4
  25823676.211    -3938164.305 5  -3924142.808 3
  25816651.294    -6386372.753 5  -5671056.937 2
  25916932.351    -4266851.586 5  -3858890.735 3
  23078931.878   -15167756.487 8  -4514071.541 9
  22751094.285   -15986481.739 8 -12035869.489 9
  25648175.907    12490196.719 6   9707886.939 3
 94  2  8 21  3  0.0070000  0  8 19 22 28 31 27 29 18 14
  23897230.172    -5980023.474 7  -7066817.679 7
  25792313.993     3806871.184 6   2946059.103 4
  25821676.385    -3948728.862 5  -3932374.850 3
  25806757.184    -6438329.791 5  -5711542.794 2
  25908647.347    -4310410.956 5  -3892832.993 3
  23089464.276   -15112409.934 8  -4470944.357 9
  22750474.674   -15989745.300 8 -12038412.501 9
  25674225.773    12627089.412 6   9814556.405 3
 94  2  8 21  3 30.0080000  0  8 19 22 28 31 27 29 18 14
  23894950.670    -5992022.288 7  -7076167.339 7
  25816320.203     3933054.209 6   3044383.527 4
  25819754.446    -3958808.541 5  -3940229.058 3
  25796911.070    -6490098.801 5  -5751882.151 2
  25900388.244    -4353813.331 5  -3926652.916 3
  23100082.326   -15056621.774 8  -4427473.059 9
  22749928.212   -15992597.857 8 -12040635.243 9
  25700302.471    12764137.760 5   9921347.168 3
 94  2  8 21  4  0.0080000  0  8 19 22 28 31 27 29 18 14
  23892712.120    -6003767.871 7  -7085319.682 7
  25840380.527     4059477.447 6   3142895.173 3
  25817929.279    -3968395.931 5  -3947699.696 3
  25787102.131    -6541662.540 5  -5792061.554 2
  25892152.706    -4397055.052 5  -3960347.671 3
  23110779.670   -15000413.099 8  -4383674.092 9
  22749467.941   -15995032.622 8 -12042532.426 9
  25726410.197    12901318.005 5  10028240.682 3
 94  2  8 21  4 30.0080000  0  8 19 22 28 31 27 29 18 14
  23890523.275    -6015256.218 7  -7094271.597 7
  25864486.029     4186147.118 6   3241598.817 3
  25816201.965    -3977489.693 5  -3954785.641 3
  25777332.284    -6593017.914 5  -5832078.582 2
  25883961.776    -4440135.670 5  -3993916.870 3
  23121554.601   -14943787.957 8  -4339550.624 9
  22749082.618   -15997037.661 8 -12044094.771 9
  25752541.876    13038620.364 5  10135229.362 3
 94  2  8 21  5  0.0080000  0  8 19 22 28 31 27 29 18 14
  23888383.626    -6026511.757 8  -7103042.086 7
  25888628.465     4313045.177 6   3340480.438 3
  25814559.492    -3986118.840 5  -3961509.530 3
  25767591.667    -6644174.725 5  -5871940.875 2
  25875790.813    -4483071.179 5  -4027372.970 3
  23132404.330   -14886769.023 8  -4295120.262 9
  22748788.431   -15998603.926 8 -12045315.209 9
  25778686.777    13176042.652 5  10242311.501 3
 94  2  8 21  5 30.0080000  0  8 19 22 28 31 27 29 18 14
  23886280.582    -6037557.245 8  -7111648.877 7
  25912825.464     4440169.844 6   3439538.648 3
  25813005.878    -3994309.241 5  -3967891.550 3
  25757892.662    -6695131.588 5  -5911647.400 2
  25867642.334    -4525891.857 6  -4060739.578 3
  23143327.118   -14829367.192 8  -4250391.560 9
  22748565.806   -15999749.870 8 -12046208.114 9
  25804859.018    13313578.991 5  10349482.479 3
 94  2  8 21  6  0.0080000  0  8 19 22 28 31 27 29 18 14
  23884213.063    -6048413.111 8  -7120107.944 7
  25937060.297     4567521.096 6   3538773.416 3
  25811518.667    -4002074.734 5  -3973942.485 3
  25748236.647    -6745904.748 6  -5951210.802 2
  25859512.262    -4568615.859 6  -4094030.874 3
  23154324.854   -14771576.285 8  -4205359.704 9
  22748424.423   -16000498.477 8 -12046791.425 9
  25831048.078    13451218.891 5  10456734.190 3
 94  2  8 21  6 30.0080000  0  8 19 22 28 31 27 29 18 14
  23882183.588    -6059090.396 8  -7128427.840 7
  25961325.019     4695070.861 5   3638162.842 3
  25810122.444    -4009429.760 5  -3979673.505 3
  25738609.262    -6796486.321 6  -5990624.863 2
  25851395.741    -4611247.620 6  -4127250.261 3
  23165397.149   -14713389.886 8  -4160019.643 9
  22748360.808   -16000847.560 8 -12047063.402 9
  25857272.363    13588986.371 5  10564085.272 3
 94  2  8 21  7  0.0080000  0  8 19 22 28 31 27 29 18 14
  23880189.879    -6069587.844 8  -7136607.616 7
  25985631.232     4822798.941 5   3737691.178 3
  25808796.222    -4016380.604 5  -3985089.638 3
  25729015.573    -6846874.215 5  -6029888.052 2
  25843304.223    -4653795.805 6  -4160404.551 3
  23176542.863   -14654812.464 8  -4114374.909 9
  22748364.345   -16000809.318 8 -12047033.573 9
  25883511.458    13726890.907 5  10671543.161 3
 94  2  8 21  7 30.0080000  0  8 19 22 28 31 27 29 18 14
  23878225.518    -6079897.053 8  -7144640.721 7
  26009973.990     4950697.163 5   3837352.136 3
  25807557.390    -4022920.031 5  -3990185.177 3
  25719471.980    -6897052.718 5  -6068988.079 2
  25835216.902    -4696256.816 5  -4193490.887 3
  23187766.823   -14595838.541 8  -4068421.212 9
  22748443.220   -16000400.479 8 -12046714.993 9
  25909779.153    13864924.430 5  10779101.547 3
 94  2  8 21  8  0.0080000  0  8 19 22 28 31 27 29 18 14
  23876298.572    -6090022.395 8  -7152530.543 7
  26034335.724     5078737.365 5   3937123.713 3
  25806391.467    -4029037.943 5  -3994952.250 3
  25709962.743    -6947023.622 5  -6107926.320 2
  25827160.309    -4738617.706 5  -4226499.218 3
  23199066.840   -14536459.836 8  -4022152.085 9
  22748593.327   -15999618.435 8 -12046105.570 9
  25936067.234    14003059.428 5  10886739.026 3
 94  2  8 21  8 30.0080000  0  8 19 22 28 31 27 29 18 14
  23874406.222    -6099949.879 8  -7160266.208 7
  26058734.963     5206921.286 5   4037007.268 3
  25805313.383    -4034702.473 5  -3999366.002 3
  25700494.908    -6996768.922 5  -6146688.763 2
  25819118.226    -4780869.226 5  -4259422.327 3
  23210444.953   -14476671.550 8  -3975563.820 9
  22748814.543   -15998455.828 8 -12045199.616 9
  25962371.714    14141294.620 5  10994454.573 3
 94  2  8 21  9  0.0080000  0  8 19 22 28 31 27 29 18 14
  23872562.079    -6109662.358 8  -7167834.321 7
  26083155.937     5335267.661 5   4137017.386 3
  25804325.987    -4039880.908 5  -4003401.011 3
  25691072.611    -7046279.169 5  -6185268.039 2
  25811101.746    -4822994.638 6  -4292247.163 3
  23221902.002   -14416459.318 8  -3928645.192 9
  22749114.426   -15996881.728 8 -12043973.013 9
  25988689.445    14279632.912 5  11102250.508 3
 94  2  8 21  9 30.0080000  0  8 19 22 28 31 27 29 18 14
  23870749.114    -6119177.368 8  -7175248.580 7
  26107614.924     5463783.326 5   4237159.484 3
  25803432.036    -4044591.155 5  -4007071.211 3
  25681693.034    -7095567.810 6  -6223674.662 2
  25803107.750    -4865004.527 6  -4324981.969 3
  23233441.193   -14355827.431 8  -3881399.573 9
  22749492.284   -15994887.856 8 -12042419.317 9
  26015044.230    14418059.671 5  11210115.316 3
 94  2  8 21 10  0.0080000  0  8 19 22 28 31 27 29 18 14
  23868973.803    -6128507.149 8  -7182518.509 7
  26132092.259     5592457.597 5   4337425.116 3
  25802625.684    -4048841.610 6  -4010383.133 3
  25672351.951    -7144643.012 5  -6261914.923 2
  25795132.731    -4906922.749 6  -4357645.399 3
  23245057.522   -14294779.989 8  -3833830.140 9
  22749953.095   -15992472.138 8 -12040536.926 9
  26041391.220    14556555.177 5  11318033.714 3
 94  2  8 21 10 30.0080000  0  8 19 22 28 31 27 29 18 14
  23867231.589    -6137665.759 8  -7189655.053 7
  26156609.436     5721273.152 6   4437800.841 3
  25801892.811    -4052660.071 6  -4013358.423 3
  25663054.697    -7193522.650 6  -6300002.849 2
  25787169.704    -4948776.796 6  -4390258.815 3
  23256744.960   -14233347.238 8  -3785960.473 9
  22750491.283   -15989649.955 8 -12038337.790 9
  26067759.136    14695111.095 5  11425999.156 3
 94  2  8 21 11  0.0080000  0  8 19 22 28 31 27 29 18 14
  23865515.008    -6146675.566 8  -7196675.644 7
  26181146.340     5850215.651 6   4538275.543 3
  25801247.298    -4056076.859 5  -4016020.749 3
  25653783.885    -7242218.344 5  -6337947.364 2
  25779211.653    -4990573.435 6  -4422827.496 3
  23268506.988   -14171550.547 8  -3737807.189 9
  22751103.129   -15986432.564 8 -12035830.696 9
  26094133.138    14833703.193 5  11533992.847 3
 94  2  8 21 11 30.0080000  0  8 19 22 28 31 27 29 18 14
  23863825.198    -6155570.030 8  -7203606.356 7
  26205708.066     5979258.450 6   4638828.309 3
  25800666.240    -4059122.532 6  -4018393.901 3
  25644551.297    -7290752.763 5  -6375766.226 3
  25771263.346    -5032341.893 6  -4455374.212 3
  23280329.423   -14109410.759 8  -3689386.593 9
  22751780.570   -15982871.533 8 -12033055.840 9
  26120507.109    14972294.460 5  11641985.861 3
 94  2  8 21 12  0.0080000  0  8 19 22 28 31 27 29 18 14
  23862156.283    -6164338.735 8  -7210439.081 7
  26230277.317     6108390.984 6   4739451.059 3
  25800166.127    -4061773.485 6  -4020459.491 3
  25635350.606    -7339112.342 5  -6413448.856 3
  25763318.516    -5074079.843 6  -4487897.173 3
  23292221.950   -14046926.149 8  -3640697.288 9
  22752523.336   -15978980.708 8 -12030024.004 9
  26146879.522    15110888.278 5  11749980.858 3
 94  2  8 21 12 30.0080000  0  8 19 22 28 31 27 29 18 14
  23860510.153    -6172984.942 8  -7217176.346 7
  26254866.294     6237622.344 6   4840150.799 3
  25799732.597    -4064029.614 6  -4022217.405 3
  25626173.629    -7387295.811 5  -6450994.225 2
  25755395.031    -5115769.368 6  -4520382.427 3
  23304176.714   -13984099.554 8  -3591741.511 9
  22753323.782   -15974762.316 8 -12026736.917 9
  26173257.271    15249498.106 5  11857988.330 3
 94  2  8 21 13  0.0080000  0  8 19 22 28 31 27 29 18 14
  23858889.115    -6181487.784 8  -7223801.903 7
  26279476.167     6366968.785 5   4940940.207 3
  25799386.906    -4065869.582 6  -4023651.066 3
  25617046.897    -7435282.172 5  -6488386.005 2
  25747466.540    -5157394.126 6  -4552817.223 3
  23316200.940   -13920917.194 8  -3542508.484 9
  22754191.771   -15970200.716 8 -12023182.392 9
  26199633.131    15388138.931 5  11966019.980 2
 94  2  8 21 13 30.0080000  0  8 19 22 28 31 27 29 18 14
  23857306.990    -6189823.525 8  -7230297.258 7
  26304115.750     6496440.719 5   5041827.392 3
  25799112.026    -4067270.630 6  -4024742.703 3
  25607957.730    -7483048.084 6  -6525606.052 2
  25739558.674    -5198930.122 6  -4585182.838 3
  23328298.135   -13857350.775 8  -3492976.230 9
  22755128.322   -15965275.151 8 -12019344.275 9
  26226027.069    15526835.707 5  12074095.226 2
 94  2  8 21 14  0.0080000  0  8 19 22 28 31 27 29 18 14
  23855755.654    -6197985.525 8  -7236657.240 7
  26328781.594     6626038.839 5   5142812.891 3
  25798928.374    -4068227.876 5  -4025488.532 3
  25598914.550    -7530591.342 6  -6562652.568 2
  25731674.043    -5240367.902 6  -4617471.935 3
  23340463.353   -13793406.900 8  -3443149.824 9
  22756135.115   -15959967.916 8 -12015208.739 9
  26252436.356    15665577.259 5  12182205.345 2
 94  2  8 21 14 30.0080000  0  8 19 22 28 31 27 29 18 14
  23854237.595    -6205963.514 8  -7242873.778 7
  26353464.046     6755764.308 5   5243897.704 3
  25798829.922    -4068746.201 5  -4025892.328 3
  25589908.965    -7577914.829 6  -6599527.814 2
  25723811.446    -5281699.173 6  -4649678.012 3
  23352704.209   -13729080.880 8  -3393025.649 9
  22757218.625   -15954268.078 8 -12010767.263 9
  26278846.033    15804352.386 5  12290341.624 2
 94  2  8 21 15  0.0080000  0  8 19 22 28 31 27 29 18 14
  23852749.485    -6213769.821 8  -7248956.606 7
  26378169.074     6885577.099 5   5345050.467 3
  25798816.821    -4068844.013 5  -4025968.515 4
  25580937.795    -7625038.987 6  -6636247.794 3
  25715963.269    -5322969.276 6  -4681836.509 3
  23365016.086   -13664393.627 8  -3342620.024 9
  22758377.323   -15948195.016 8 -12006035.016 9
  26305250.374    15943129.319 5  12398479.292 2
 94  2  8 21 15 30.0080000  0  8 19 22 28 31 27 29 18 14
  23851294.682    -6221419.343 8  -7254917.230 7
  26402883.664     7015461.484 5   5446259.049 3
  25798878.968    -4068522.568 5  -4025717.969 4
  25572010.096    -7671966.746 6  -6672814.667 3
  25708116.052    -5364194.041 6  -4713959.610 3
  23377395.626   -13599341.284 8  -3291929.885 9
  22759602.455   -15941753.372 8 -12001015.539 9
  26331658.492    16081890.806 5  12506604.942 2
 94  2  8 21 16  0.0080000  0  8 19 22 28 31 27 29 18 14
  23849865.961    -6228912.573 8  -7260756.078 7
  26427611.625     7145413.944 6   5547520.694 3
  25799019.510    -4067767.132 5  -4025129.263 4
  25563124.277    -7718684.202 6  -6709217.745 3
  25700277.318    -5405381.734 6  -4746053.850 3
  23389843.968   -13533924.768 8  -3240955.966 9
  22760900.077   -15934939.943 8 -11995706.349 9
  26358054.589    16220632.236 5  12614714.910 2
 94  2  8 21 16 30.0080000  0  8 19 22 28 31 27 29 18 14
  23848469.978    -6236252.951 8  -7266475.798 7
  26452357.814     7275436.337 6   5648836.847 3
  25799251.250    -4066565.044 5  -4024192.506 4
  25554271.466    -7765170.007 5  -6745440.245 3
  25692444.071    -5446536.606 6  -4778122.507 3
  23402360.873   -13468135.559 8  -3189691.674 9
  22762269.349   -15927752.517 8 -11990105.739 9
  26384465.405    16359382.391 5  12722831.705 2
 94  2  8 21 17  0.0080000  0  8 19 22 28 31 27 29 18 14
  23847104.213    -6243442.731 8  -7272078.169 7
  26477114.915     7405549.047 5   5750223.354 3
  25799568.311    -4064897.036 5  -4022892.691 4
  25545478.373    -7811399.094 6  -6781462.756 3
  25684628.122    -5487637.406 6  -4810149.019 3
  23414956.023   -13401964.314 8  -3138129.655 9
  22763710.811   -15920169.610 8 -11984196.955 9
  26410869.805    16498156.611 5  12830967.273 2
 94  2  8 21 17 30.0080000  0  8 19 22 28 31 27 29 18 14
  23845763.362    -6250482.109 8  -7277563.360 7
  26501899.866     7535786.534 5   5851707.089 3
  25799978.936    -4062744.871 5  -4021215.646 4
  25536728.781    -7857350.286 6  -6817268.717 3
  25676822.636    -5528632.322 6  -4842093.050 3
  23427624.773   -13335391.304 8  -3086254.572 9
  22765229.140   -15912177.837 8 -11977969.598 9
  26437289.285    16636968.399 5  12939132.073 2
 94  2  8 21 18  0.0080000  0  8 19 22 28 31 27 29 18 14
  23844455.457    -6257373.518 8  -7282933.241 7
  26526709.791     7666162.894 5   5953299.024 3
  25800472.575    -4060114.471 5  -4019165.941 4
  25528042.654    -7903019.142 6  -6852854.662 3
  25669044.610    -5569508.266 6  -4873944.336 3
  23440366.072   -13268418.485 8  -3034067.963 9
  22766826.074   -15903781.864 8 -11971427.253 9
  26463710.265    16775827.327 5  13047333.631 2
 94  2  8 21 18 30.0080000  0  8 19 22 28 31 27 29 18 14
  23843166.499    -6264116.963 8  -7288187.826 7
  26551542.470     7796679.821 5   6055000.494 3
  25801061.127    -4057026.601 6  -4016759.739 4
  25519399.038    -7948424.341 6  -6888235.223 3
  25661286.851    -5610270.577 6  -4905707.064 3
  23453186.427   -13201051.298 8  -2981574.058 9
  22768504.133   -15894982.152 8 -11964570.323 9
  26490140.447    16914719.845 5  13155561.326 3
 94  2  8 21 19  0.0080000  0  8 19 22 28 31 27 29 18 14
  23841913.906    -6270694.321 8  -7293312.992 8
  26576409.684     7927333.600 5   6156808.573 3
  25801736.679    -4053480.696 6  -4013996.619 4
  25510810.883    -7993565.138 6  -6923409.727 3
  25653551.876    -5650909.776 6  -4937373.885 3
  23466083.678   -13133277.762 8  -2928763.497 9
  22770256.839   -15885772.966 8 -11957394.315 9
  26516572.729    17053622.067 5  13263796.647 3
 94  2  8 21 19 30.0080000  0  8 19 22 28 31 27 29 18 14
  23840700.437    -6277084.311 8  -7298292.157 8
  26601297.825     8058123.862 5   6258723.071 3
  25802510.174    -4049457.692 6  -4010861.758 4
  25502273.364    -8038423.573 6  -6958364.235 3
  25645846.400    -5691431.456 6  -4968949.117 3
  23479063.972   -13065067.900 8  -2875612.955 9
  22772089.171   -15876143.255 8 -11949890.635 9
  26543008.068    17192551.234 5  13372052.942 3
 94  2  8 21 20  0.0080000  0  8 19 22 28 31 27 29 18 14
  23839523.032    -6283273.304 8  -7303114.690 8
  26626210.908     8189034.432 5   6360731.258 3
  25803363.263    -4044946.391 6  -4007346.391 4
  25493790.886    -8083005.141 6  -6993103.022 3
  25638150.248    -5731863.041 6  -5000454.134 4
  23492124.461   -12996425.221 8  -2822125.149 9
  22774003.825   -15866083.653 8 -11942051.957 9
  26569452.791    17331502.020 5  13480326.087 3
 94  2  8 21 20 30.0080000  0  8 19 22 28 31 27 29 18 14
  23838385.199    -6289256.838 8  -7307777.121 8
  26651134.873     8320049.735 5   6462821.064 3
  25804317.053    -4039938.572 6  -4003444.118 4
  25485357.274    -8127315.712 6  -7027630.586 3
  25630472.203    -5772211.191 6  -5031894.096 4
  23505269.011   -12927346.672 8  -2768297.695 9
  22776002.032   -15855580.461 8 -11933867.639 9
  26595893.016    17470466.095 5  13588609.574 3
 94  2  8 21 21  0.0080000  0  8 19 22 28 31 27 29 18 14
  23837282.023    -6295056.522 8  -7312296.326 8
  26676092.146     8451155.880 5   6564981.675 2
  25805358.292    -4034430.130 6  -3999151.760 4
  25476972.109    -8171347.845 6  -7061941.253 4
  25622811.457    -5812477.881 6  -5063270.642 4
  23518498.582   -12857840.889 8  -2714137.356 9
  22778081.932   -15844638.698 8 -11925341.576 9
  26622339.478    17609452.407 5  13696910.396 3
 94  2  8 21 21 30.0080000  0  8 19 22 28 31 27 29 18 14
  23836208.496    -6300686.729 8  -7316683.435 8
  26701050.138     8582354.114 5   6667214.050 2
  25806507.876    -4028426.122 6  -3994473.220 3
  25468646.663    -8215108.028 6  -7096039.958 4
  25615159.794    -5852659.974 6  -5094581.275 4
  23531803.911   -12787916.865 8  -2659651.109 9
  22780250.811   -15833262.734 8 -11916477.162 9
  26648803.927    17748474.411 5  13805239.014 3
 94  2  8 21 22  0.0080000  0  8 19 22 28 31 27 29 18 14
  23835170.765    -6306145.015 8  -7320936.615 8
  26726044.914     8713648.715 5   6769521.514 2
  25807737.745    -4021940.805 6  -3989419.651 4
  25460372.841    -8258588.058 6  -7129920.392 4
  25607535.592    -5892735.087 6  -5125808.525 4
  23545183.978   -12717599.535 8  -2604858.385 9
  22782495.596   -15821450.130 8 -11907272.514 9
  26675256.654    17887511.915 5  13913579.712 3
 94  2  8 21 22 30.0080000  0  8 19 22 28 31 27 29 18 14
  23834163.282    -6311440.886 8  -7325063.234 8
  26751034.504     8845028.838 5   6871895.600 2
  25809061.269    -4015002.328 6  -3984012.990 4
  25452159.667    -8301785.590 6  -7163580.693 4
  25599932.346    -5932705.878 6  -5156954.505 4
  23558635.486   -12646910.607 8  -2549776.103 9
  22784825.104   -15809212.498 8 -11897736.671 9
  26701714.328    18026558.545 5  14021927.565 3
 94  2  8 21 23  0.0080000  0  8 19 22 28 31 27 29 18 14
  23833184.730    -6316584.521 8  -7329071.225 8
  26776051.645     8976463.302 5   6974312.074 2
  25810459.681    -4007633.376 6  -3978270.871 4
  25443987.144    -8344718.238 6  -7197034.560 4
  25592340.731    -5972590.008 6  -5188032.947 4
  23572151.689   -12575880.623 8  -2494428.076 9
  22787228.270   -15796584.489 8 -11887896.625 9
  26728174.400    18165592.342 5  14130265.362 3
 94  2  8 21 23 30.0080000  0  8 19 22 28 31 27 29 18 14
  23832235.766    -6321558.191 8  -7332946.786 8
  26801070.765     9107960.073 5   7076777.066 2
  25811945.692    -3999820.801 6  -3972183.071 4
  25435863.668    -8387380.381 6  -7230277.672 4
  25584767.704    -6012396.173 6  -5219050.650 4
  23585735.375   -12504507.615 8  -2438812.758 9
  22789706.534   -15783563.142 8 -11877750.101 9
  26754629.226    18304596.510 5  14238580.120 3
 94  2  8 21 24  0.0080000  0  8 19 22 28 31 27 29 18 14
  23831324.128    -6326353.437 8  -7336683.308 8
  26826110.270     9239517.862 5   7179289.643 2
  25813527.936    -3991542.970 6  -3965732.695 4
  25427808.604    -8429759.157 6  -7263299.974 4
  25577198.754    -6052138.847 6  -5250018.887 4
  23599381.178   -12432791.677 8  -2382930.206 9
  22792262.715   -15770132.280 8 -11867284.450 9
  26781074.848    18443571.853 4  14346872.435 2
 94  2  8 21 24 30.0080000  0  8 19 22 28 31 27 29 18 14
  23830443.547    -6330973.427 8  -7340283.268 8
  26851156.041     9371137.052 5   7281850.061 2
  25815192.114    -3982768.370 6  -3958895.289 4
  25419790.925    -8471853.443 6  -7296100.582 4
  25569655.706    -6091827.778 6  -5280945.238 4
  23613098.692   -12360704.371 8  -2326758.285 9
  22794896.781   -15756289.721 8 -11856498.010 9
  26807515.733    18582545.784 4  14455163.624 2
 94  2  8 21 25  0.0080000  0  8 19 22 28 31 27 29 18 14
  23829592.616    -6335441.287 8  -7343764.682 8
  26876211.826     9502814.801 5   7384456.128 2
  25816963.618    -3973479.541 6  -3951657.157 3
  25411841.868    -8513662.341 6  -7328678.789 4
  25562107.201    -6131465.020 6  -5311831.337 4
  23626888.066   -12288237.533 7  -2270290.641 9
  22797609.303   -15742035.954 8 -11845391.151 9
  26833957.068    18721499.655 4  14563439.175 2
 94  2  8 21 25 30.0080000  0  8 19 22 28 31 27 29 18 14
  23828768.607    -6339785.312 8  -7347149.613 8
  26901282.989     9634548.552 6   7487105.768 2
  25818823.980    -3963687.658 6  -3944027.031 3
  25403933.733    -8555177.603 6  -7361028.224 4
  25554575.456    -6171060.110 6  -5342684.599 5
  23640747.621   -12215402.241 8  -2213535.859 9
  22800400.941   -15727367.426 8 -11833961.102 9
  26860398.973    18860413.089 3  14671683.181 2
 94  2  8 21 26  0.0080000  0  8 19 22 28 31 27 29 18 14
  23827963.184    -6344007.782 8  -7350439.816 8
  26926352.024     9766320.050 5   7589784.831 2
  25820779.766    -3953414.283 6  -3936021.693 3
  25396094.280    -8596411.334 6  -7393158.254 4
  25547052.853    -6210593.823 6  -5373490.046 5
  23654681.645   -12142189.243 8  -2156486.788 9
  22803272.263   -15712283.936 8 -11822207.717 9
  26886813.956    18999285.206 4  14779895.060 2
 94  2  8 21 26 30.0080000  0  8 19 22 28 31 27 29 18 14
  23827177.518    -6348120.454 8  -7353644.476 9
  26951434.730     9898116.831 6   7692483.593 3
  25822820.244    -3942699.595 6  -3927672.522 3
  25388292.931    -8637375.201 6  -7425078.006 4
  25539538.825    -6250065.299 6  -5404247.000 5
  23668683.631   -12068608.527 7  -2099151.163 9
  22806216.075   -15696805.566 8 -11810146.624 9
  26913236.614    19138088.323 4  14888053.112 2
 94  2  8 21 27  0.0080000  0  8 19 22 28 31 27 29 18 14
  23826420.183    -6352113.684 8  -7356756.045 9
  26976520.404    10029945.066 6   7795206.920 3
  25824940.436    -3931555.516 6  -3918988.723 3
  25380547.073    -8678060.587 6  -7456780.738 3
  25532039.727    -6289466.470 6  -5434949.157 5
  23682754.091   -11994669.771 7  -2041536.563 9
  22809238.073   -15680921.704 8 -11797769.560 9
  26939630.612    19276804.104 4  14996143.148 2
 94  2  8 21 27 30.0080000  0  8 19 22 28 31 27 29 18 14
  23825690.368    -6355954.096 8  -7359748.550 9
  27001616.270    10161813.020 6   7897961.133 3
  25827142.771    -3919984.752 6  -3909972.441 3
  25372864.951    -8718460.582 6  -7488261.109 3
  25524557.806    -6328781.985 6  -5465584.571 5
  23696896.140   -11920356.126 7  -1983629.822 9
  22812341.944   -15664619.625 8 -11785066.623 9
  26966006.982    19415454.317 4  15104182.082 2
 94  2  8 21 28  0.0080000  0  8 19 22 28 31 27 29 18 14
  23824988.404    -6359635.503 8  -7362617.136 9
  27026717.263    10293720.537 5   8000746.225 3
  25829421.344    -3907975.184 6  -3900614.271 3
  25365221.622    -8758571.298 6  -7519516.047 3
  25517092.195    -6368016.337 6  -5496156.749 5
  23711105.823   -11845662.261 7  -1925426.830 9
  22815521.453   -15647899.499 8 -11772037.930 9
  26992385.720    19554039.495 4  15212170.384 2
 94  2  8 21 28 30.0080000  0  8 19 22 28 31 27 29 18 14
  23824316.779    -6363168.123 8  -7365369.792 9
  27051826.860    10425668.718 5   8103562.950 3
  25831802.355    -3895504.310 6  -3890896.608 3
  25357658.039    -8798379.636 6  -7550535.388 3
  25509639.084    -6407193.567 6  -5526684.372 5
  23725393.272   -11770598.645 7  -1866935.711 9
  22818782.985   -15630765.450 8 -11758686.710 9
  27018742.034    19692549.466 4  15320100.065 2
 94  2  8 21 29  0.0080000  0  8 19 22 28 31 27 29 18 14
  23823670.336    -6366569.505 8  -7368020.179 9
  27076936.877    10557647.048 5   8206403.176 3
  25834266.320    -3882556.371 6  -3880807.201 3
  25350136.516    -8837901.697 6  -7581331.650 3
  25502188.372    -6446317.934 6  -5557170.841 5
  23739746.016   -11695169.361 7  -1808159.663 9
  22822122.523   -15613222.919 8 -11745017.195 9
  27045089.024    19830975.382 5  15427964.245 2
 94  2  8 21 29 30.0080000  0  8 19 22 28 31 27 29 18 14
  23823052.464    -6369834.478 8  -7370564.269 9
  27102057.956    10689656.271 5   8309267.500 3
  25836813.956    -3869124.337 6  -3870340.618 3
  25342666.197    -8877127.679 6  -7611897.193 3
  25494762.783    -6485390.196 6  -5587616.672 5
  23754170.380   -11619360.325 7  -1749087.682 9
  22825538.029   -15595275.484 8 -11731032.164 9
  27071414.010    19969323.868 5  15535768.067 2
 94  2  8 21 30  0.0080000  0  8 19 22 28 31 27 29 18 14
  23822456.686    -6372948.009 8  -7372990.361 9
  27127190.607    10821721.094 4   8412175.151 3
  25839471.586    -3855180.347 6  -3859475.092 3
  25335269.328    -8916032.331 6  -7642212.370 3
  25487338.273    -6524390.468 6  -5618006.423 5
  23768674.099   -11543148.056 7  -1689701.536 9
  22829032.949   -15576906.447 8 -11716718.611 9
  27097734.829    20107608.953 4  15643522.462 2
 94  2  8 21 30 30.0080000  0  8 19 22 28 31 27 29 18 14
  23821894.875    -6375887.862 8  -7375281.116 9
  27152337.168    10953864.319 5   8515143.860 3
  25842223.771    -3840711.461 6  -3848200.567 3
  25327927.321    -8954604.909 6  -7672268.801 3
  25479930.461    -6563299.294 6  -5648324.916 5
  23783257.084   -11466521.595 7  -1629992.619 9
  22832611.392   -15558098.120 8 -11702062.756 9
  27124037.390    20245853.198 5  15751245.036 2
 94  2  8 21 31  0.0080000  0  8 19 22 28 31 27 29 18 14
  23821374.316    -6378630.906 8  -7377418.503 9
  27177507.533    11086101.341 4   8618185.677 3
  25845079.414    -3825715.979 6  -3836515.755 3
  25320653.816    -8992823.079 6  -7702049.064 3
  25472547.143    -6602094.418 6  -5678554.780 5
  23797922.121   -11389456.896 7  -1569942.212 8
  22836275.455   -15538837.232 8 -11687054.246 9
  27150339.771    20384077.306 4  15858951.930 2
 94  2  8 21 31 30.0090000  0  8 19 22 28 31 27 29 18 14
  23820891.770    -6381169.185 8  -7379396.342 9
  27202681.555    11218422.747 4   8721293.249 3
  25848037.736    -3810201.596 6  -3824426.556 3
  25313452.681    -9030663.483 6  -7731534.982 3
  25465183.280    -6640795.490 6  -5708711.385 5
  23812667.144   -11311955.950 7  -1509551.880 8
  22840028.257   -15519115.849 8 -11671686.921 9
  27176644.041    20522297.176 5  15966655.443 2
 94  2  8 21 32  0.0090000  0  8 19 22 28 31 27 29 18 14
  23820448.407    -6383501.698 8  -7381213.845 9
  27227873.385    11350805.071 3   8824448.275 3
  25851082.368    -3794171.861 6  -3811935.810 3
  25306326.555    -9068127.137 6  -7760727.336 3
  25457833.299    -6679394.601 6  -5738788.532 5
  23827497.487   -11234042.374 7  -1448840.019 8
  22843871.537   -15498922.777 8 -11655952.049 9
  27202938.448    20660504.992 5  16074349.684 2
 94  2  8 21 32 30.0090000  0  8 19 22 28 31 27 29 18 14
  23820042.308    -6385637.815 8  -7382878.301 9
  27253071.601    11483238.624 4   8927643.210 3
  25854233.816    -3777613.672 6  -3799033.274 3
  25299270.519    -9105204.737 6  -7789618.874 3
  25450515.275    -6717894.982 6  -5768788.742 5
  23842397.742   -11155728.571 7  -1387816.278 8
  22847805.923   -15478251.757 8 -11639844.736 9
  27229241.488    20798702.886 5  16182036.118 2
 94  2  8 21 33  0.0090000  0  8 19 22 28 31 27 29 18 14
  23819670.535    -6387593.378 8  -7384402.081 9
  27278278.511    11615698.752 4   9030858.832 3
  25857477.960    -3760539.280 6  -3785728.522 3
  25292285.985    -9141893.299 6  -7818207.279 3
  25443205.226    -6756291.763 6  -5798708.214 5
  23857377.351   -11077018.203 8  -1326483.541 8
  22851832.226   -15457106.633 8 -11623368.003 9
  27255529.929    20936874.240 5  16289701.907 3
 94  2  8 21 33 30.0090000  0  8 19 22 28 31 27 29 18 14
  23819333.119    -6389380.079 8  -7385794.274 9
  27303481.343    11748166.883 4   9134080.709 3
  25860826.942    -3742955.234 6  -3772026.614 4
  25285375.169    -9178212.750 6  -7846508.069 3
  25435916.192    -6794588.735 6  -5828549.938 5
  23872426.393   -10997932.425 8  -1264858.277 8
  22855946.128   -15435485.419 8 -11606520.279 9
  27281822.567    21075001.494 5  16397333.318 3
 94  2  8 21 34  0.0090000  0  8 19 22 28 31 27 29 18 14
  23819016.928    -6391014.477 8  -7387067.786 9
  27328697.726    11880646.640 4   9237311.700 3
  25864268.110    -3724857.244 6  -3757924.237 4
  25278534.655    -9214177.691 6  -7874532.622 3
  25428648.233    -6832782.622 6  -5858311.297 5
  23887542.768   -10918483.626 8  -1202950.123 8
  22860146.310   -15413403.611 9 -11589313.667 9
  27308090.023    21213045.776 5  16504900.059 3
 94  2  8 21 34 30.0090000  0  8 19 22 28 31 27 29 18 14
  23818736.082    -6392502.351 8  -7388227.133 9
  27353915.219    12013144.148 4   9340556.495 2
  25867809.768    -3706238.696 6  -3743416.238 4
  25271757.846    -9249787.975 6  -7902280.806 4
  25421400.571    -6870880.786 6  -5887998.067 5
  23902733.672   -10838658.250 8  -1140748.550 8
  22864433.462   -15390866.802 8 -11571752.508 9
  27334339.850    21350990.938 4  16612389.584 3
 94  2  8 21 35  0.0090000  0  8 19 22 28 31 27 29 18 14
  23818483.267    -6393817.275 8  -7389251.717 9
  27379130.792    12145670.743 4   9443823.941 2
  25871459.261    -3687107.456 6  -3728508.753 4
  25265048.491    -9285046.303 6  -7929754.772 4
  25414172.934    -6908878.576 6  -5917606.667 5
  23918001.772   -10758439.020 8  -1078240.093 8
  22868810.132   -15367868.262 8 -11553831.567 9
  27360582.243    21488838.995 3  16719803.423 3
 94  2  8 21 35 30.0090000  0  7 19 22 28 31 27 29 18
  23818269.215    -6394951.524 8  -7390135.515 9
  27404357.188    12278235.419 5   9547121.109 2
  25875191.947    -3667462.373 6  -3713200.845 4
  25258404.520    -9319952.727 6  -7956954.486 4
  25406953.572    -6946791.126 6  -5947148.847 5
  23933342.452   -10677822.960 8  -1015422.393 8
  22873276.110   -15344415.979 8 -11535557.050 9
 94  2  8 21 36  0.0090000  0  7 19 22 28 31 27 29 18
  23818087.301    -6395908.548 8  -7390881.200 9
  27429592.638    12410847.730 5   9650455.442 2
  25879028.002    -3647299.758 6  -3697489.667 4
  25251830.222    -9354496.902 6  -7983871.899 4
  25399757.324    -6984616.091 6  -5976622.758 5
  23948758.290   -10596807.895 8   -952293.779 8
  22877820.215   -15320526.807 8 -11516942.092 9
 94  2  8 21 36 30.0090000  0  7 19 22 28 31 27 29 18
  23817943.101    -6396692.401 8  -7391491.971 9
  27454835.853    12543487.197 5   9753810.874 2
  25882964.307    -3626633.803 6  -3681386.282 4
  25245320.468    -9388690.660 6  -8010516.290 4
  25392575.286    -7022353.454 6  -6006028.435 5
  23964249.705   -10515401.164 8   -888859.968 8
  22882447.092   -15296208.549 8 -11497992.795 9
 94  2  8 21 37  0.0090000  0  7 19 22 28 31 27 29 18
  23817819.766    -6397311.889 8  -7391974.649 9
  27480078.168    12676152.959 5   9857186.958 1
  25886992.168    -3605461.865 6  -3664888.621 4
  25238886.832    -9422518.702 6  -8036875.694 4
  25385411.235    -7059994.607 6  -6035359.111 5
  23979811.362   -10433609.659 8   -825126.336 8
  22887154.643   -15271471.882 8 -11478717.454 9
 94  2  8 21 37 30.0090000  0  7 19 22 28 31 27 29 18
  23817728.809    -6397783.951 8  -7392342.460 9
  27505325.729    12808840.131 5   9960579.585 1
  25891120.190    -3583770.322 6  -3647986.065 4
  25232517.082    -9455971.955 6  -8062943.047 4
  25378267.391    -7097537.490 6  -6064613.235 5
  23995451.565   -10351428.308 8   -761088.944 8
  22891942.478   -15246305.811 8 -11459107.522 9
 94  2  8 21 38  0.0090000  0  7 19 22 28 31 27 29 18
  23817671.639    -6398105.085 8  -7392592.666 9
  27530583.304    12941548.907 5  10063988.981 1
  25895350.682    -3561542.311 6  -3630665.485 4
  25226219.881    -9489050.704 6  -8088718.566 4
  25371147.410    -7134970.133 6  -6093781.460 5
  24011164.677   -10268858.193 8   -696748.617 8
  22896817.943   -15220684.321 8 -11439142.716 9
 94  2  8 21 38 30.0090000  0  8 19 22 28 31  2 27 29 18
  23817642.919    -6398264.033 8  -7392716.503 9
  27555841.808    13074277.505 5  10167413.919 1
  25899680.015    -3538778.129 6  -3612927.107 4
  25220006.773    -9521749.439 6  -8114197.964 4
  27683044.107    -6023083.86614   -136611.701
  25364040.590    -7172299.548 6  -6122869.270 5
  24026953.606   -10185892.729 8   -632100.225 8
  22901784.664   -15194581.207 8 -11418802.622 9
 94  2  8 21 39  0.0090000  0  7 19 28 31  2 27 29 18
  23817642.739    -6398243.553 8  -7392700.528 9
  25904116.823    -3515471.886 6  -3594766.351 4
  25213854.102    -9554044.065 6  -8139362.472 4
  27670009.041    -6091650.394 4   -190039.859 1
  25356955.715    -7209531.382 6  -6151881.029 5
  24042824.199   -10102505.618 8   -567123.261 8
  22906848.609   -15167972.504 8 -11398068.557 9
 94  2  8 21 39 30.0090000  0  7 19 28 31  2 27 29 18
  23817680.543    -6398057.745 8  -7392555.720 9
  25908649.865    -3491653.718 6  -3576206.712 4
  25207779.228    -9585961.500 6  -8164233.083 4
  27656978.982    -6160133.548 4   -243403.025 1
  25349883.341    -7246691.743 6  -6180837.094 5
  24058764.374   -10018717.840 8   -501834.102 8
  22912008.996   -15140864.197 8 -11376945.186 9
 94  2  8 21 40  0.0090000  0  7 19 28 31  2 27 29 18
  23817743.769    -6397712.687 8  -7392286.808 9
  25913274.883    -3467339.039 6  -3557260.126 4
  25201779.691    -9617511.933 6  -8188817.704 4
  27643947.813    -6228557.880 4   -296720.415 2
  25342826.197    -7283791.581 6  -6209746.008 5
  24074779.527    -9934565.854 8   -436261.140 8
  22917258.542   -15113287.348 8 -11355456.716 9
 94  2  8 21 40 30.0090000  0  7 19 28 31  2 27 29 18
  23817838.953    -6397210.488 8  -7391895.471 9
  25918000.572    -3442526.377 6  -3537925.572 4
  25195843.770    -9648684.790 6  -8213108.129 5
  27630952.739    -6296899.600 3   -349973.331 2
  25335772.919    -7320834.329 6  -6238610.445 5
  24090861.624    -9850047.396 8   -370402.622 8
  22922589.392   -15085265.882 8 -11333621.798 9
 94  2  8 21 41  0.0090000  0  7 19 28 31  2 27 29 18
  23817958.151    -6396573.535 8  -7391399.101 9
  25922816.617    -3417219.082 6  -3518205.556 4
  25189986.845    -9679483.378 6  -8237106.900 5
  27617958.655    -6365145.899 3   -403151.932 2
  25328736.011    -7357823.472 6  -6267433.103 5
  24107012.433    -9765174.123 8   -304267.617 8
  22928001.155   -15056817.467 8 -11311454.189 9
 94  2  8 21 41 30.0090000  0  7 19 28 31  2 27 29 18
  23818104.689    -6395809.620 8  -7390803.836 9
  25927723.261    -3391415.659 6  -3498098.965 4
  25184196.803    -9709911.511 6  -8260817.037 5
  27604992.871    -6433299.503 3   -456258.277 2
  25321714.842    -7394745.190 6  -6296203.246 5
  24123225.449    -9679970.211 8   -237874.975 7
  22933496.441   -15027944.940 8 -11288956.104 9
 94  2  8 21 42  0.0090000  0  7 19 28 31  2 27 29 18
  23818281.177    -6394894.578 8  -7390090.786 9
  25932736.000    -3365089.932 6  -3477585.381 4
  25178481.740    -9739944.355 6  -8284219.159 5
  27592051.580    -6501328.590 3   -509267.653 2
  25314702.096    -7431584.951 6  -6324909.483 5
  24139507.866    -9594408.132 7   -171203.246 7
  22939075.009   -14998626.771 8 -11266110.758 9
 94  2  8 21 42 30.0090000  0  7 19 28 31  2 27 29 18
  23818483.927    -6393836.116 8  -7389265.992 9
  25937839.967    -3338257.539 6  -3456677.006 4
  25172844.143    -9769576.915 6  -8307309.372 5
  27579102.585    -6569224.263 3   -562173.037 2
  25307706.559    -7468339.849 6  -6353549.597 5
  24155861.515    -9508461.434 7   -104231.817 7
  22944739.887   -14968858.630 8 -11242914.788 9
 94  2  8 21 43  0.0090000  0  7 19 28 31  2 27 29 18
  23818712.548    -6392621.572 8  -7388319.560 9
  25943036.779    -3310920.013 6  -3435375.016 4
  25167275.048    -9798799.171 6  -8330079.872 5
  27566244.036    -6636988.329 3   -614975.888 2
  25300732.278    -7504985.587 6  -6382104.650 5
  24172293.469    -9422119.384 7    -36952.311 7
  22950495.782   -14938611.633 8 -11219345.693 9
 94  2  8 21 43 30.0090000  0  7 19 28 31  2 27 29 18
  23818978.524    -6391223.361 8  -7387230.022 9
  25948341.697    -3283057.738 6  -3413664.108 4
  25161800.178    -9827604.583 6  -8352525.567 5
  27553353.171    -6704615.199 3   -667671.865 2
  25293783.538    -7541509.640 6  -6410564.896 5
  24188801.331    -9335374.642 7     30640.968 7
  22956344.134   -14907883.648 8 -11195401.792 9
 94  2  8 21 44  0.0090000  0  7 19 28 31  2 27 29 18
  23819285.212    -6389622.417 8  -7385982.507 9
  25953751.722    -3254646.915 6  -3391525.798 4
  25156395.700    -9855977.942 6  -8374634.638 5
  27540527.330    -6772084.000 4   -720244.665 2
  25286852.546    -7577913.236 6  -6438931.270 5
  24205385.550    -9248205.553 7     98564.922 7
  22962279.395   -14876678.228 8 -11171085.872 9
 94  2  8 21 44 30.0090000  0  7 19 28 31  2 27 29 18
  23819625.087    -6387823.695 8  -7384580.883 9
  25959263.676    -3225675.312 6  -3368950.489 4
  25151082.868    -9883911.532 6  -8396400.992 5
  27527708.684    -6839392.806 4   -772692.801 2
  25279953.662    -7614186.381 6  -6467195.996 5
  24222054.970    -9160627.357 7    166807.647 7
  22968310.769   -14844984.889 8 -11146389.748 9
 94  2  8 21 45  0.0090000  0  7 19 28 31  2 27 29 18
  23820005.164    -6385828.214 8  -7383025.925 9
  25964882.086    -3196136.326 6  -3345933.104 4
  25145846.033    -9911419.538 6  -8417835.740 5
  27514927.152    -6906562.397 4   -825032.406 2
  25273067.639    -7650364.575 6  -6495386.731 5
  24238794.931    -9072667.808 7    235347.547 7
  22974434.660   -14812801.818 8 -11121312.005 9
 94  2  8 21 45 30.0090000  0  7 19 28 31  2 27 29 18
  23820422.265    -6383639.435 8  -7381320.381 9
  25970609.411    -3166035.803 6  -3322478.122 4
  25140695.539    -9938505.279 6  -8438941.486 4
  27502175.720    -6973596.612 4   -877266.618 2
  25266196.156    -7686472.717 6  -6523522.870 5
  24255602.526    -8984330.788 7    304181.563 7
  22980653.704   -14780130.623 8 -11095853.914 9
 94  2  8 21 46  0.0090000  0  7 19 28 31  2 27 29 18
  23820869.915    -6381295.844 8  -7379494.180 9
  25976441.993    -3135409.650 6  -3298613.557 4
  25135611.628    -9965186.770 6  -8459732.204 4
  27489436.129    -7040517.751 4   -929412.700 2
  25259336.755    -7722524.668 7  -6551615.251 5
  24272479.972    -8895625.632 7    373302.452 7
  22986963.706   -14746970.545 8 -11070014.875 9
 94  2  8 21 46 30.0090000  0  7 19 28 31  2 27 29 18
  23821338.251    -6378821.528 8  -7377566.125 9
  25982362.505    -3104283.553 6  -3274359.450 4
  25130614.118    -9991474.431 6  -8480216.040 4
  27476716.625    -7107346.517 4   -981486.819 2
  25252486.108    -7758524.391 7  -6579666.909 5
  24289432.995    -8806553.881 7    442708.988 7
  22993366.164   -14713326.318 8 -11043798.585 9
 94  2  8 21 47  0.0090000  0  7 19 28 31  2 27 29 18
  23821832.009    -6376198.417 8  -7375522.120 9
  25988380.389    -3072666.896 6  -3249723.044 4
  25125691.736   -10017354.037 6  -8500381.906 4
  27464010.401    -7174075.539 4  -1033483.203 2
  25245648.351    -7794456.864 7  -6607666.158 5
  24306456.380    -8717093.195 7    512418.599 7
  22999860.448   -14679203.833 8 -11017209.629 9
 94  2  8 21 47 30.0090000  0  7 19 28 31  2 27 29 18
  23822360.633    -6373451.448 8  -7373381.611 9
  25994488.300    -3040562.655 6  -3224706.747 4
  25120846.790   -10042817.557 6  -8520223.569 4
  27451341.951    -7240707.167 5  -1085403.718 2
  25238824.355    -7830304.463 7  -6635599.274 5
  24323551.116    -8627251.102 7    582425.405 7
  23006436.725   -14644628.989 8 -10990268.190 9
 94  2  8 21 48  0.0090000  0  7 19 28 31  2 27 29 18
  23822905.476    -6370586.099 8  -7371148.846 9
  26000693.045    -3007963.647 6  -3199304.891 4
  25116073.854   -10067858.617 7  -8539736.019 4
  27438679.857    -7307246.602 4  -1137252.397 2
  25232018.647    -7866075.200 7  -6663472.528 6
  24340714.114    -8537045.260 7    652715.649 7
  23013100.242   -14609623.447 8 -10962991.143 9
 94  2  8 21 48 30.0090000  0  7 19 28 31  2 27 29 18
  23823477.989    -6367588.171 8  -7368812.770 9
  26006992.014    -2974865.249 6  -3173513.877 4
  25111395.143   -10092465.398 7  -8558910.071 4
  27426033.502    -7373683.014 4  -1189020.817 2
  25225228.917    -7901774.190 7  -6691289.828 6
  24357948.313    -8446498.548 7    723271.523 7
  23019838.048   -14574203.985 9 -10935391.537 9
 94  2  8 21 49  0.0090000  0  7 19 28 31  2 27 29 18
  23824070.379    -6364472.809 8  -7366385.195 9
  26013375.945    -2941278.593 6  -3147342.427 4
  25106797.856   -10116656.318 6  -8577760.081 5
  27413418.805    -7440018.001 4  -1240710.239 2
  25218446.263    -7937418.836 7  -6719064.838 6
  24375240.162    -8355647.874 7    794064.238 7
  23026656.527   -14538380.780 8 -10907477.357 9
 94  2  8 21 49 30.0090000  0  7 19 28 31  2 27 29 18
  23824681.356    -6361252.273 8  -7363875.645 9
  26019871.878    -2907185.149 6  -3120776.089 4
  25102265.383   -10140446.826 6  -8596298.047 5
  27400814.361    -7506245.169 4  -1292315.590 2
  25211668.975    -7973022.893 7  -6746808.175 6
  24392580.878    -8264500.310 7    865088.306 7
  23033550.135   -14502150.117 8 -10879245.656 9
 94  2  8 21 50  0.0090000  0  7 19 28 31  2 27 29 18
  23825318.595    -6357906.606 8  -7361268.605 9
  26026448.934    -2872597.996 6  -3093825.010 4
  25097814.065   -10163851.127 6  -8614535.076 5
  27388229.643    -7572355.549 4  -1343829.983 2
  25204903.588    -8008583.433 6  -6774517.620 6
  24409980.532    -8173056.713 7    936343.047 7
  23040527.355   -14465491.497 8 -10850680.486 9
 94  2  8 21 50 30.0090000  0  7 19 28 31  2 27 29 18
  23825978.258    -6354442.995 8  -7358569.678 9
  26033121.895    -2837530.652 6  -3066499.777 4
  25093433.108   -10186868.082 7  -8632470.295 5
  27375671.727    -7638350.742 5  -1395254.640 2
  25198146.416    -8044081.134 6  -6802178.126 6
  24427440.565    -8081308.982 7   1007834.755 7
  23047585.608   -14428393.391 9 -10821772.868 9
 94  2  8 21 51  0.0090000  0  7 19 28 31  2 27 29 18
  23826658.338    -6350854.463 8  -7355773.392 9
  26039896.665    -2801973.480 6  -3038792.855 4
  25089127.219   -10209486.123 7  -8650094.653 5
  27363125.113    -7704241.914 4  -1446598.214 2
  25191400.936    -8079518.585 6  -6829791.653 6
  24444963.134    -7989236.651 7   1079579.429 7
  23054731.462   -14390837.333 9 -10792508.404 9
 94  2  8 21 51 30.0090000  0  7 19 28 31  2 27 29 18
  23827370.914    -6347123.246 8  -7352865.929 9
  26046750.010    -2765926.111 6  -3010703.956 4
  25084897.986   -10231701.127 7  -8667404.936 5
  27350608.328    -7770046.829 4  -1497874.535 2
  25184669.666    -8114895.842 7  -6857358.283 6
  24462545.272    -7896837.788 7   1151578.527 7
  23061967.042   -14352824.047 9 -10762887.632 9
 94  2  8 21 52  0.0090000  0  7 19 28 31  2 27 29 18
  23828108.284    -6343250.599 8  -7349848.243 9
  26053694.283    -2729421.984 6  -2982259.138 4
  25080753.865   -10253504.662 7  -8684394.643 5
  27338095.290    -7835780.221 4  -1549095.167 2
  25177949.188    -8150220.426 7  -6884883.873 6
  24480186.320    -7804126.849 7   1223820.807 7
  23069285.426   -14314360.055 8 -10732915.683 9
 94  2  8 21 52 30.0090000  0  7 19 28 31  2 27 29 18
  23828869.007    -6339244.314 8  -7346726.442 9
  26060731.701    -2692441.058 6  -2953442.804 4
  25076685.772   -10274874.803 7  -8701046.614 5
  27325618.528    -7901438.627 3  -1600257.293 2
  25171233.418    -8185506.249 7  -6912379.252 6
  24497889.994    -7711093.412 7   1296314.397 7
  23076691.289   -14275450.370 9 -10702596.433 9
 94  2  8 21 53  0.0090000  0  7 19 28 31  2 27 29 18
  23829656.622    -6335110.293 8  -7343505.075 9
  26067860.766    -2654962.223 6  -2924238.456 4
  25072696.493   -10295825.687 7  -8717371.865 5
  27313139.907    -7967019.714 3  -1651359.215 2
  25164523.673    -8220768.780 6  -6939856.503 6
  24515653.296    -7617742.825 7   1369055.098 7
  23084178.276   -14236099.867 8 -10671933.704 9
 94  2  8 21 53 30.0090000  0  7 19 28 31  2 27 29 18
  23830464.473    -6330855.905 8  -7340189.972 9
  26075091.490    -2616968.647 6  -2894633.073 4
  25068790.258   -10316354.595 6  -8733368.354 5
  27300657.118    -8032491.353 3  -1702375.913 2
  25157821.453    -8255988.507 7  -6967300.387 6
  24533480.935    -7524069.532 7   1442047.250 7
  23091751.933   -14196307.601 8 -10640926.724 9
 94  2  8 21 54  0.0090000  0  7 19 28 31  2 27 29 18
  23831293.279    -6326503.881 8  -7336798.760 9
  26082427.801    -2578443.871 6  -2864613.729 4
  25064964.786   -10336450.936 7  -8749027.761 5
  27288224.635    -8097836.082 3  -1753293.677 2
  25151125.048    -8291158.133 7  -6994705.262 6
  24551369.461    -7430053.395 7   1515306.554 6
  23099409.202   -14156076.480 8 -10609577.799 9
 94  2  8 21 54 30.0090000  0  7 19 28 31  2 27 29 18
  23832140.672    -6322048.944 8  -7333327.363 9
  26089863.104    -2539358.055 6  -2834157.211 4
  25061227.064   -10356101.648 6  -8764339.915 5
  27275824.979    -8163040.693 3  -1804102.229 2
  25144451.548    -8326258.673 7  -7022056.291 6
  24569331.855    -7335658.668 7   1588860.874 6
  23107146.216   -14115395.071 8 -10577878.003 9
 94  2  8 21 55  0.0090000  0  7 19 28 31  2 27 29 18
  23833013.968    -6317475.509 8  -7329763.619 9
  26097404.413    -2499726.623 6  -2803275.564 4
  25057571.274   -10375309.034 7  -8779306.625 5
  27263442.921    -8228101.522 4  -1854798.763 2
  25137785.663    -8361268.712 6  -7049336.787 6
  24587373.336    -7240881.558 7   1662713.142 6
  23114975.835   -14074251.938 8 -10545818.400 9
 94  2  8 21 55 30.0090000  0  7 19 28 31  2 27 29 18
  23833905.700    -6312789.999 8  -7326112.560 9
  26105047.951    -2459599.625 6  -2772007.689 4
  25053997.389   -10394076.883 7  -8793930.864 5
  27251094.380    -8293042.904 4  -1905402.241 2
  25131140.553    -8396199.042 7  -7076555.182 6
  24605474.624    -7145734.654 7   1736853.546 6
  23122888.647   -14032667.762 8 -10513415.144 9
 94  2  8 21 56  0.0090000  0  7 19 28 31  2 27 29 18
  23834820.847    -6307966.555 8  -7322354.015 9
  26112769.796    -2418997.249 6  -2740369.433 4
  25050515.509   -10412396.446 7  -8808205.759 5
  27238747.488    -8357877.198 4  -1955922.207 2
  25124506.926    -8431051.484 6  -7103712.907 6
  24623648.583    -7050212.287 7   1811286.558 6
  23130890.528   -13990626.655 8 -10480655.846 9
 94  2  8 21 56 30.0090000  0  7 19 28 31  2 27 29 18
  23835772.238    -6302969.491 8  -7318460.181 9
  26120582.927    -2377927.633 6  -2708367.107 4
  25047118.980   -10430253.322 7  -8822120.123 5
  27226433.782    -8422595.167 4  -2006351.659 2
  25117889.397    -8465828.967 6  -7130812.216 6
  24641897.549    -6954323.286 7   1886005.219 6
  23138982.586   -13948106.030 8 -10447522.881 9
 94  2  8 21 57  0.0090000  0  7 19 28 31  2 27 29 18
  23836758.585    -6297786.674 8  -7314421.600 9
  26128490.792    -2336388.209 6  -2675998.685 4
  25043809.691   -10447641.788 7  -8835669.504 5
  27214140.523    -8487176.329 4  -2056674.433 2
  25111285.779    -8500528.069 7  -7157850.429 6
  24660215.708    -6858083.005 7   1960997.641 6
  23147164.491   -13905099.874 8 -10414011.584 9
 94  2  8 21 57 30.0090000  0  7 19 28 31  2 27 29 18
  23837783.666    -6292406.881 8  -7310229.529 9
  26136484.338    -2294346.036 6  -2643238.515 4
  25040597.055   -10464524.569 7  -8848824.843 5
  27201886.656    -8551578.116 4  -2106857.451 3
  25104701.737    -8535140.995 7  -7184821.504 6
  24678598.862    -6761475.025 7   2036276.548 6
  23155446.138   -13861589.368 8 -10380107.284 9
 94  2  8 21 58  0.0090000  0  7 19 28 31  2 27 29 18
  23838845.711    -6286831.208 8  -7305884.823 9
  26144590.277    -2251769.788 6  -2610062.186 4
  25037479.034   -10480901.470 7  -8861586.000 5
  27189666.066    -8615779.040 5  -2156883.931 3
  25098131.305    -8569670.793 7  -7211727.799 6
  24697050.038    -6664510.219 7   2111833.525 6
  23163821.020   -13817569.725 8 -10345806.253 9
 94  2  8 21 58 30.0090000  0  7 19 28 31  2 27 29 18
  23839943.281    -6281059.155 8  -7301387.092 9
  26152801.292    -2208613.130 6  -2576433.559 4
  25034463.182   -10496761.627 7  -8873944.481 5
  27177493.023    -8679754.364 5  -2206734.626 3
  25091578.112    -8604092.338 7  -7238549.726 6
  24715570.976    -6567181.634 7   2187673.956 6
  23172296.333   -13773033.371 8 -10311102.576 9
 94  2  8 21 59  0.0090000  0  7 19 28 31  2 27 29 18
  23841072.779    -6275103.341 8  -7296746.175 9
  26161127.548    -2164855.879 6  -2542336.975 4
  25031544.432   -10512105.927 7  -8885901.023 5
  27165367.587    -8743493.445 5  -2256401.275 3
  25085051.840    -8638385.223 7  -7265271.427 6
  24734158.888    -6469490.552 7   2263796.838 6
  23180870.847   -13727981.023 8 -10275996.855 9
 94  2  8 21 59 30.0090000  0  7 19 28 31  2 27 29 18
  23842248.175    -6268958.628 8  -7291958.061 9
  26169572.192    -2120491.870 6  -2507767.605 4
  25028716.820   -10526935.245 7  -8897456.266 5
  27153283.883    -8807007.734 5  -2305892.733 3
  25078552.879    -8672533.993 7  -7291880.795 6
  24752816.831    -6371446.215 7   2340195.016 6
  23189540.695   -13682406.778 8 -10240484.438 9
 94  2  8 22  0  0.0090000  0  7 19 28 31  2 27 29 18
  23843450.313    -6262631.305 8  -7287027.638 9
  26178133.186    -2075522.850 6  -2472726.807 4
  25025989.458   -10541267.174 7  -8908623.942 5
  27141234.684    -8870333.730 5  -2355237.483 3
  25072085.756    -8706528.741 7  -7318370.168 6
  24771539.230    -6273056.444 7   2416862.347 6
  23198311.213   -13636322.261 8 -10204574.413 9
 94  2  8 22  0 30.0090000  0  7 19 28 31  2 27 29 18
  23844691.364    -6256108.294 8  -7281944.741 9
  26186799.886    -2029955.511 6  -2437219.793 4
  25023362.766   -10555080.631 7  -8919387.587 5
  27129222.000    -8933461.395 5  -2404427.693 3
  25065653.199    -8740349.371 7  -7344723.854 6
  24790337.297    -6174292.464 7   2493821.268 6
  23207180.933   -13589707.833 8 -10168251.486 9
 94  2  8 22  1  0.0100000  0  7 19 28 31  2 27 29 18
  23845970.668    -6249381.622 8  -7276703.155 9
  26195580.687    -1983807.848 6  -2401260.544 4
  25020836.865   -10568361.022 7  -8929735.889 5
  27117236.718    -8996390.832 5  -2453463.378 3
  25059247.504    -8773992.388 7  -7370939.143 6
  24809205.185    -6075132.828 7   2571088.492 6
  23216153.242   -13542557.657 8 -10131511.081 9
 94  2  8 22  1 30.0100000  0  7 19 28 31  2 27 29 18
  23847290.354    -6242448.168 8  -7271300.434 9
  26204477.208    -1937098.408 6  -2364863.566 4
  25018410.285   -10581102.003 7  -8939663.870 5
  27105298.532    -9059126.843 5  -2502348.423 3
  25052875.295    -8807466.750 7  -7397023.008 6
  24828151.109    -5975562.135 7   2648676.011 6
  23225230.597   -13494877.550 8 -10094357.749 9
 94  2  8 22  2  0.0100000  0  7 19 28 31  2 27 29 18
  23848649.164    -6235314.166 8  -7265741.441 9
  26213462.138    -1889844.237 6  -2328042.135 4
  25016084.225   -10593312.671 7  -8949178.638 5
  27093400.159    -9121676.590 5  -2551088.248 3
  25046530.608    -8840804.321 7  -7423000.286 6
  24847185.681    -5875559.336 7   2726600.248 6
  23234403.137   -13446670.110 8 -10056793.493 9
 94  2  8 22  2 30.0100000  0  7 19 28 31  2 27 29 18
  23850042.659    -6227981.759 8  -7260027.856 9
  26222554.034    -1842056.548 6  -2290804.984 4
  25013865.581   -10604999.926 7  -8958285.549 5
  27081529.157    -9184031.885 5  -2599676.588 3
  25040211.432    -8874025.486 7  -7448886.857 6
  24866287.887    -5775140.105 7   2804848.975 6
  23243677.637   -13397930.164 8 -10018814.304 9
 94  2  8 22  3  0.0100000  0  7 19 28 31  2 27 29 18
  23851472.399    -6220459.275 8  -7254166.159 9
  26231752.266    -1793724.812 6  -2253143.879 4
  25011739.843   -10616166.819 7  -8966986.962 5
  27069705.853    -9246199.061 5  -2648118.364 3
  25033910.035    -8907140.559 7  -7474690.764 6
  24885475.174    -5674325.458 7   2883405.834 6
  23253050.858   -13348666.600 8  -9980427.096 9
 94  2  8 22  3 30.0100000  0  7 19 28 31  2 27 29 18
  23852941.652    -6212738.583 8  -7248150.022 9
  26241057.674    -1744831.748 6  -2215045.403 4
  25009713.396   -10626807.057 7  -8975278.020 5
  27057915.375    -9308162.566 5  -2696401.448 2
  25027628.244    -8940154.623 7  -7500415.980 6
  24904733.991    -5573132.801 7   2962257.231 6
  23262526.308   -13298875.280 8  -9941628.680 9
 94  2  8 22  4  0.0100000  0  7 19 28 31  2 27 29 18
  23854452.126    -6204818.075 8  -7241978.186 9
  26250468.009    -1695362.062 6  -2176497.589 4
  25007789.538   -10636912.944 7  -8983152.686 5
  27046159.553    -9369923.925 5  -2744527.007 2
  25021365.879    -8973064.559 7  -7526060.038 6
  24924057.174    -5471579.770 7   3041389.438 6
  23272101.769   -13248561.808 8  -9902423.360 9
 94  2  8 22  4 30.0100000  0  7 19 28 31  2 27 29 18
  23855989.762    -6196711.051 8  -7235660.999 9
  26259995.773    -1645317.384 6  -2137501.722 4
  25005973.275   -10646474.399 7  -8990603.126 5
  27034439.527    -9431489.391 5  -2792499.945 2
  25015125.309    -9005858.469 7  -7551613.702 6
  24943444.033    -5369688.397 7   3120785.306 6
  23281768.877   -13197750.588 8  -9862830.191 9
 94  2  8 22  5  0.0100000  0  7 19 28 31  2 27 29 18
  23857571.647    -6188423.373 8  -7229203.060 9
  26269623.668    -1594713.109 6  -2098069.785 4
  25004255.704   -10655483.049 7  -8997622.802 5
  27022768.097    -9492870.367 5  -2840329.109 2
  25008904.046    -9038541.090 7  -7577080.655 6
  24962902.302    -5267452.576 7   3200449.578 6
  23291529.909   -13146459.629 8  -9822863.200 9
 94  2  8 22  5 30.0100000  0  7 19 28 31  2 27 29 18
  23859185.580    -6179932.691 8  -7222586.926 9
  26279353.072    -1543553.323 5  -2058205.035 4
  25002648.337   -10663930.727 7  -9004205.357 5
  27011124.787    -9554054.985 5  -2888005.280 2
  25002709.914    -9071101.568 7  -7602452.406 6
  24982424.757    -5164853.054 7   3280397.235 6
  23301382.678   -13094684.382 8  -9782518.846 9
 94  2  8 22  6  0.0100000  0  7 19 28 31  2 27 29 18
  23860841.993    -6171242.781 8  -7215815.554 9
  26289201.045    -1491839.430 6  -2017908.461 4
  25001150.664   -10671817.181 7  -9010350.602 5
  26999513.945    -9615051.233 5  -2935534.688 2
  24996539.436    -9103530.707 7  -7627721.838 6
  25002024.529    -5061868.465 7   3360644.961 6
  23311329.223   -13042416.317 8  -9741790.474 9
 94  2  8 22  6 30.0100000  0  7 19 28 31  2 27 29 18
  23862533.092    -6162352.002 8  -7208887.652 9
  26299144.651    -1439585.585 6  -1977191.180 4
  24999753.930   -10679151.537 7  -9016065.637 5
  26987946.154    -9675840.704 5  -2982902.973 2
  24990389.463    -9135832.026 7  -7652891.665 6
  25021693.252    -4958506.641 7   3441186.623 5
  23321371.700   -12989643.560 8  -9700668.845 9
 94  2  8 22  7  0.0100000  0  7 19 28 31  2 27 29 18
  23864262.265    -6153255.272 9  -7201799.276 9
  26309186.409    -1386786.687 6  -1936049.145 4
  24998464.103   -10685931.712 7  -9021348.846 5
  26976421.892    -9736402.606 5  -3030093.915 2
  24984266.832    -9168004.803 7  -7677961.332 6
  25041435.305    -4854754.878 7   3522032.125 5
  23331513.619   -12936348.292 8  -9659140.042 9
 94  2  8 22  7 30.0100000  0  7 19 28 31  2 27 29 18
  23866028.013    -6143969.091 8  -7194563.271 9
  26319340.829    -1333440.488 5  -1894480.663 4
  24997277.225   -10692174.609 7  -9026213.397 5
  26964939.121    -9796752.586 5  -3077119.720 2
  24978169.833    -9200064.148 7  -7702942.596 7
  25061248.529    -4750632.935 7   3603166.101 5
  23341753.570   -12882537.066 8  -9617209.224 9
 94  2  8 22  8  0.0100000  0  7 19 28 31  2 27 29 18
  23867830.455    -6134500.256 9  -7187184.923 9
  26329607.102    -1279538.788 6  -1852479.330 4
  24996187.989   -10697878.320 7  -9030657.785 5
  26953492.266    -9856896.295 5  -3123984.770 2
  24972089.202    -9232004.605 7  -7727831.213 7
  25081127.827    -4646150.166 7   3684581.225 5
  23352092.033   -12828198.422 8  -9574867.411 9
 94  2  8 22  8 30.0100000  0  7 19 28 31  2 27 29 18
  23869667.823    -6124834.931 9  -7179653.482 9
  26339970.208    -1225073.360 6  -1810038.731 4
  24995208.357   -10703025.305 7  -9034668.365 5
  26942088.970    -9916815.027 5  -3170674.509 2
  24966035.553    -9263816.230 7  -7752619.449 7
  25101081.293    -4541312.202 7   3766273.109 5
  23362534.674   -12773330.274 8  -9532113.014 9
 94  2  8 22  9  0.0100000  0  7 19 28 31  2 27 29 18
  23871543.414    -6114989.002 9  -7171981.311 9
  26350434.014    -1170045.393 6  -1767159.736 4
  24994341.507   -10707618.239 7  -9038247.204 5
  26930730.433    -9976533.521 5  -3217208.225 2
  24960007.836    -9295504.059 7  -7777311.216 7
  25121095.617    -4436123.929 7   3848237.977 5
  23373074.537   -12717938.537 8  -9488950.607 9
 94  2  8 22  9 30.0100000  0  7 19 28 31  2 27 29 18
  23873452.942    -6104961.465 9  -7164167.623 9
  26361012.940    -1114455.390 6  -1723842.832 4
  24993565.585   -10711661.377 7  -9041397.627 5
  26919398.638   -10036054.918 5  -3263588.370 3
  24954001.944    -9327066.137 7  -7801904.980 7
  25141175.866    -4330600.740 7   3930463.804 5
  23383715.850   -12662018.600 8  -9445375.070 9
 94  2  8 22 10  0.0100000  0  7 19 28 31  2 27 29 18
  23875394.308    -6094757.705 9  -7156216.616 9
  26371695.595    -1058322.013 6  -1680102.513 4
  24992900.825   -10715165.961 7  -9044128.402 5
  26908120.476   -10095369.741 5  -3309807.555 3
  24948018.116    -9358502.900 7  -7826401.096 7
  25161321.110    -4224754.384 7   4012941.486 5
  23394454.896   -12605574.678 8  -9401394.336 9
 94  2  8 22 10 30.0100000  0  7 19 28 31  2 27 29 18
  23877367.872    -6084387.196 9  -7148135.671 9
  26382478.470    -1001658.147 5  -1635948.841 4
  24992333.558   -10718136.052 7  -9046442.704 5
  26896859.971   -10154478.530 5  -3355866.103 3
  24942059.322    -9389825.982 7  -7850808.635 7
  25181521.545    -4118582.306 7   4095672.951 5
  23405295.361   -12548619.622 8  -9357013.770 9
 94  2  8 22 11  0.0100000  0  7 19 28 31  2 27 29 18
  23879371.385    -6073857.933 9  -7139931.039 9
  26393361.266     -944468.824 5  -1591385.698 4
  24991871.757   -10720582.144 7  -9048348.693 5
  26885653.519   -10213387.630 5  -3401769.150 3
  24936118.574    -9421039.013 7  -7875130.425 7
  25201791.263    -4012080.298 7   4178661.523 5
  23416229.692   -12491147.245 8  -9312230.095 9
 94  2  8 22 11 30.0100000  0  7 19 28 31  2 27 29 18
  23881406.197    -6063167.558 9  -7131600.853 9
  26404341.315     -886777.593 5  -1546431.485 4
  24991505.681   -10722513.251 7  -9049853.383 5
  26874476.237   -10272097.636 5  -3447517.028 3
  24930197.224    -9452146.214 7  -7899369.751 7
  25222121.029    -3905250.050 7   4261905.851 5
  23427263.703   -12433179.669 8  -9267060.557 9
 94  2  8 22 12  0.0100000  0  7 19 28 31  2 27 29 18
  23883471.377    -6052304.059 9  -7123135.760 9
  26415411.211     -828583.292 6  -1501085.223 4
  24991232.120   -10723907.444 7  -9050939.706 5
  26863350.879   -10330608.448 5  -3493109.698 3
  24924296.828    -9483146.377 7  -7923525.666 7
  25242516.090    -3798072.604 7   4345420.734 5
  23438389.900   -12374713.760 8  -9221502.685 9
 94  2  8 22 12 30.0100000  0  7 19 28 31  2 27 29 18
  23885569.384    -6041279.041 9  -7114544.810 9
  26426584.866     -769890.532 6  -1455350.569 4
  24991073.170   -10724754.450 7  -9051599.652 5
  26852248.455   -10388928.667 5  -3538553.827 3
  24918423.684    -9514038.364 7  -7947597.290 7
  25262978.334    -3690551.533 7   4429203.358 5
  23449604.896   -12315760.968 8  -9175565.436 9
 94  2  8 22 13  0.0100000  0  7 19 28 31  2 27 29 18
  23887699.290    -6030087.003 9  -7105823.715 9
  26437843.722     -710705.326 5  -1409232.194 4
  24991013.361   -10725060.588 7  -9051838.168 5
  26841187.912   -10447060.188 5  -3583850.974 3
  24912560.733    -9544832.391 7  -7971592.595 7
  25283502.695    -3582696.760 7   4513246.014 5
  23460913.038   -12256344.055 8  -9129266.547 9
 94  2  8 22 13 30.0100000  0  7 19 28 31  2 27 29 18
  23889865.021    -6018721.415 9  -7096967.370 9
  26449205.166     -651027.676 6  -1362730.100 4
  24991061.988   -10724817.727 7  -9051648.847 5
  26830159.087   -10505005.880 5  -3629003.308 3
  24906716.369    -9575537.409 7  -7995518.540 7
  25304085.516    -3474506.123 7   4597550.401 5
  23472307.010   -12196479.020 8  -9082618.460 9
 94  2  8 22 14  0.0100000  0  7 19 28 31  2 27 29 18
  23892058.062    -6007190.196 9  -7087981.993 9
  26460654.540     -590826.919 5  -1315820.375 4
  24991214.612   -10724016.520 7  -9051024.493 5
  26819169.925   -10562761.689 5  -3674007.717 3
  24900890.862    -9606146.599 7  -8019369.816 7
  25324742.236    -3365972.978 7   4682121.657 5
  23483785.254   -12136147.173 8  -9035606.622 9
 94  2  8 22 14 30.0100000  0  7 19 28 31  2 27 29 18
  23894284.771    -5995483.970 9  -7078860.225 9
  26472214.447     -530090.176 5  -1268493.000 4
  24991474.232   -10722661.007 7  -9049968.195 5
  26808219.016   -10620318.253 5  -3718856.855 3
  24895089.728    -9636649.164 7  -8043138.017 7
  25345456.366    -3257104.837 7   4766953.963 5
  23495357.812   -12075348.944 8  -8988231.365 9
 94  2  8 22 15  0.0100000  0  7 19 28 31  2 27 29 18
  23896550.542    -5983591.927 9  -7069593.674 9
  26483877.033     -468822.773 6  -1220752.057 5
  24991833.024   -10720756.624 7  -9048484.221 5
  26797298.746   -10677673.731 5  -3763549.285 3
  24889302.175    -9667050.401 7  -8066827.238 7
  25366237.559    -3147902.166 7   4852046.927 5
  23507018.360   -12014067.529 8  -8940479.616 9
 94  2  8 22 15 30.0100000  0  8 19 28 31 16  2 27 29 18
  23898844.194    -5971519.719 9  -7060186.730 9
  26495636.842     -407004.302 6  -1172581.880 4
  24992305.557   -10718292.447 7  -9046564.020 5
  27877945.630   -31126107.55614  -1208856.022 2
  26786423.445   -10734819.213 5  -3808078.120 3
  24883542.442    -9697317.795 7  -8090412.200 7
  25387085.846    -3038371.579 7   4937395.395 5
  23518777.929   -11952265.573 8  -8892322.239 9
 94  2  8 22 16  0.0100000  0  8 19 28 31 16  2 27 29 18
  23901179.338    -5959260.185 9  -7050633.826 9
  26507512.821     -344616.267 6  -1123967.798 4
  24992881.128   -10715264.765 7  -9044204.732 5
  27871979.010   -31157421.547 4  -1233256.459 2
  26775589.005   -10791742.284 5  -3852433.624 3
  24877815.747    -9727424.012 7  -8113871.547 7
  25407988.186    -2928526.499 7   5022988.928 5
  23530640.896   -11889924.020 8  -8843744.399 9
 94  2  8 22 16 30.0100000  0  8 19 28 31 16  2 27 29 18
  23903545.300    -5946805.666 9  -7040928.983 9
  26519481.345     -281689.936 6  -1074934.292 4
  24993559.919   -10711681.317 7  -9041412.389 5
  27866115.340   -31188281.277 4  -1257302.945 3
  26764804.901   -10848443.386 5  -3896616.195 3
  24872117.262    -9757374.500 7  -8137209.543 7
  25428940.921    -2818391.973 7   5108807.984 5
  23542601.776   -11827065.291 8  -8794763.566 9
 94  2  8 22 17  0.0100000  0  8 19 28 31 16  2 27 29 18
  23905950.895    -5934178.833 9  -7031089.877 9
  26531560.883     -218233.982 6  -1025488.092 4
  24994347.833   -10707549.911 7  -9038193.067 5
  27860308.180   -31218696.844 4  -1281003.291 3
  26754060.279   -10904929.850 5  -3940631.463 3
  24866443.749    -9787182.426 7  -8160436.457 7
  25449956.642    -2707964.760 7   5194855.121 5
  23554661.887   -11763694.950 8  -8745384.055 9
 94  2  8 22 17 30.0100000  0  8 19 28 31 16  2 27 29 18
  23908388.297    -5921374.645 9  -7021112.568 9
  26543739.711     -154228.920 6   -975613.966 4
  24995239.026   -10702858.647 7  -9034537.493 5
  27854613.203   -31248671.071 4  -1304359.773 3
  26743345.787   -10961207.138 5  -3984483.773 3
  24860798.178    -9816849.508 7  -8183553.610 7
  25471024.197    -2597243.749 7   5281131.177 5
  23566816.402   -11699825.268 8  -8695615.471 9
 94  2  8 22 18  0.0100000  0  8 19 28 31 16  2 27 29 18
  23910859.696    -5908382.922 9  -7010989.138 9
  26556023.887      -89696.777 6   -925329.169 4
  24996241.472   -10697602.405 7  -9030441.659 5
  27848998.839   -31278187.483 4  -1327359.482 3
  26732672.576   -11017283.055 5  -4028179.146 3
  24855173.082    -9846408.704 7  -8206586.711 7
  25492150.841    -2486220.286 6   5367642.926 5
  23579059.207   -11635482.023 8  -8645477.867 9
 94  2  8 22 18 30.0100000  0  8 19 28 31 16  2 27 29 18
  23913367.730    -5895205.177 9  -7000720.754 9
  26568398.870      -24650.961 6   -874644.086 4
  24997346.447   -10691774.978 7  -9025900.779 6
  27843473.125   -31307232.961 4  -1349992.297 3
  26722038.368   -11073151.683 5  -4071713.007 3
  24849559.678    -9875882.465 7  -8229553.224 7
  25513345.179    -2374868.025 6   5454410.864 5
  23591396.596   -11570661.915 8  -8594968.687 9
 94  2  8 22 19  0.0100000  0  8 19 28 31 16  2 27 29 18
  23915908.321    -5881846.256 9  -6990311.197 9
  26580874.044       40915.294 6   -823553.500 4
  24998569.960   -10685372.414 7  -9020911.718 6
  27838037.588   -31335811.218 5  -1372260.998 3
  26711451.197   -11128820.919 5  -4115091.511 3
  24843968.189    -9905280.032 7  -8252460.363 7
  25534597.646    -2263175.800 6   5541443.720 5
  23603822.754   -11505355.696 8  -8544080.709 9
 94  2  8 22 19 30.0100000  0  8 19 28 31 16  2 27 29 18
  23918490.643    -5868281.060 9  -6979740.888 9
  26593450.607      107009.231 6   -772051.724 4
  24999901.638   -10678370.432 7  -9015455.584 6
  27832692.618   -31363901.659 5  -1394149.611 2
  26700898.023   -11184271.650 5  -4158299.732 3
  24838395.706    -9934570.789 7  -8275284.276 7
  25555914.628    -2151143.356 6   5628741.695 5
  23616343.735   -11439546.968 8  -8492801.184 9
 94  2  8 22 20  0.0100000  0  8 19 28 31 16  2 27 29 18
  23921107.322    -5854526.974 9  -6969023.397 9
  26606121.216      173606.181 6   -720157.980 4
  25001347.627   -10670783.193 7  -9009543.402 6
  27827434.108   -31391502.506 5  -1415656.738 2
  26690381.214   -11239498.579 5  -4201333.594 3
  24832843.970    -9963751.238 7  -8298022.230 7
  25577297.056    -2038772.542 6   5716303.310 5
  23628964.278   -11373234.723 8  -8441129.284 9
 94  2  8 22 20 30.0100000  0  8 19 28 31 16  2 27 29 18
  23923759.736    -5840582.945 9  -6958157.900 9
  26618892.464      240713.144 6   -667866.824 3
  25002897.105   -10662619.571 7  -9003182.095 6
  27822280.826   -31418626.297 5  -1436792.120 2
  26679917.587   -11294486.531 5  -4244181.153 3
  24827317.476    -9992797.172 7  -8320655.401 7
  25598746.397    -1926077.322 6   5804117.737 5
  23641680.515   -11306413.090 8  -8389060.482 9
 94  2  8 22 21  0.0100000  0  8 19 28 31 16  2 27 29 18
  23926453.431    -5826439.585 8  -6947137.080 9
  26631764.743      308336.637 6   -615173.171 3
  25004561.462   -10653884.026 7  -8996375.144 6
  27817201.022   -31445283.663 5  -1457564.046 2
  26669507.834   -11349239.080 5  -4286845.338 3
  24821819.222   -10021684.372 7  -8343164.864 7
  25620242.805    -1813088.235 6   5892161.123 5
  23654490.587   -11239091.058 8  -8336601.758 9
 94  2  8 22 21 30.0100000  0  8 19 28 31 16  2 27 29 18
  23929182.801    -5812102.463 9  -6935965.253 9
  26644729.897      376487.352 6   -562068.710 3
  25006329.578   -10644572.084 7  -8989119.020 6
  27812220.930   -31471488.306 5  -1477983.169 2
  26659134.895   -11403746.004 5  -4329318.111 3
  24816356.254   -10050408.979 7  -8365547.623 7
  25641800.491    -1699809.410 6   5980430.309 5
  23667396.802   -11171268.158 8  -8283752.718 9
 94  2  8 22 22  0.0100000  0  8 19 28 31 16  2 27 29 18
  23931949.046    -5797557.176 9  -6924631.239 9
  26657803.067      445181.667 6   -508540.659 3
  25008210.206   -10634684.109 7  -8981414.053 6
  27807313.238   -31497234.964 5  -1498045.464 2
  26648811.781   -11457993.610 5  -4371588.845 3
  24810917.539   -10078973.355 7  -8387805.558 7
  25663415.857    -1586224.099 6   6068938.293 4
  23680400.120   -11102932.118 8  -8230503.863 9
 94  2  8 22 22 30.0100000  0  8 19 28 31 16  2 27 29 18
  23934759.181    -5782793.396 9  -6913126.958 9
  26670981.644      514430.346 6   -454580.635 3
  25010202.837   -10624204.577 7  -8973248.124 6
  27802506.006   -31522523.251 5  -1517750.619 2
  26638535.735   -11511979.181 5  -4413655.379 3
  24805514.020   -10107375.182 7  -8409936.803 7
  25685090.732    -1472333.811 6   6157683.955 4
  23693503.839   -11034075.461 8  -8176849.319 9
 94  2  8 22 23  0.0100000  0  8 19 28 31 16  2 27 29 18
  23937603.402    -5767835.883 9  -6901471.723 9
  26684260.531      584218.313 6   -400200.384 3
  25012316.943   -10613124.698 7  -8964614.386 6
  27797786.703   -31547351.161 5  -1537096.971 2
  26628308.256   -11565727.815 5  -4455537.277 3
  24800133.225   -10135641.180 7  -8431962.221 7
  25706823.257    -1358123.996 6   6246678.604 4
  23706705.679   -10964699.443 8  -8122790.069 9
 94  2  8 22 23 30.0100000  0  8 19 28 31 16  2 27 29 18
  23940484.887    -5752701.360 9  -6889678.565 9
  26697638.230      654521.723 6   -345418.506 3
  25014539.185   -10601437.873 7  -8955507.702 6
  27793150.023   -31571704.904 5  -1556073.896 2
  26618120.559   -11619245.665 5  -4497239.385 3
  24794778.302   -10163788.625 7  -8453895.268 7
  25728621.526    -1243572.779 6   6335939.254 4
  23720004.323   -10894806.041 8  -8068327.675 9
 94  2  8 22 24  0.0100000  0  8 19 28 31 16  2 27 29 18
  23943396.681    -5737384.043 9  -6877742.968 9
  26711115.999      725319.806 6   -290251.112 2
  25016880.834   -10589134.993 7  -8945920.995 6
  27788605.139   -31595555.424 5  -1574658.693 2
  26607977.351   -11672544.218 5  -4538770.592 3
  24789446.913   -10191807.013 7  -8475727.745 7
  25750483.471    -1128680.634 6   6425465.565 4
  23733400.908   -10824407.269 8  -8013471.492 9
 94  2  8 22 24 30.0100000  0  8 19 28 31 16  2 27 29 18
  23946344.481    -5721905.235 9  -6865681.542 9
  26724677.771      796585.578 6   -234719.324 2
  25019338.772   -10576216.038 7  -8935854.220 6
  27784164.193   -31618919.357 5  -1592864.287 2
  26597876.533   -11725655.181 6  -4580155.619 3
  24784132.312   -10219721.832 7  -8497479.518 7
  25772410.412    -1013470.500 6   6515239.687 4
  23746889.261   -10753532.821 8  -7958244.641 9
 94  2  8 22 25  0.0100000  0  8 19 28 31 16  2 27 29 18
  23949323.278    -5706265.521 9  -6853494.725 9
  26738317.248      868315.485 6   -178825.872 2
  25021913.869   -10562690.716 7  -8925314.972 6
  27779812.616   -31641796.521 5  -1610690.611 2
  26587800.749   -11778587.500 6  -4621401.501 3
  24778840.586   -10247529.898 8  -8519148.126 7
  25794394.043     -897948.702 6   6605256.628 4
  23760463.054   -10682198.700 8  -7902659.616 9
 94  2  8 22 25 30.0100000  0  8 19 28 31 16  2 27 29 18
  23952326.569    -5690460.436 9  -6841179.066 9
  26752057.906      940518.696 6   -122563.619 2
  25024600.759   -10548574.087 7  -8914314.947 6
  27775547.319   -31664204.664 5  -1628151.468 2
  26577765.826   -11831334.351 6  -4662502.803 3
  24773573.712   -10275222.087 8  -8540726.429 7
  25816431.037     -782146.845 6   6695491.836 4
  23774118.690   -10610425.788 8  -7846732.677 9
 94  2  8 22 26  0.0100000  0  8 19 28 31 16  2 27 29 18
  23955371.262    -5674468.445 9  -6828717.750 9
  26765902.621     1013231.752 6    -65904.035 2
  25027399.622   -10533867.152 7  -8902854.966 6
  27771366.833   -31686143.942 5  -1645246.921 2
  26567761.212   -11883873.427 6  -4703442.267 3
  24768326.265   -10302794.372 7  -8562211.295 7
  25838516.717     -666073.939 6   6785938.228 4
  23787867.772   -10538194.948 8  -7790448.910 9
 94  2  8 22 26 30.0100000  0  8 19 28 31 16  2 27 29 18
  23958446.892    -5658309.270 9  -6816126.180 9
  26779830.919     1086449.824 5     -8850.974 2
  25030301.103   -10518608.619 7  -8890965.152 6
  27767276.345   -31707646.806 5  -1662002.384 2
  26557809.391   -11936198.319 6  -4744214.803 3
  24763093.117   -10330277.489 7  -8583626.679 7
  25860646.707     -549745.525 6   6876583.734 4
  23801700.286   -10465501.306 8  -7733804.509 9
 94  2  8 22 27  0.0100000  0  8 19 28 31 16  2 27 29 18
  23961553.312    -5641980.611 9  -6803402.515 9
  26793858.238     1160180.511 5     48601.510 2
  25033305.413   -10502812.778 7  -8878656.675 6
  27763269.439   -31728710.052 5  -1678415.258 2
  26547896.724   -11988288.452 6  -4784804.450 4
  24757885.483   -10357650.476 7  -8604956.264 7
  25882838.844     -433159.420 6   6967430.024 4
  23815625.016   -10392339.529 8  -7676795.339 9
 94  2  8 22 27 30.0100000  0  8 19 28 31 16  2 27 29 18
  23964696.726    -5625464.841 9  -6790533.073 9
  26807992.163     1234442.685 5    106468.155 3
  25036414.231   -10486469.231 7  -8865921.418 5
  27759343.177   -31749318.354 5  -1694473.614 2
  26538034.601   -12040124.524 6  -4825196.083 4
  24752698.923   -10384910.943 7  -8626198.150 8
  25905077.808     -316295.963 6   7058492.438 4
  23829637.615   -10318685.130 8  -7619402.299 9
 94  2  8 22 28  0.0100000  0  8 19 28 31 16  2 27 29 18
  23967878.693    -5608743.702 9  -6777503.587 9
  26822231.496     1309235.400 5    164748.203 3
  25039630.854   -10469574.062 7  -8852756.279 5
  27755517.165   -31769457.179 5  -1710166.142 2
  26528220.445   -12091693.990 6  -4865379.995 4
  24747536.587   -10412045.109 8  -8647341.630 8
  25927370.855     -199134.818 6   7149786.816 4
  23843752.953   -10244512.292 8  -7561605.276 9
 94  2  8 22 28 30.0100000  0  8 19 28 31 16  2 27 29 18
  23971102.541    -5591804.393 9  -6764304.105 9
  26836556.658     1384545.077 5    223431.111 3
  25042952.225   -10452106.334 7  -8839145.024 5
  27751771.768   -31789114.876 5  -1725483.785 2
  26518452.637   -12142997.278 6  -4905356.505 4
  24742402.431   -10439020.902 8  -8668361.693 8
  25949723.320      -81668.023 6   7241319.356 4
  23857964.285   -10169827.983 8  -7503409.706 9
 94  2  8 22 29  0.0100000  0  8 19 28 31 16  2 27 29 18
  23974367.761    -5574648.708 9  -6750936.014 9
  26850982.582     1460362.661 5    282509.733 2
  25046393.303   -10434049.765 7  -8825074.946 6
  27748124.283   -31808283.113 5  -1740420.048 2
  26508738.552   -12194061.784 6  -4945146.942 4
  24737300.983   -10465828.775 7  -8689250.904 8
  25972138.473       36098.974 6   7333085.806 4
  23872269.092   -10094652.811 8  -7444831.660 9
 94  2  8 22 29 30.0100000  0  8 19 28 31 16  2 27 29 18
  23977671.893    -5557288.747 9  -6737408.741 9
  26865506.537     1536668.515 5    341968.882 3
  25049939.068   -10415404.055 7  -8810545.785 6
  27744571.773   -31826966.834 5  -1754978.761 2
  26499065.838   -12244900.444 6  -4984761.405 4
  24732225.437   -10492486.379 7  -8710023.033 8
  25994597.575      154160.953 6   7425082.126 4
  23886668.424   -10018983.240 8  -7385868.350 9
 94  2  8 22 30  0.0100000  0  8 19 28 31 16  2 27 29 18
  23981009.812    -5539728.848 8  -6723725.684 9
  26880120.010     1613453.580 5    401801.391 3
  25053605.800   -10396152.783 7  -8795544.782 6
  27741108.570   -31845152.256 5  -1769149.160 2
  26489433.027   -12295504.799 6  -5024193.319 4
  24727185.656   -10518992.690 7  -8730677.279 8
  26017122.181      272511.151 6   7517303.004 4
  23901162.519    -9942823.455 8  -7326523.060 9
 94  2  8 22 30 30.0100000  0  8 19 28 31 16  2 27 29 18
  23984392.461    -5521977.126 9  -6709893.144 9
  26894819.074     1690718.644 5    462007.957 2
  25057387.861   -10376269.788 7  -8780051.486 6
  27737747.597   -31862824.198 5  -1782919.447 2
  26479849.022   -12345871.285 6  -5063439.852 4
  24722168.959   -10545348.822 7  -8751214.473 8
  26039701.020      391167.244 6   7609762.275 4
  23915746.133    -9866179.607 8  -7266800.580 9
 94  2  8 22 31  0.0110000  0  8 19 28 31 16  2 27 29 18
  23987800.351    -5504057.488 9  -6695929.766 9
  26909619.618     1768466.070 5    522590.401 3
  25061287.472   -10355764.131 7  -8764073.042 6
  27734480.429   -31879986.435 5  -1796292.578 2
  26470311.035   -12396004.488 6  -5102504.618 4
  24717178.284   -10571573.488 7  -8771649.239 8
  26062339.938      510132.249 6   7702462.232 4
  23930425.741    -9789050.677 8  -7206700.107 9
 94  2  8 22 31 30.0110000  0  8 19 28 31 16  2 27 29 18
  23991241.399    -5485979.817 9  -6681843.259 9
  26924497.928     1846675.370 5    583532.709 3
  25065307.719   -10334648.553 7  -8747619.305 6
  27731310.034   -31896663.533 5  -1809287.711 2
  26460811.451   -12445905.827 6  -5141388.700 4
  24712208.654   -10597683.866 7  -8791994.926 8
  26085029.790      629381.451 6   7795383.675 4
  23945190.669    -9711455.808 8  -7146236.574 9
 94  2  8 22 32  0.0110000  0  8 19 28 31 16  2 27 29 18
  23994714.945    -5467736.683 9  -6667627.800 9
  26939472.921     1925352.357 5    644839.432 3
  25069442.756   -10312924.139 7  -8730691.161 6
  27728224.240   -31912856.887 5  -1821905.829 2
  26451356.627   -12495581.476 5  -5180096.950 4
  24707261.629   -10623680.701 7  -8812252.152 8
  26107779.420      748904.201 6   7888518.226 4
  23960039.000    -9633418.992 8  -7085428.666 9
 94  2  8 22 32 30.0110000  0  8 19 28 31 16  2 27 29 18
  23998217.300    -5449316.207 9  -6653274.163 9
  26954538.002     2004504.022 5    706516.078 3
  25073690.875   -10290594.901 7  -8713291.707 6
  27725239.356   -31928561.076 5  -1834142.863 2
  26441955.615   -12545021.366 5  -5218621.477 4
  24702341.285   -10649534.590 7  -8832397.999 8
  26130575.189      868710.409 6   7981873.692 4
  23974975.890    -9554929.167 8  -7024267.770 9
 94  2  8 22 33  0.0110000  0  8 19 28 31 16  2 27 29 18
  24001763.755    -5430689.320 9  -6638759.683 9
  26969681.178     2084140.238 5    768570.277 3
  25078048.898   -10267668.441 7  -8695426.903 6
  27722340.363   -31943776.240 5  -1845998.789 2
  26432590.758   -12594210.066 5  -5256950.266 4
  24697450.411   -10675239.784 7  -8852427.978 8
  26153422.073      988779.711 6   8075434.161 4
  23990000.049    -9475967.123 8  -6962738.900 9
 94  2  8 22 33 30.0110000  0  8 19 28 31 16  2 27 29 18
  24005348.463    -5411831.730 8  -6624065.441 9
  26984933.989     2164257.519 5    830999.321 3
  25082530.465   -10244143.624 7  -8677095.834 6
  27719542.490   -31958498.361 5  -1857470.519 2
  26423281.303   -12643132.686 5  -5295071.719 4
  24692586.518   -10700800.992 7  -8872345.739 9
  26176319.441     1109099.442 6   8169189.771 4
  24005117.803    -9396531.253 8  -6900840.818 9
 94  2  8 22 34  0.0110000  0  8 19 28 31 16  2 27 29 18
  24008981.048    -5392749.399 8  -6609196.072 9
  27000269.872     2244862.905 5    893808.711 3
  25087117.830   -10220018.851 7  -8658297.261 6
  27716841.390   -31972708.041 5  -1868542.973 2
  26414022.333   -12691772.682 6  -5332972.961 4
  24687752.305   -10726210.839 8  -8892145.591 9
  26199259.290     1229670.528 6   8263141.218 4
  24020326.244    -9316602.717 8  -6838558.838 9
 94  2  8 22 34 30.0110000  0  8 19 28 31 16  2 27 29 18
  24012649.399    -5373470.947 8  -6594173.873 9
  27015698.031     2325936.445 5    956982.905 3
  25091826.040   -10195302.806 7  -8639037.976 6
  27714229.208   -31986429.071 5  -1879234.637 2
  26404818.045   -12740143.261 6  -5370664.250 4
  24682942.225   -10751478.695 7  -8911834.773 9
  26222256.220     1350487.695 6   8357284.459 4
  24035633.347    -9236175.071 8  -6775887.927 9
 94  2  8 22 35  0.0110000  0  8 19 28 31 16  2 27 29 18
  24016352.375    -5354006.203 8  -6579006.518 9
  27031210.223     2407467.824 6   1020513.850 3
  25096640.587   -10169995.823 7  -8619318.210 6
  27711702.348   -31999675.008 5  -1889556.100 2
  26395664.032   -12788270.462 6  -5408165.908 4
  24678159.186   -10776631.428 7  -8931434.259 9
  26245291.643     1471534.950 6   8451606.980 4
  24051027.720    -9155264.544 8  -6712840.766 9
 94  2  8 22 35 30.0110000  0  8 19 28 31 16  2 27 29 18
  24020087.729    -5334375.393 8  -6563709.754 9
  27046816.788     2489462.298 5   1084405.663 3
  25101567.077   -10144094.433 7  -8599135.275 6
  27709277.446   -32012436.481 5  -1899500.040 2
  26386547.823   -12836170.455 6  -5445490.495 4
  24673390.927   -10801665.593 8  -8950941.347 9
  26268367.807     1592826.009 6   8546119.475 4
  24066514.489    -9073884.639 8  -6649427.838 9
 94  2  8 22 36  0.0110000  0  8 19 28 31 16  2 27 29 18
  24023852.253    -5314596.463 8  -6548297.582 9
  27062513.652     2571927.804 5   1148664.488 3
  25106606.498   -10117611.536 7  -8578499.202 6
  27706930.011   -32024725.413 5  -1909075.793 2
  26377473.135   -12883865.943 6  -5482655.750 4
  24668653.367   -10826567.281 8  -8970345.223 9
  26291498.864     1714364.729 6   8640824.928 4
  24082086.548    -8992043.527 8  -6585655.533 9
 94  2  8 22 36 30.0110000  0  8 19 28 31 16  2 27 29 18
  24027648.645    -5294633.399 8  -6532741.923 9
  27078289.210     2654878.562 5   1213301.469 3
  25111764.038   -10090542.540 7  -8557406.428 6
  27704694.159   -32036533.442 5  -1918276.832 2
  26368439.999   -12931351.521 6  -5519657.389 4
  24663945.156   -10851320.094 8  -8989633.080 9
  26314674.260     1836165.024 6   8735734.247 4
  24097751.424    -8909742.928 8  -6521525.187 9
 94  2  8 22 37  0.0110000  0  8 19 28 31 16  2 27 29 18
  24031486.678    -5274470.193 8  -6517030.311 9
  27094168.497     2738307.135 5   1278310.712 3
  25117022.037   -10062895.064 7  -8535862.916 6
  27702538.921   -32047854.457 5  -1927098.311 2
  26359440.199   -12978635.138 6  -5556501.696 4
  24659259.220   -10875937.280 8  -9008815.261 9
  26337903.619     1958210.939 6   8830834.920 4
  24113494.275    -8827002.691 8  -6457052.278 9
 94  2  8 22 37 30.0110000  0  8 19 28 31 16  2 27 29 18
  24035365.543    -5254103.992 8  -6501160.516 9
  27110139.101     2822219.905 5   1343697.294 3
  25122395.428   -10034670.509 7  -8513869.729 6
  27700476.229   -32058687.048 5  -1935539.255 3
  26350480.092   -13025706.664 6  -5593180.746 4
  24654600.775   -10900414.791 8  -9027888.616 9
  26361168.803     2080502.627 6   8926127.120 4
  24129328.054    -8743804.896 8  -6392222.811 9
 94  2  8 22 38  0.0110000  0  8 19 28 31 16  2 27 29 18
  24039279.363    -5233516.665 8  -6485118.388 9
  27126201.741     2906606.829 5   1409453.341 3
  25127872.576   -10005861.466 7  -8491421.075 6
  27698510.580   -32069030.716 5  -1943599.181 3
  26341570.080   -13072548.495 6  -5629680.769 4
  24649970.540   -10924751.580 8  -9046852.294 9
  26384490.138     2203041.080 6   9021611.595 4
  24145250.991    -8660129.846 8  -6327021.459 9
 94  2  8 22 38 30.0110000  0  8 19 28 31 16  2 27 29 18
  24043237.823    -5212714.587 8  -6468908.952 9
  27142335.252     2991434.064 5   1475552.507 3
  25133469.191    -9976460.883 7  -8468511.497 6
  27696634.689   -32078874.870 5  -1951269.903 3
  26332696.853   -13119164.520 6  -5666004.852 4
  24645362.940   -10948970.112 8  -9065723.823 9
  26407848.497     2325810.090 6   9117275.727 4
  24161264.225    -8575975.246 8  -6261446.436 9
 94  2  8 22 39  0.0110000  0  8 19 28 31 16  2 27 29 18
  24047235.585    -5191721.038 8  -6452550.334 9
  27158555.973     3076694.224 5   1541989.002 3
  25139176.220    -9946465.317 7  -8445138.320 6
  27694855.151   -32088225.071 5  -1958555.741 3
  26323867.426   -13165561.865 6  -5702158.560 4
  24640772.758   -10973076.553 8  -9084508.031 9
  26431255.423     2448807.118 6   9213117.556 3
  24177370.005    -8491341.116 8  -6195497.765 9
 94  2  8 22 39 30.0110000  0  8 19 28 31 16  2 27 29 18
  24051261.708    -5170547.632 8  -6436051.550 9
  27174868.670     3162394.155 6   1608768.142 3
  25144997.261    -9915873.457 7  -8421300.481 6
  27693178.292   -32097084.431 4  -1965459.062 3
  26315084.766   -13211718.677 6  -5738124.825 4
  24636211.416   -10997056.236 8  -9103193.457 9
  26454712.983     2572044.209 6   9309146.412 3
  24193568.421    -8406231.988 8  -6129178.962 9
 94  2  8 22 40  0.0110000  0  8 19 28 31 16  2 27 29 18
  24055331.361    -5149184.475 8  -6419404.901 9
  27191264.140     3248541.020 6   1675895.622 3
  25150937.648    -9884674.668 7  -8396989.683 6
  27691574.702   -32105434.042 5  -1971965.163 2
  26306350.043   -13257618.433 6  -5773890.782 4
  24631672.768   -11020895.377 8  -9121769.352 9
  26478209.667     2695541.501 6   9405378.056 3
  24209850.599    -8320663.903 8  -6062502.522 9
 94  2  8 22 40 30.0110000  0  8 19 28 31 16  2 27 29 18
  24059429.134    -5127638.281 8  -6402615.656 9
  27207747.658     3335154.019 6   1743386.232 3
  25156989.349    -9852870.518 7  -8372207.218 6
  27690083.174   -32113275.781 5  -1978075.587 2
  26297663.856   -13303261.144 6  -5809456.485 4
  24627165.778   -11044587.225 8  -9140230.486 9
  26501759.654     2819296.129 6   9501810.175 3
  24226215.220    -8234658.560 8  -5995485.377 9
 94  2  8 22 41  0.0110000  0  8 19 28 31 16  2 27 29 18
  24063563.392    -5105910.329 8  -6385684.746 9
  27224322.284     3422248.619 6   1811252.147 3
  25163151.583    -9820469.595 7  -8346959.711 6
  27688690.399   -32120629.920 5  -1983806.060 3
  26289030.883   -13348639.687 6  -5844816.335 4
  24622684.450   -11068131.743 8  -9158576.830 9
  26525357.187     2943303.109 5   9598438.955 3
  24242661.505    -8148232.565 8  -5928140.447 9
 94  2  8 22 41 30.0110000  0  8 19 28 31 16  2 27 29 18
  24067736.083    -5083994.672 8  -6368607.579 9
  27240980.911     3509821.367 6   1879490.664 3
  25169433.134    -9787467.476 7  -8321243.741 6
  27687380.695   -32127480.582 4  -1989144.133 2
  26280445.696   -13393751.374 6  -5879968.174 4
  24618232.622   -11091523.783 8  -9176804.321 9
  26548999.720     3067549.697 6   9695254.458 3
  24259189.932    -8061377.507 8  -5860461.163 9
 94  2  8 22 42  0.0110000  0  8 19 28 31 16  2 27 29 18
  24071945.289    -5061880.070 8  -6351375.395 9
  27257739.640     3597882.217 6   1948109.508 3
  25175829.176    -9753854.344 7  -8295051.646 6
  27686185.183   -32133810.715 5  -1994076.671 3
  26271908.776   -13438602.442 6  -5914916.990 4
  24613815.150   -11114752.115 8  -9194904.276 9
  26572685.692     3192025.698 6   9792248.692 3
  24275803.801    -7974068.721 8  -5792428.354 9
 94  2  8 22 42 30.0110000  0  8 19 28 31 16  2 27 29 18
  24076187.952    -5039575.854 8  -6333995.462 9
  27274585.457     3686408.633 5   2017091.127 3
  25182336.681    -9719641.635 7  -8268392.356 6
  27685069.056   -32139631.301 4  -1998612.122 3
  26263419.463   -13483206.875 6  -5949673.618 4
  24609423.371   -11137811.041 8  -9212872.228 9
  26596414.475     3316710.030 6   9889405.289 3
  24292505.119    -7886302.598 8  -5724039.166 9
 94  2  8 22 43  0.0110000  0  8 19 28 31 16  2 27 29 18
  24080466.410    -5017091.866 8  -6316475.440 9
  27291512.819     3775359.690 6   2086403.618 4
  25188962.664    -9684836.969 7  -8241271.800 6
  27684054.258   -32144944.190 4  -2002751.978 2
  26254979.556   -13527574.080 6  -5984245.394 4
  24605068.555   -11160707.371 8  -9230713.486 9
  26620178.874     3441590.855 6   9986715.012 3
  24309296.314    -7798077.623 8  -5655292.418 9
 94  2  8 22 43 30.0110000  0  8 19 28 31 16  2 27 29 18
  24084778.865    -4994434.486 8  -6298820.316 9
  27308519.325     3864721.698 5   2156036.370 4
  25195697.292    -9649442.943 7  -8213691.979 6
  27683153.172   -32149743.423 4  -2006491.569 2
  26246575.114   -13571713.014 6  -6018639.283 4
  24600742.970   -11183431.636 8  -9248420.676 9
  26643981.525     3566673.183 6  10084181.727 3
  24326169.144    -7709390.935 8  -5586185.908 9
 94  2  8 22 44  0.0110000  0  8 19 28 31 16  2 27 29 18
  24089120.939    -4971605.799 8  -6281031.693 9
  27325602.459     3954492.025 5   2225987.277 4
  25202545.511    -9613459.230 7  -8185652.671 6
  27682329.222   -32154042.347 4  -2009841.328 3
  26238223.046   -13615624.652 6  -6052856.085 4
  24596451.501   -11205991.595 8  -9265999.816 9
  26667824.319     3691975.123 6  10181819.555 3
  24343131.461    -7620260.110 8  -5516733.311 9
 94  2  8 22 44 30.0110000  0  8 19 28 31 16  2 27 29 18
  24093498.358    -4948605.688 8  -6263109.514 9
  27342760.811     4044667.610 5   2296253.961 4
  25209506.632    -9576885.432 7  -8157153.570 6
  27681606.393   -32157848.280 5  -2012806.850 3
  26229909.621   -13659305.907 6  -6086893.355 4
  24592185.664   -11228401.038 8  -9283461.683 9
  26691712.712     3817509.879 5  10279638.838 3
  24360174.092    -7530695.740 8  -5446942.897 9
 94  2  8 22 45  0.0110000  0  8 19 28 31 16  2 27 29 18
  24097908.815    -4925430.241 8  -6245050.689 9
  27359997.708     4135253.648 5   2366840.457 4
  25216580.385    -9539714.900 7  -8128189.469 6
  27680975.210   -32161175.900 5  -2015399.725 3
  26221634.840   -13702761.429 6  -6120754.729 4
  24587947.468   -11250685.971 8  -9300826.534 9
  26715641.456     3943265.805 6  10377630.409 3
  24377299.856    -7440708.246 8  -5376822.769 9
 94  2  8 22 45 30.0110000  0  8 19 28 31 16  2 27 29 18
  24102358.844    -4902058.204 8  -6226838.692 9
  27377321.305     4226275.504 5   2437766.580 4
  25223762.423    -9501945.248 7  -8098758.523 6
  27680431.326   -32164025.212 5  -2017619.900 3
  26213415.790   -13745985.093 6  -6154435.447 4
  24583727.799   -11272850.691 8  -9318097.706 9
  26739619.277     4069250.552 6  10475800.338 3
  24394501.498    -7350307.341 8  -5306380.502 9
 94  2  8 22 46  0.0110000  0  8 19 28 31 16  2 27 29 18
  24106845.118    -4878465.796 8  -6208454.965 9
  27394727.015     4317743.743 5   2509040.557 3
  25231067.795    -9463569.488 7  -8068855.279 6
  27679977.260   -32166391.639 5  -2019463.820 2
  26205238.831   -13788963.508 6  -6187925.034 4
  24579529.026   -11294910.323 8  -9335286.988 9
  26763634.721     4195458.391 6  10574144.067 3
  24411779.467    -7259501.435 8  -5235622.649 9
 94  2  8 22 46 30.0110000  0  8 19 28 31 16  2 27 29 18
  24111379.180    -4854636.342 8  -6189886.537 9
  27412215.498     4409654.143 5   2580659.041 3
  25238483.402    -9424587.014 7  -8038479.271 6
  27679624.165   -32168264.954 5  -2020923.479 2
  26197107.830   -13831685.447 6  -6221214.777 4
  24575353.367   -11316853.930 8  -9352385.868 9
  26787693.306     4321867.503 6  10672644.632 3
  24429139.309    -7168288.336 8  -5164547.526 9
 94  2  8 22 47  0.0110000  0  8 19 28 31 16  2 27 29 18
  24115961.657    -4830560.160 8  -6171125.845 9
  27429788.942     4501999.955 5   2652616.833 3
  25246021.833    -9384992.857 7  -8007626.656 6
  27679367.902   -32169631.560 5  -2021988.292 2
  26189029.862   -13874152.086 6  -6254305.601 5
  24571204.299   -11338670.434 8  -9369385.698 9
  26811780.940     4448483.030 5  10771306.060 3
  24446578.536    -7076653.552 8  -5093143.801 9
 94  2  8 22 47 30.0110000  0  8 19 28 31 16  2 27 29 18
  24120584.487    -4806257.773 8  -6152188.895 9
  27447435.176     4594777.639 5   2724911.075 3
  25253665.881    -9344808.271 7  -7976313.940 6
  27679204.396   -32170472.462 5  -2022643.453 2
  26180996.114   -13916358.123 6  -6287193.357 5
  24567077.266   -11360344.550 8  -9386274.594 9
  26835924.966     4575318.393 6  10870138.799 3
  24464092.441    -6984593.622 8  -5021408.789 9
 94  2  8 22 48  0.0110000  0  8 19 28 31 16  2 27 29 18
  24125246.170    -4781759.066 8  -6133098.967 9
  27465173.326     4687970.419 5   2797528.828 3
  25261424.180    -9304046.313 7  -7944551.328 6
  27679144.407   -32170792.640 5  -2022892.854 2
  26173008.203   -13958319.978 6  -6319890.821 5
  24562979.373   -11381869.793 7  -9403047.469 9
  26860095.733     4702356.053 6  10969129.119 3
  24481697.124    -6892096.160 8  -4949332.839 9
 94  2  8 22 48 30.0110000  0  8 19 28 31 16  2 27 29 18
  24129944.817    -4757088.218 8  -6113874.911 9
  27482995.628     4781563.108 5   2870458.143 3
  25269288.006    -9262719.034 7  -7912348.219 6
  27679181.611   -32170593.190 5  -2022737.378 2
  26165070.059   -14000040.994 6  -6352400.650 5
  24558918.564   -11403229.466 7  -9419691.321 9
  26884308.830     4829594.962 6  11068276.297 3
  24499384.699    -6799138.802 8  -4876898.521 9
 94  2  8 22 49  0.0110000  0  8 19 28 31 16  2 27 29 18
  24134667.957    -4732257.778 8  -6094526.496 9
  27500874.231     4875560.924 5   2943703.204 3
  25277258.498    -9220836.526 7  -7879712.459 6
  27679312.950   -32169883.985 5  -2022184.698 2
  26157180.031   -14041521.253 6  -6384722.861 5
  24554882.339   -11424425.878 7  -9436207.977 9
  26908557.843     4957042.219 6  11167585.816 3
  24517166.409    -6705709.044 8  -4804096.132 9
 94  2  8 22 49 30.0110000  0  8 19 28 31 16  2 27 29 18
  24139423.775    -4707257.662 8  -6075045.856 9
  27518846.789     4969968.785 5   3017267.715 2
  25285338.055    -9178390.200 7  -7846637.342 6
  27679554.643   -32168666.372 5  -2021235.856 2
  26149336.141   -14082743.064 6  -6416843.683 5
  24550881.099   -11445451.626 7  -9452591.620 9
  26932850.296     5084678.714 6  11267042.766 2
  24535029.123    -6611828.067 8  -4730942.111 9
 94  2  8 22 50  0.0110000  0  8 19 28 31 16  2 27 29 18
  24144219.315    -4682069.015 8  -6055418.330 9
  27536879.755     5064779.691 5   3091146.381 2
  25293520.680    -9135361.724 7  -7813108.603 6
  27679871.014   -32166961.669 5  -2019907.474 2
  26141534.732   -14123712.326 6  -6448767.703 5
  24546910.647   -11466316.888 7  -9468850.239 9
  26957171.708     5212484.642 6  11366631.753 2
  24552976.618    -6517505.429 8  -4657443.974 9
 94  2  8 22 50 30.0110000  0  8 19 28 31 16  2 27 29 18
  24149049.901    -4656687.467 8  -6035640.472 9
  27554997.712     5159992.367 5   3165338.053 2
  25301823.732    -9091745.451 7  -7779121.861 6
  27680282.359   -32164774.017 5  -2018202.782 2
  26133792.262   -14164427.474 6  -6480493.725 5
  24542970.415   -11487035.205 7  -9484994.331 9
  26981519.623     5340459.117 5  11466352.077 2
  24571006.466    -6422765.014 8  -4583620.253 9
 94  2  8 22 51  0.0110000  0  8 19 28 31 16  2 27 29 18
  24153918.920    -4631098.968 8  -6015701.365 9
  27573186.090     5255609.457 5   3239844.875 2
  25310234.050    -9047533.379 7  -7744670.856 6
  27680793.146   -32162101.429 5  -2016120.177 2
  26126082.589   -14204901.635 6  -6512031.957 5
  24539052.487   -11507614.739 7  -9501030.305 9
  27005908.818     5468601.675 5  11566203.371 2
  24589108.864    -6327643.612 8  -4509499.675 9
 94  2  8 22 51 30.0110000  0  8 19 28 31 16  2 27 29 18
  24158826.103    -4605292.873 8  -5995592.705 9
  27591469.383     5351635.403 4   3314670.249 2
  25318764.074    -9002710.565 7  -7709743.960 6
  27681403.823   -32158927.156 5  -2013646.675 2
  26118428.618   -14245137.007 6  -6543384.111 5
  24535167.927   -11528043.477 8  -9516948.760 9
  27030325.025     5596926.469 5  11666196.730 2
  24607281.354    -6232140.694 8  -4435081.838 8
 94  2  8 22 52  0.0110000  0  8 19 28 31 16  2 27 29 18
  24163779.813    -4579271.917 8  -5975316.625 9
  27609819.859     5448077.055 5   3389819.591 2
  25327411.138    -8957279.993 7  -7674343.494 6
  27682099.821   -32155238.286 5  -2010772.191 2
  26110817.607   -14285131.272 6  -6574548.429 5
  24531311.067   -11548308.227 8  -9532739.437 9
  27054788.540     5725465.462 5  11766356.920 2
  24625534.847    -6136218.424 8  -4360337.204 8
 94  2  8 22 52 30.0110000  0  8 19 28 31 16  2 27 29 18
  24168773.546    -4553035.704 8  -5954872.799 9
  27628256.106     5544931.349 5   3465290.470 2
  25336174.042    -8911237.489 7  -7638466.189 6
  27682902.066   -32151011.868 5  -2007478.843 2
  26103251.835   -14324868.042 6  -6605512.035 5
  24527488.773   -11568394.998 8  -9548391.425 9
  27079293.575     5854230.601 5  11866693.391 2
  24643870.543    -6039866.780 8  -4285257.990 8
 94  2  8 22 53  0.0110000  0  8 19 28 31 16  2 27 29 18
  24173809.670    -4526569.224 8  -5934249.545 9
  27646761.545     5642192.339 5   3541078.236 2
  25345051.436    -8864576.760 7  -7602107.183 6
  27683814.844   -32146242.249 5  -2003762.209 2
  26095749.049   -14364335.948 6  -6636266.188 5
  24523699.756   -11588291.940 8  -9563895.520 9
  27103835.185     5983220.440 5  11967204.882 2
  24662287.154    -5943070.309 8  -4209832.182 8
 94  2  8 22 53 30.0110000  0  8 19 28 31 16  2 27 29 18
  24178884.856    -4499894.082 8  -5913463.711 9
  27665342.442     5739848.006 5   3617173.553 2
  25354048.657    -8817305.271 7  -7565272.230 6
  27684820.498   -32140944.804 5  -1999634.295 2
  26088288.744   -14403538.188 6  -6666813.338 5
  24519951.151   -11607997.454 8  -9579250.425 9
  27128420.176     6112418.059 5  12067878.357 2
  24680797.509    -5845816.488 8  -4134049.984 8
 94  2  8 22 54  0.0110000  0  8 19 28 31 16  2 27 29 18
  24184000.485    -4473027.648 8  -5892528.810 9
  27683999.186     5837888.741 5   3693568.893 2
  25363157.971    -8769429.068 7  -7527966.103 6
  27685924.513   -32135132.841 5  -1995105.399 2
  26080877.274   -14442482.654 6  -6697159.627 5
  24516237.232   -11627508.447 8  -9594453.764 9
  27153042.730     6241800.764 5  12168695.988 2
  24699386.201    -5748120.118 8  -4057922.932 8
 94  2  8 22 54 30.0110000  0  8 19 28 31 16  2 27 29 18
  24189150.230    -4445959.748 8  -5871436.912 9
  27702729.080     5936327.424 5   3770274.381 2
  25372385.643    -8720942.505 7  -7490184.333 6
  27687131.418   -32128806.323 5  -1990175.653 2
  26073511.763   -14481178.056 6  -6727311.830 5
  24512564.085   -11646824.640 8  -9609505.316 9
  27177692.715     6371353.188 5  12269645.901 2
  24718058.384    -5650004.436 8  -3981469.147 8
 94  2  8 22 55  0.0110000  0  8 19 28 31 16  2 27 29 18
  24194336.369    -4418691.244 8  -5850188.720 9
  27721543.425     6035168.049 6   3847293.014 2
  25381723.429    -8671863.149 7  -7451940.688 6
  27688433.296   -32121980.692 5  -1984856.952 2
  26066194.489   -14519645.055 6  -6757286.070 5
  24508925.294   -11665952.041 8  -9624409.764 9
  27202377.446     6501069.033 5  12370723.153 2
  24736808.604    -5551478.113 8  -3904695.399 8
 94  2  8 22 55 30.0110000  0  7 19 28 31  2 27 29 18
  24199564.960    -4391227.067 8  -5828788.029 9
  27740427.592     6134413.679 6   3924627.246 3
  25391175.735    -8622201.459 7  -7413243.245 6
  26058917.027   -14557879.275 7  -6787078.951 5
  24505318.521   -11684895.058 7  -9639170.538 9
  27227100.521     6630954.104 5  12471932.250 2
  24755632.842    -5452550.635 8  -3827609.054 8
 94  2  8 22 56  0.0110000  0  8 19 28 31 16  2 27 29 18
  24204832.373    -4363541.591 8  -5807214.916 9
  27759386.736     6234061.154 6   4002274.609 3
  25400733.988    -8571962.633 7  -7374096.095 6
  27691320.508     2536808.78915      5019.179
  26051688.611   -14595868.054 6  -6816680.511 5
  24501746.824   -11703677.112 8  -9653805.866 9
  27251846.110     6761015.122 5  12573278.465 2
  24774533.437    -5353236.871 8  -3750221.698 8
 94  2  8 22 56 30.0110000  0  8 19 28 31 16  2 27 29 18
  24210147.124    -4335617.594 8  -5785455.935 9
  27778423.677     6334093.138 5   4080221.602 3
  25410404.903    -8521148.664 7  -7334500.770 6
  27692901.343     2545131.326 5     11504.175 1
  26044502.796   -14633597.023 6  -6846079.653 5
  24498194.853   -11722334.828 8  -9668344.300 9
  27276627.434     6891247.913 5  12674758.536 2
  24793501.036    -5253545.123 8  -3672539.811 8
 94  2  8 22 57  0.0110000  0  8 19 28 31 16  2 27 29 18
  24215505.075    -4307459.452 8  -5763514.509 9
  27797524.954     6434484.794 5   4158448.810 3
  25420181.525    -8469761.544 7  -7294458.852 6
  27694570.228     2553940.413 5     18368.438 1
  26037383.834   -14671044.019 7  -6875259.093 5
  24494665.426   -11740874.739 8  -9682790.957 9
  27301440.506     7021651.741 5  12776371.885 2
  24812548.380    -5153469.720 8  -3594558.981 8
 94  2  8 22 57 30.0110000  0  8 19 28 31 16  2 27 29 18
  24220907.635    -4279062.190 8  -5741386.755 9
  27816702.977     6535232.957 5   4236953.849 3
  25430071.378    -8417796.705 7  -7253966.744 6
  27696347.697      -23273.91615      1853.331
  26030318.865   -14708186.406 7  -6904201.145 5
  24491158.903   -11759296.539 8  -9697145.569 9
  27326283.348     7152225.645 5  12878117.755 2
  24831662.608    -5053011.149 8  -3516279.575 7
 94  2  8 22 58  0.0110000  0  8 19 28 31 16  2 27 29 18
  24226358.581    -4250428.044 8  -5719074.408 9
  27835941.379     6636335.333 5   4315734.865 3
  25440071.735    -8365246.497 7  -7213018.504 6
  27698211.387      -13470.071 5      9491.479
  26023300.334   -14745027.552 7  -6932908.490 5
  24487678.163   -11777589.249 8  -9711399.603 9
  27351168.190     7282955.803 5  12979985.338 2
  24850856.520    -4952157.556 8  -3437692.358 7
 94  2  8 22 58 30.0110000  0  8 19 28 31 16  2 27 29 18
  24231846.612    -4221572.923 8  -5696589.877 9
  27855251.820     6737805.537 5   4394802.501 3
  25450187.362    -8312103.136 7  -7171608.084 6
  27700169.452       -3154.040 5     17529.905 1
  26016347.577   -14781577.246 7  -6961388.707 5
  24484230.730   -11795710.491 8  -9725520.021 9
  27376072.609     7413837.387 5  13081970.936 2
  24870125.261    -4850883.558 8  -3358777.584 7
 94  2  8 22 59  0.0110000  0  8 19 28 31 16  2 27 29 18
  24237380.151    -4192504.422 8  -5673939.074 9
  27874632.084     6839663.300 5   4474172.191 3
  25460410.974    -8258365.025 7  -7129734.201 6
  27702238.829        7690.550 5     25980.292 2
  26009447.314   -14817847.389 7  -6989651.083 5
  24480822.839   -11813622.212 8  -9739477.168 9
  27401011.295     7544885.000 5  13184085.984 2
  24889481.091    -4749171.870 8  -3279521.710 7
 94  2  8 22 59 30.0110000  0  8 19 28 31 16  2 27 29 18
  24242952.393    -4163216.252 9  -5651117.112 9
  27894097.368     6941934.866 5   4553864.283 3
  25470752.315    -8204020.918 7  -7087388.121 6
  27704408.727       19080.815 5     34855.861 2
  26002594.868   -14853852.743 7  -7017707.129 5
  24477456.919   -11831308.834 8  -9753258.920 9
  27425983.107     7676113.500 5  13286341.914 2
  24908921.073    -4647017.825 8  -3199921.160 7
 94  2  8 23  0  0.0110000  0  8 19 28 31 16  2 27 29 18
  24248564.388    -4133723.822 8  -5628135.986 9
  27913631.635     7044607.331 5   4633868.740 3
  25481208.926    -8149077.514 7  -7044575.091 6
  27706676.837       31008.091 5     44149.860 2
  25995785.232   -14889635.034 7  -7045589.367 5
  24474131.441   -11848772.064 8  -9766866.597 9
  27450987.687     7807512.823 5  13388730.947 2
  24928440.170    -4544442.724 8  -3119992.521 7
 94  2  8 23  0 30.0110000  0  8 19 28 31 16  2 27 29 18
  24254212.418    -4104045.792 9  -5605010.219 9
  27933248.884     7147660.772 4   4714170.151 3
  25491772.323    -8093555.656 7  -7001311.245 6
  27709035.004       43442.033 5     53838.674 2
  25989009.233   -14925218.134 7  -7073316.372 5
  24470848.714   -11866039.057 8  -9780321.360 9
  27476020.986     7939067.932 5  13491241.429 2
  24948031.337    -4441488.292 8  -3039768.282 7
 94  2  8 23  1  0.0120000  0  8 19 28 31 16  2 27 29 18
  24259894.085    -4074178.466 9  -5581736.964 9
  27952922.644     7251085.065 4   4794760.439 3
  25502447.663    -8037460.705 7  -6957600.900 6
  27711502.896       56373.923 5     63915.471 2
  25982281.531   -14960592.689 7  -7100880.885 5
  24467592.908   -11883137.886 8  -9793645.094 9
  27501086.304     8070778.905 6  13593873.286 2
  24967691.637    -4338181.626 8  -2959269.589 7
 94  2  8 23  1 30.0120000  0  8 19 28 31 16  2 27 29 18
  24265616.583    -4044111.236 9  -5558307.934 9
  27972674.021     7354877.270 4   4875637.400 3
  25513236.054    -7980789.680 7  -6913441.660 6
  27714061.235       69808.928 5     74384.394 2
  25975589.054   -14995736.274 7  -7128265.429 5
  24464375.715   -11900059.563 8  -9806830.776 9
  27526178.393     8202641.047 5  13696622.989 2
  24987413.184    -4234533.640 8  -2878504.925 7
 94  2  8 23  2  0.0120000  0  8 19 28 31 16  2 27 29 18
  24271378.894    -4013846.184 9  -5534724.777 9
  27992501.694     7459031.797 4   4956796.690 3
  25524125.026    -7923541.851 7  -6868832.955 6
  27716705.464       83741.023 5     85240.606 2
  25968951.829   -15030632.990 7  -7155457.610 5
  24461188.202   -11916803.179 8  -9819877.734 9
  27551298.963     8334639.275 5  13799478.715 2
  25007204.463    -4130535.775 8  -2797467.638 7
 94  2  8 23  2 30.0120000  0  8 19 28 31 16  2 27 29 18
  24277175.981    -3983366.481 9  -5510974.344 9
  28012381.802     7563561.222 4   5038248.112 3
  25535125.401    -7865706.736 7  -6823766.629 6
  27719453.871       98186.263 5     96496.637 2
  25962371.294   -15065234.682 7  -7182419.897 5
  24458039.332   -11933359.473 8  -9832778.708 9
  27576441.567     8466787.664 5  13902451.471 2
  25027068.381    -4026154.026 8  -2716131.212 7
 94  2  8 23  3  0.0120000  0  8 19 28 31 16  2 27 29 18
  24283020.765    -3952657.817 9  -5487045.494 9
  28032352.056     7668475.821 4   5119999.735 3
  25546243.863    -7807286.185 7  -6778244.088 6
  27722304.208      113162.307 5    108166.351 2
  25955841.425   -15099529.399 7  -7209142.978 5
  24454922.449   -11949717.745 8  -9845525.365 9
  27601625.452     8599103.964 5  14005555.027 2
  25047008.327    -3921360.800 8  -2634474.146 7
 94  2  8 23  3 30.0120000  0  8 19 28 31 16  2 27 29 18
  24288912.106    -3921707.339 9  -5462928.229 9
  28052387.666     7773777.155 3   5202052.603 3
  25557476.008    -7748276.694 7  -6732262.674 6
  27725261.571      128681.112 5    120258.946 2
  25949373.882   -15133529.681 7  -7235636.643 6
  24451849.367   -11965868.184 8  -9858110.114 9
  27626832.482     8731590.440 5  14108791.173 2
  25067033.864    -3816133.786 8  -2552479.073 7
 94  2  8 23  4  0.0120000  0  8 19 28 31 16  2 27 29 18
  24294845.089    -3890513.107 9  -5438621.009 9
  28072518.550     7879433.072 3   5284381.894 3
  25568821.173    -7688683.974 7  -6685826.792 6
  27728318.285      144729.955 5    132764.579 2
  25942957.514   -15167257.417 7  -7261917.930 6
  24448813.639   -11981833.362 8  -9870550.468 9
  27652073.958     8864221.614 5  14212140.107 2
  25087137.136    -3710480.509 8  -2470151.833 7
 94  2  8 23  4 30.0120000  0  8 19 28 31 16  2 27 29 18
  24300831.734    -3859074.413 8  -5414123.324 9
  28092658.247     7985424.560 4   5366972.531 3
  25580265.211    -7628526.304 7  -6638950.675 6
  27731471.232      161294.045 5    145671.625 2
  25936584.286   -15200733.095 7  -7288002.817 6
  24445804.772   -11997629.744 8  -9882859.326 9
  27677341.455     8997004.954 5  14315607.612 2
  25107322.912    -3604412.765 8  -2387501.637 7
 94  2  8 23  5  0.0120000  0  7 19 28 31  2 27 29 18
  24306858.672    -3827387.736 9  -5389432.394 9
  28112898.795     8091742.769 4   5449817.810 2
  25591817.683    -7567800.857 7  -6591632.120 6
  25930255.308   -15233980.687 6  -7313909.981 5
  24442833.019   -12013252.447 8  -9895032.821 9
  27702636.564     9129939.043 4  14419192.601 2
  25127580.728    -3497945.374 7  -2304540.034 7
 94  2  8 23  5 30.0120000  0  8 19 28 31 16  2 27 29 18
  24312932.617    -3795453.987 9  -5364548.946 9
  28133178.196     8198368.262 5   5532902.645 2
  25603482.008    -7506504.306 7  -6543868.570 6
  27738051.257        3590.65214      6101.493
  25923975.855   -15266998.666 6  -7339638.230 5
  24439899.160   -12028692.438 7  -9907063.952 9
  27727952.988     9263008.047 4  14522882.693 2
  25147916.460    -3391095.652 8  -2221280.522 7
 94  2  8 23  6  0.0120000  0  8 19 28 31 16  2 27 29 18
  24319057.587    -3763280.689 9  -5339478.827 9
  28153536.382     8305307.963 5   5616232.291 2
  25615257.976    -7444640.359 7  -6495662.882 6
  27741493.354       21652.025 5     20183.375
  25917740.292   -15299758.730 7  -7365165.511 5
  24436994.591   -12043941.179 8  -9918946.071 9
  27753312.102     9396223.055 5  14626686.547 2
  25168318.895    -3283879.180 8  -2137735.209 7
 94  2  8 23  6 30.0120000  0  8 19 28 31 16  2 27 29 18
  24325223.238    -3730885.567 8  -5314235.868 9
  28173944.544     8412576.340 5   5699818.136 2
  25627133.385    -7382212.961 7  -6447018.160 6
  27745030.395       40216.308 5     34649.021 1
  25911558.691   -15332247.180 7  -7390481.156 5
  24434128.185   -12058991.255 8  -9930673.380 9
  27778692.321     9529589.154 5  14730608.205 2
  25188787.705    -3176303.614 8  -2053910.101 7
 94  2  8 23  7  0.0120000  0  8 19 28 31 16  2 27 29 18
  24331431.251    -3698262.250 9  -5288815.111 9
  28194425.375     8520194.648 5   5783676.498 2
  25639125.503    -7319209.970 7  -6397924.907 6
  27748659.233      -41541.45015      6685.605
  25905435.370   -15364443.667 7  -7415569.289 5
  24431308.607   -12073818.000 8  -9942226.659 9
  27804087.261     9663091.376 5  14834635.879 2
  25209324.898    -3068377.126 7  -1969811.548 7
 94  2  8 23  7 30.0120000  0  8 19 28 31 16  2 27 29 18
  24337681.654    -3665410.300 8  -5263216.170 9
  28214975.219     8628183.868 5   5867823.973 1
  25651228.544    -7255615.429 7  -6348370.712 6
  27752395.816      -21910.352 5     21978.063
  25899360.586   -15396327.248 7  -7440413.596 5
  24428531.659   -12088408.234 8  -9953595.655 9
  27829522.462     9796723.720 5  14938765.002 2
  25229932.211    -2960087.957 7  -1885430.381 7
 94  2  8 23  8  0.0120000  0  8 19 28 31 16  2 27 29 18
  24343974.807    -3632344.800 9  -5237450.846 9
  28235592.726     8736547.727 5   5952263.314 1
  25663439.570    -7191443.291 7  -6298366.428 6
  27756235.828       -1740.773 5     37695.355
  25893353.255   -15427918.594 7  -7465030.205 5
  24425796.833   -12102784.539 8  -9964797.956 9
  27854970.195     9930468.391 5  15042981.582 2
  25250607.068    -2851440.905 7  -1800770.353 7
 94  2  8 23  8 30.0120000  0  8 19 28 31 16  2 27 29 18
  24350308.252    -3599060.894 8  -5211515.318 9
  28256284.611     8845283.502 5   6036992.500 1
  25675760.501    -7126686.589 7  -6247906.654 6
  27760171.473       18968.524 5     53832.514 1
  25887391.552   -15459234.919 7  -7489432.498 5
  24423103.917   -12116944.567 8  -9975831.724 9
  27880450.246    10064309.396 5  15147273.299 2
  25271352.797    -2742421.307 7  -1715820.013 7
 94  2  8 23  9  0.0120000  0  8 19 28 31 16  2 27 29 18
  24356686.607    -3565551.998 8  -5185404.491 9
  28277051.385     8954387.473 5   6122008.563 1
  25688194.453    -7061353.641 7  -6196997.869 6
  27764213.485       40204.550 5     70380.111 1
  25881485.640   -15490287.376 7  -7513629.186 5
  24420448.985   -12130892.011 8  -9986699.856 9
  27905922.952    10198247.197 5  15251640.384 2
  25292170.325    -2633024.837 7  -1630576.034 7
 94  2  8 23  9 30.0120000  0  8 19 28 31 16  2 27 29 18
  24363102.135    -3531822.404 8  -5159121.671 9
  28297878.926     9063834.634 5   6207292.046 1
  25700733.123    -6995463.360 7  -6145654.779 6
  27768349.931       61944.335 5     87320.191 1
  25875625.627   -15521095.414 7  -7537635.417 5
  24417829.458   -12144653.882 9  -9997423.354 9
  27931435.350    10332295.116 5  15356093.277 2
  25313060.613    -2523243.856 7  -1545032.412 7
 94  2  8 23 10  0.0120000  0  8 19 28 31 16  2 27 29 18
  24369565.721    -3497867.820 8  -5132663.553 9
  28318764.717     9173607.903 5   6292829.674 2
  25713374.861    -6929029.639 7  -6093888.254 6
  27772581.142       84155.822 5    104627.849 1
  25869804.887   -15551658.374 7  -7561450.672 5
  24415241.980   -12158247.068 9 -10008015.435 9
  27956970.172    10466462.057 5  15460638.949 2
  25334019.403    -2413099.072 7  -1459205.317 7
 94  2  8 23 10 30.0120000  0  8 19 28 31 16  2 27 29 18
  24376073.495    -3463670.382 8  -5106016.186 9
  28339715.263     9283709.636 5   6378623.146 2
  25726120.327    -6862027.019 7  -6041678.442 6
  27776894.016      106848.175 5    122310.216 2
  25864038.019   -15581955.247 7  -7585058.591 5
  24412690.806   -12171648.698 8 -10018458.267 9
  27982520.734    10600771.975 5  15565296.051 2
  25355051.373    -2302585.038 7  -1373090.516 7
